<?xml version='1.0' encoding='UTF-8'?><gpx version="1.1" creator="JPX - https://github.com/jenetics/jpx" xmlns="http://www.topografix.com/GPX/1/1"><trk><trkseg><trkpt lat="46.10710264820592" lon="12.89693058489024"><ele>124.0</ele><time>2026-04-24T15:45:34.598Z</time></trkpt><trkpt lat="46.1070679086571" lon="12.897070541269645"><ele>124.0</ele><time>2026-04-24T15:45:36.598Z</time></trkpt><trkpt lat="46.107059984862964" lon="12.897232393663081"><ele>124.0</ele><time>2026-04-24T15:45:38.598Z</time></trkpt><trkpt lat="46.107058795216055" lon="12.897329647184367"><ele>124.0</ele><time>2026-04-24T15:45:39.598Z</time></trkpt><trkpt lat="46.107047676440274" lon="12.89751089498655"><ele>124.0</ele><time>2026-04-24T15:45:41.603Z</time></trkpt><trkpt lat="46.107048322698354" lon="12.897676331604364"><ele>124.0</ele><time>2026-04-24T15:45:43.607Z</time></trkpt><trkpt lat="46.107010956305764" lon="12.897809140970752"><ele>124.0</ele><time>2026-04-24T15:45:45.51Z</time></trkpt><trkpt lat="46.106919056443964" lon="12.897900736317018"><ele>124.0</ele><time>2026-04-24T15:45:47.413Z</time></trkpt><trkpt lat="46.10680830543264" lon="12.897979029034806"><ele>124.0</ele><time>2026-04-24T15:45:49.316Z</time></trkpt><trkpt lat="46.106739977400956" lon="12.897976239303292"><ele>124.0</ele><time>2026-04-24T15:45:50.267Z</time></trkpt><trkpt lat="46.10667762317401" lon="12.898016198008438"><ele>124.0</ele><time>2026-04-24T15:45:51.218Z</time></trkpt><trkpt lat="46.10664350682511" lon="12.898105936787212"><ele>124.0</ele><time>2026-04-24T15:45:52.17Z</time></trkpt><trkpt lat="46.10663800299277" lon="12.898272367004864"><ele>124.0</ele><time>2026-04-24T15:45:54.072Z</time></trkpt><trkpt lat="46.10669138555952" lon="12.898424032009032"><ele>124.0</ele><time>2026-04-24T15:45:55.988Z</time></trkpt><trkpt lat="46.10675317727734" lon="12.898570374253865"><ele>124.0</ele><time>2026-04-24T15:45:57.989Z</time></trkpt><trkpt lat="46.10680052270016" lon="12.898677898178033"><ele>124.5</ele><time>2026-04-24T15:45:59.991Z</time></trkpt><trkpt lat="46.10688622682969" lon="12.8987982906886"><ele>125.0</ele><time>2026-04-24T15:46:01.992Z</time></trkpt><trkpt lat="46.106931262956806" lon="12.898891943417073"><ele>125.5</ele><time>2026-04-24T15:46:02.993Z</time></trkpt><trkpt lat="46.107013471274136" lon="12.898953647710593"><ele>126.0</ele><time>2026-04-24T15:46:04.994Z</time></trkpt><trkpt lat="46.10726366725598" lon="12.898914764589971"><ele>126.0</ele><time>2026-04-24T15:46:09.996Z</time></trkpt><trkpt lat="46.10738148123443" lon="12.898895336515558"><ele>126.0</ele><time>2026-04-24T15:46:11.997Z</time></trkpt><trkpt lat="46.10744987469224" lon="12.898881907460002"><ele>126.0</ele><time>2026-04-24T15:46:12.997Z</time></trkpt><trkpt lat="46.107528269194546" lon="12.898865619830175"><ele>126.0</ele><time>2026-04-24T15:46:13.997Z</time></trkpt><trkpt lat="46.10759959391883" lon="12.898852683882835"><ele>126.0</ele><time>2026-04-24T15:46:14.997Z</time></trkpt><trkpt lat="46.107673134739144" lon="12.898845080582294"><ele>126.0</ele><time>2026-04-24T15:46:15.998Z</time></trkpt><trkpt lat="46.107751278534565" lon="12.89884831633299"><ele>126.33333333333333</ele><time>2026-04-24T15:46:16.998Z</time></trkpt><trkpt lat="46.107821803029175" lon="12.898854052485978"><ele>126.66666666666666</ele><time>2026-04-24T15:46:17.998Z</time></trkpt><trkpt lat="46.10791101386029" lon="12.898870938358202"><ele>127.0</ele><time>2026-04-24T15:46:18.998Z</time></trkpt><trkpt lat="46.10797350625623" lon="12.898905442677442"><ele>127.33333333333333</ele><time>2026-04-24T15:46:19.998Z</time></trkpt><trkpt lat="46.1080199691854" lon="12.898975448075898"><ele>127.66666666666666</ele><time>2026-04-24T15:46:20.999Z</time></trkpt><trkpt lat="46.108058723841424" lon="12.899089106804134"><ele>128.0</ele><time>2026-04-24T15:46:21.999Z</time></trkpt><trkpt lat="46.10806886192725" lon="12.899203918699296"><ele>128.20000000000002</ele><time>2026-04-24T15:46:22.999Z</time></trkpt><trkpt lat="46.108094622109924" lon="12.899357557517027"><ele>128.4</ele><time>2026-04-24T15:46:24.999Z</time></trkpt><trkpt lat="46.10811300722478" lon="12.899495360081223"><ele>128.60000000000002</ele><time>2026-04-24T15:46:27Z</time></trkpt><trkpt lat="46.10815259670935" lon="12.8995676150769"><ele>128.8</ele><time>2026-04-24T15:46:42.001Z</time></trkpt><trkpt lat="46.10816616778683" lon="12.899684659022"><ele>129.0</ele><time>2026-04-24T15:46:46.001Z</time></trkpt><trkpt lat="46.10817745594791" lon="12.899825360904298"><ele>129.0</ele><time>2026-04-24T15:46:48.001Z</time></trkpt><trkpt lat="46.10818310307434" lon="12.900006365715937"><ele>129.0</ele><time>2026-04-24T15:46:50.001Z</time></trkpt><trkpt lat="46.108177427346554" lon="12.900107615676006"><ele>129.0</ele><time>2026-04-24T15:46:51.001Z</time></trkpt><trkpt lat="46.10817538685203" lon="12.900214131531632"><ele>129.0</ele><time>2026-04-24T15:46:52.001Z</time></trkpt><trkpt lat="46.10817223444135" lon="12.900315890141353"><ele>129.0</ele><time>2026-04-24T15:46:53.001Z</time></trkpt><trkpt lat="46.10816099037677" lon="12.900407594117574"><ele>129.0</ele><time>2026-04-24T15:46:54.001Z</time></trkpt><trkpt lat="46.10816115115693" lon="12.900520314952294"><ele>128.85714285714283</ele><time>2026-04-24T15:46:55.001Z</time></trkpt><trkpt lat="46.10816064848235" lon="12.900611771349611"><ele>128.71428571428572</ele><time>2026-04-24T15:46:56.001Z</time></trkpt><trkpt lat="46.10815634931315" lon="12.900716402453583"><ele>128.57142857142856</ele><time>2026-04-24T15:46:57.001Z</time></trkpt><trkpt lat="46.108151256865106" lon="12.900822654460757"><ele>128.42857142857142</ele><time>2026-04-24T15:46:58.001Z</time></trkpt><trkpt lat="46.108158945686476" lon="12.900937433582133"><ele>128.28571428571428</ele><time>2026-04-24T15:46:59.001Z</time></trkpt><trkpt lat="46.108155717536015" lon="12.901052890427795"><ele>128.14285714285714</ele><time>2026-04-24T15:47:00.001Z</time></trkpt><trkpt lat="46.10815359015401" lon="12.90116225312945"><ele>128.0</ele><time>2026-04-24T15:47:01.001Z</time></trkpt><trkpt lat="46.108150982645185" lon="12.901270428725443"><ele>127.99999999999999</ele><time>2026-04-24T15:47:02.001Z</time></trkpt><trkpt lat="46.10816046047989" lon="12.901396546385294"><ele>128.0</ele><time>2026-04-24T15:47:03.001Z</time></trkpt><trkpt lat="46.10816679795445" lon="12.90149651345914"><ele>128.0</ele><time>2026-04-24T15:47:04.001Z</time></trkpt><trkpt lat="46.10816193507532" lon="12.901595261270385"><ele>128.0</ele><time>2026-04-24T15:47:05.001Z</time></trkpt><trkpt lat="46.10816793495817" lon="12.90169981204879"><ele>127.99999999999999</ele><time>2026-04-24T15:47:06.001Z</time></trkpt><trkpt lat="46.10816809056565" lon="12.901814742415942"><ele>128.0</ele><time>2026-04-24T15:47:07.001Z</time></trkpt><trkpt lat="46.10816791889969" lon="12.901925398399948"><ele>127.83333333333333</ele><time>2026-04-24T15:47:08.001Z</time></trkpt><trkpt lat="46.10817375278278" lon="12.902051859872225"><ele>127.66666666666666</ele><time>2026-04-24T15:47:09.001Z</time></trkpt><trkpt lat="46.10817635539626" lon="12.902160160102381"><ele>127.5</ele><time>2026-04-24T15:47:10.001Z</time></trkpt><trkpt lat="46.10817175298991" lon="12.902265596635154"><ele>127.33333333333334</ele><time>2026-04-24T15:47:11.001Z</time></trkpt><trkpt lat="46.10816817364978" lon="12.902368647535397"><ele>127.16666666666667</ele><time>2026-04-24T15:47:12.001Z</time></trkpt><trkpt lat="46.108171612315765" lon="12.902476089234991"><ele>127.0</ele><time>2026-04-24T15:47:13.001Z</time></trkpt><trkpt lat="46.10816556734505" lon="12.902572721334055"><ele>127.00000000000001</ele><time>2026-04-24T15:47:14.001Z</time></trkpt><trkpt lat="46.10819968434645" lon="12.902667902420065"><ele>127.0</ele><time>2026-04-24T15:47:15.001Z</time></trkpt><trkpt lat="46.108253929994376" lon="12.90273734287091"><ele>127.0</ele><time>2026-04-24T15:47:16.001Z</time></trkpt><trkpt lat="46.108319913515246" lon="12.902770397242099"><ele>127.0</ele><time>2026-04-24T15:47:17.001Z</time></trkpt><trkpt lat="46.10843247175858" lon="12.902790587194927"><ele>127.00000000000001</ele><time>2026-04-24T15:47:19.001Z</time></trkpt><trkpt lat="46.108507255160646" lon="12.902792798149763"><ele>127.0</ele><time>2026-04-24T15:47:20.001Z</time></trkpt><trkpt lat="46.10859544478155" lon="12.902803706486852"><ele>127.00000000000001</ele><time>2026-04-24T15:47:21.001Z</time></trkpt><trkpt lat="46.10866706170713" lon="12.902810391857603"><ele>127.0</ele><time>2026-04-24T15:47:22.001Z</time></trkpt><trkpt lat="46.10873476370348" lon="12.902819295387634"><ele>127.0</ele><time>2026-04-24T15:47:23.001Z</time></trkpt><trkpt lat="46.108798105851946" lon="12.90282558463911"><ele>127.0</ele><time>2026-04-24T15:47:24.001Z</time></trkpt><trkpt lat="46.108933611294674" lon="12.902848590544824"><ele>127.00000000000001</ele><time>2026-04-24T15:47:26.001Z</time></trkpt><trkpt lat="46.108996183733986" lon="12.902865662145842"><ele>127.0</ele><time>2026-04-24T15:47:27.001Z</time></trkpt><trkpt lat="46.10907252038365" lon="12.902880996076227"><ele>127.50000000000001</ele><time>2026-04-24T15:47:28.001Z</time></trkpt><trkpt lat="46.10914042149868" lon="12.902895727512027"><ele>128.0</ele><time>2026-04-24T15:47:29.001Z</time></trkpt><trkpt lat="46.10926279824269" lon="12.902939578611296"><ele>128.5</ele><time>2026-04-24T15:47:31.001Z</time></trkpt><trkpt lat="46.10932289106644" lon="12.902973510785616"><ele>129.0</ele><time>2026-04-24T15:47:32.001Z</time></trkpt><trkpt lat="46.10939198943099" lon="12.903017243314846"><ele>129.5</ele><time>2026-04-24T15:47:33.001Z</time></trkpt><trkpt lat="46.10945090744685" lon="12.90307939886827"><ele>130.0</ele><time>2026-04-24T15:47:34.001Z</time></trkpt><trkpt lat="46.109545941995464" lon="12.90320628134449"><ele>130.0</ele><time>2026-04-24T15:47:36.001Z</time></trkpt><trkpt lat="46.109615530815745" lon="12.90334938960773"><ele>130.0</ele><time>2026-04-24T15:47:38.001Z</time></trkpt><trkpt lat="46.109654954185764" lon="12.903431577150153"><ele>130.0</ele><time>2026-04-24T15:47:39.001Z</time></trkpt><trkpt lat="46.10969639552398" lon="12.903511487065712"><ele>130.0</ele><time>2026-04-24T15:47:40.001Z</time></trkpt><trkpt lat="46.10974146144089" lon="12.903601875428516"><ele>130.0</ele><time>2026-04-24T15:47:41.001Z</time></trkpt><trkpt lat="46.10983338203624" lon="12.903666611232032"><ele>130.0</ele><time>2026-04-24T15:47:43.001Z</time></trkpt><trkpt lat="46.10993473513662" lon="12.903598814739727"><ele>130.0</ele><time>2026-04-24T15:47:45.001Z</time></trkpt><trkpt lat="46.10999434935652" lon="12.903556166749016"><ele>130.0</ele><time>2026-04-24T15:47:46.001Z</time></trkpt><trkpt lat="46.11007188816137" lon="12.90354885319775"><ele>130.0</ele><time>2026-04-24T15:47:47.001Z</time></trkpt><trkpt lat="46.11019666760838" lon="12.90354984985935"><ele>130.0</ele><time>2026-04-24T15:47:49.001Z</time></trkpt><trkpt lat="46.110269000991764" lon="12.903552338941955"><ele>130.0</ele><time>2026-04-24T15:47:50.001Z</time></trkpt><trkpt lat="46.110382914438574" lon="12.903558688072042"><ele>130.0</ele><time>2026-04-24T15:47:52.001Z</time></trkpt><trkpt lat="46.11048282640156" lon="12.903586508064237"><ele>130.0</ele><time>2026-04-24T15:47:54.001Z</time></trkpt><trkpt lat="46.110549311533305" lon="12.903594969973167"><ele>130.0</ele><time>2026-04-24T15:47:55.001Z</time></trkpt><trkpt lat="46.110622743055636" lon="12.903642053966989"><ele>130.0</ele><time>2026-04-24T15:47:57.001Z</time></trkpt><trkpt lat="46.11063884838252" lon="12.903744389187647"><ele>130.0</ele><time>2026-04-24T15:48:00.001Z</time></trkpt><trkpt lat="46.11067459217523" lon="12.903844820305265"><ele>130.0</ele><time>2026-04-24T15:48:03Z</time></trkpt><trkpt lat="46.11068873846344" lon="12.903974575134079"><ele>130.0</ele><time>2026-04-24T15:48:06Z</time></trkpt><trkpt lat="46.110676159459416" lon="12.904137283443303"><ele>130.0</ele><time>2026-04-24T15:48:08Z</time></trkpt><trkpt lat="46.11064699487537" lon="12.904297325783322"><ele>130.0</ele><time>2026-04-24T15:48:10Z</time></trkpt><trkpt lat="46.110677238439386" lon="12.90447707675963"><ele>130.0</ele><time>2026-04-24T15:48:12Z</time></trkpt><trkpt lat="46.11075731991999" lon="12.90453850970743"><ele>130.0</ele><time>2026-04-24T15:48:13Z</time></trkpt><trkpt lat="46.11081858217971" lon="12.904574535751799"><ele>130.16666666666669</ele><time>2026-04-24T15:48:14Z</time></trkpt><trkpt lat="46.11093110851957" lon="12.904613263952772"><ele>130.33333333333334</ele><time>2026-04-24T15:48:16Z</time></trkpt><trkpt lat="46.11099709673379" lon="12.904690247353164"><ele>130.5</ele><time>2026-04-24T15:48:17Z</time></trkpt><trkpt lat="46.111048803795676" lon="12.904764386744716"><ele>130.66666666666666</ele><time>2026-04-24T15:48:18Z</time></trkpt><trkpt lat="46.11110344626746" lon="12.904842936241867"><ele>130.83333333333331</ele><time>2026-04-24T15:48:19Z</time></trkpt><trkpt lat="46.111170416048225" lon="12.904937971937743"><ele>131.0</ele><time>2026-04-24T15:48:20Z</time></trkpt><trkpt lat="46.11122866872055" lon="12.905030984333584"><ele>130.8</ele><time>2026-04-24T15:48:21Z</time></trkpt><trkpt lat="46.111304792245775" lon="12.905136004096075"><ele>130.6</ele><time>2026-04-24T15:48:22Z</time></trkpt><trkpt lat="46.11137661367232" lon="12.905232055211515"><ele>130.4</ele><time>2026-04-24T15:48:23Z</time></trkpt><trkpt lat="46.11145311019096" lon="12.905311660139269"><ele>130.2</ele><time>2026-04-24T15:48:24Z</time></trkpt><trkpt lat="46.11155995002912" lon="12.905382763719782"><ele>130.0</ele><time>2026-04-24T15:48:25Z</time></trkpt><trkpt lat="46.111621916755595" lon="12.905498204802695"><ele>129.4</ele><time>2026-04-24T15:48:26Z</time></trkpt><trkpt lat="46.11167175407378" lon="12.90564769056884"><ele>128.8</ele><time>2026-04-24T15:48:27Z</time></trkpt><trkpt lat="46.111671705960525" lon="12.905802425667495"><ele>128.2</ele><time>2026-04-24T15:48:28Z</time></trkpt><trkpt lat="46.111655679504295" lon="12.905959079845484"><ele>127.6</ele><time>2026-04-24T15:48:29Z</time></trkpt><trkpt lat="46.11161640045821" lon="12.906104217358717"><ele>127.0</ele><time>2026-04-24T15:48:30Z</time></trkpt><trkpt lat="46.111561618424766" lon="12.906206262173251"><ele>125.0</ele><time>2026-04-24T15:48:31Z</time></trkpt><trkpt lat="46.111477057474715" lon="12.906278740731329"><ele>122.99999999999999</ele><time>2026-04-24T15:48:32Z</time></trkpt><trkpt lat="46.11136810237539" lon="12.906302753379624"><ele>120.99999999999999</ele><time>2026-04-24T15:48:33Z</time></trkpt><trkpt lat="46.11124521764306" lon="12.906326873891604"><ele>119.0</ele><time>2026-04-24T15:48:34Z</time></trkpt><trkpt lat="46.111141696137985" lon="12.906353885078671"><ele>117.0</ele><time>2026-04-24T15:48:35Z</time></trkpt><trkpt lat="46.11106646230073" lon="12.906405740414483"><ele>117.0</ele><time>2026-04-24T15:48:36Z</time></trkpt><trkpt lat="46.111096159644674" lon="12.906518504737436"><ele>116.99999999999999</ele><time>2026-04-24T15:48:38Z</time></trkpt><trkpt lat="46.11117120816059" lon="12.90656786868631"><ele>116.99999999999999</ele><time>2026-04-24T15:48:39Z</time></trkpt><trkpt lat="46.111268129071085" lon="12.906618782791867"><ele>117.0</ele><time>2026-04-24T15:48:41Z</time></trkpt><trkpt lat="46.11136827713334" lon="12.906641961082226"><ele>117.0</ele><time>2026-04-24T15:48:42Z</time></trkpt><trkpt lat="46.1114560374162" lon="12.906662334761815"><ele>117.0</ele><time>2026-04-24T15:48:43Z</time></trkpt><trkpt lat="46.11154984103148" lon="12.906684773635279"><ele>116.99999999999999</ele><time>2026-04-24T15:48:44Z</time></trkpt><trkpt lat="46.11165649058398" lon="12.906703400184917"><ele>116.99999999999999</ele><time>2026-04-24T15:48:45Z</time></trkpt><trkpt lat="46.11176175635546" lon="12.906731865381163"><ele>117.0</ele><time>2026-04-24T15:48:46Z</time></trkpt><trkpt lat="46.111878031869495" lon="12.906762126478517"><ele>117.0</ele><time>2026-04-24T15:48:47Z</time></trkpt><trkpt lat="46.11199231015788" lon="12.906788137508148"><ele>114.19999999999999</ele><time>2026-04-24T15:48:48Z</time></trkpt><trkpt lat="46.11209143024609" lon="12.90679754781646"><ele>111.39999999999999</ele><time>2026-04-24T15:48:49Z</time></trkpt><trkpt lat="46.11220646351059" lon="12.906813670884157"><ele>108.6</ele><time>2026-04-24T15:48:50Z</time></trkpt><trkpt lat="46.112315774910236" lon="12.90681530386862"><ele>105.80000000000001</ele><time>2026-04-24T15:48:51Z</time></trkpt><trkpt lat="46.11241225613857" lon="12.906808438094506"><ele>103.0</ele><time>2026-04-24T15:48:52Z</time></trkpt><trkpt lat="46.112517299053714" lon="12.90680871556088"><ele>103.0</ele><time>2026-04-24T15:48:53Z</time></trkpt><trkpt lat="46.112626119627286" lon="12.90679626926996"><ele>103.0</ele><time>2026-04-24T15:48:54Z</time></trkpt><trkpt lat="46.11272408033602" lon="12.906807432122916"><ele>103.0</ele><time>2026-04-24T15:48:55Z</time></trkpt><trkpt lat="46.112835117522344" lon="12.906791012878815"><ele>103.0</ele><time>2026-04-24T15:48:56Z</time></trkpt><trkpt lat="46.11292043508997" lon="12.906779663838462"><ele>103.0</ele><time>2026-04-24T15:48:57Z</time></trkpt><trkpt lat="46.11301480245277" lon="12.906771321012982"><ele>103.0</ele><time>2026-04-24T15:48:58Z</time></trkpt><trkpt lat="46.11313091976307" lon="12.906765030376674"><ele>103.0</ele><time>2026-04-24T15:48:59Z</time></trkpt><trkpt lat="46.11321525129054" lon="12.906750465272454"><ele>103.0</ele><time>2026-04-24T15:49:00Z</time></trkpt><trkpt lat="46.11330934750339" lon="12.90676834106859"><ele>103.0</ele><time>2026-04-24T15:49:01Z</time></trkpt><trkpt lat="46.113390649789196" lon="12.90677083990775"><ele>103.0</ele><time>2026-04-24T15:49:02Z</time></trkpt><trkpt lat="46.1134768769121" lon="12.906765624100796"><ele>103.16666666666667</ele><time>2026-04-24T15:49:03Z</time></trkpt><trkpt lat="46.113561227361586" lon="12.906754119770927"><ele>103.33333333333334</ele><time>2026-04-24T15:49:04Z</time></trkpt><trkpt lat="46.11364331611465" lon="12.906760508351512"><ele>103.5</ele><time>2026-04-24T15:49:05Z</time></trkpt><trkpt lat="46.11371617822719" lon="12.906749692113374"><ele>103.66666666666666</ele><time>2026-04-24T15:49:06Z</time></trkpt><trkpt lat="46.11379768637035" lon="12.90673822102468"><ele>103.83333333333333</ele><time>2026-04-24T15:49:07Z</time></trkpt><trkpt lat="46.11389004050568" lon="12.906728686822627"><ele>104.0</ele><time>2026-04-24T15:49:08Z</time></trkpt><trkpt lat="46.113972298854875" lon="12.906733027042396"><ele>105.33333333333333</ele><time>2026-04-24T15:49:09Z</time></trkpt><trkpt lat="46.11404888920813" lon="12.906715316068489"><ele>106.66666666666666</ele><time>2026-04-24T15:49:10Z</time></trkpt><trkpt lat="46.11412536000976" lon="12.906716565884617"><ele>108.0</ele><time>2026-04-24T15:49:11Z</time></trkpt><trkpt lat="46.11421268748542" lon="12.906710093070904"><ele>109.33333333333334</ele><time>2026-04-24T15:49:12Z</time></trkpt><trkpt lat="46.114290182964325" lon="12.90670981084489"><ele>110.66666666666667</ele><time>2026-04-24T15:49:13Z</time></trkpt><trkpt lat="46.11436627067421" lon="12.906708974089067"><ele>112.0</ele><time>2026-04-24T15:49:14Z</time></trkpt><trkpt lat="46.11443793086046" lon="12.906703249228158"><ele>112.33333333333334</ele><time>2026-04-24T15:49:15Z</time></trkpt><trkpt lat="46.11450401336826" lon="12.906697313265564"><ele>112.66666666666667</ele><time>2026-04-24T15:49:16Z</time></trkpt><trkpt lat="46.114575970957176" lon="12.906692278046174"><ele>113.0</ele><time>2026-04-24T15:49:17Z</time></trkpt><trkpt lat="46.114651137385465" lon="12.90667886852229"><ele>113.33333333333334</ele><time>2026-04-24T15:49:18Z</time></trkpt><trkpt lat="46.1147848094586" lon="12.906649464784667"><ele>113.66666666666667</ele><time>2026-04-24T15:49:20Z</time></trkpt><trkpt lat="46.11485352047743" lon="12.906661244430525"><ele>114.0</ele><time>2026-04-24T15:49:21Z</time></trkpt><trkpt lat="46.11492849241082" lon="12.90669416224495"><ele>114.0</ele><time>2026-04-24T15:49:22Z</time></trkpt><trkpt lat="46.11499905929019" lon="12.906690266267738"><ele>113.99999999999999</ele><time>2026-04-24T15:49:23Z</time></trkpt><trkpt lat="46.115072802730616" lon="12.906692621671436"><ele>114.0</ele><time>2026-04-24T15:49:24Z</time></trkpt><trkpt lat="46.11513613710331" lon="12.90669589770635"><ele>114.0</ele><time>2026-04-24T15:49:25Z</time></trkpt><trkpt lat="46.11520670700472" lon="12.906701427751425"><ele>113.99999999999999</ele><time>2026-04-24T15:49:26Z</time></trkpt><trkpt lat="46.11527803263157" lon="12.906710328993166"><ele>114.0</ele><time>2026-04-24T15:49:27Z</time></trkpt><trkpt lat="46.11535107124804" lon="12.906725547817352"><ele>114.0</ele><time>2026-04-24T15:49:28Z</time></trkpt><trkpt lat="46.11542609305208" lon="12.906743245504758"><ele>112.71428571428571</ele><time>2026-04-24T15:49:29Z</time></trkpt><trkpt lat="46.1155009590965" lon="12.906765779143763"><ele>111.42857142857142</ele><time>2026-04-24T15:49:30Z</time></trkpt><trkpt lat="46.11557477488117" lon="12.906788579745829"><ele>110.14285714285714</ele><time>2026-04-24T15:49:31Z</time></trkpt><trkpt lat="46.11564132798484" lon="12.906807234410946"><ele>108.85714285714286</ele><time>2026-04-24T15:49:32Z</time></trkpt><trkpt lat="46.11571544841037" lon="12.906828439629106"><ele>107.57142857142857</ele><time>2026-04-24T15:49:33Z</time></trkpt><trkpt lat="46.115782001159815" lon="12.906851481993908"><ele>106.28571428571428</ele><time>2026-04-24T15:49:34Z</time></trkpt><trkpt lat="46.11584695709613" lon="12.906877847655332"><ele>105.0</ele><time>2026-04-24T15:49:35Z</time></trkpt><trkpt lat="46.11591120811321" lon="12.906896642593512"><ele>104.83333333333333</ele><time>2026-04-24T15:49:36Z</time></trkpt><trkpt lat="46.1160273875026" lon="12.906940437434564"><ele>104.66666666666666</ele><time>2026-04-24T15:49:38Z</time></trkpt><trkpt lat="46.11609372462199" lon="12.906962541317457"><ele>104.5</ele><time>2026-04-24T15:49:39Z</time></trkpt><trkpt lat="46.11616483381058" lon="12.906984509353453"><ele>104.33333333333333</ele><time>2026-04-24T15:49:40Z</time></trkpt><trkpt lat="46.11624010422026" lon="12.907023533397691"><ele>104.16666666666666</ele><time>2026-04-24T15:49:41Z</time></trkpt><trkpt lat="46.116307213902594" lon="12.90705127118626"><ele>104.0</ele><time>2026-04-24T15:49:42Z</time></trkpt><trkpt lat="46.1163793329937" lon="12.90710942752849"><ele>103.99999999999999</ele><time>2026-04-24T15:49:43Z</time></trkpt><trkpt lat="46.116435027461286" lon="12.907154969061745"><ele>104.0</ele><time>2026-04-24T15:49:44Z</time></trkpt><trkpt lat="46.11650479159785" lon="12.907211382850921"><ele>104.0</ele><time>2026-04-24T15:49:45Z</time></trkpt><trkpt lat="46.1165824336144" lon="12.90725424723331"><ele>104.0</ele><time>2026-04-24T15:49:46Z</time></trkpt><trkpt lat="46.11664623932747" lon="12.907290803378167"><ele>103.99999999999999</ele><time>2026-04-24T15:49:47Z</time></trkpt><trkpt lat="46.116752387011836" lon="12.907382322805658"><ele>104.0</ele><time>2026-04-24T15:49:49Z</time></trkpt><trkpt lat="46.116886914267816" lon="12.907450793757818"><ele>104.16666666666666</ele><time>2026-04-24T15:49:51Z</time></trkpt><trkpt lat="46.11695866042045" lon="12.907489809172786"><ele>104.33333333333333</ele><time>2026-04-24T15:49:52Z</time></trkpt><trkpt lat="46.11704108783275" lon="12.907528063665492"><ele>104.5</ele><time>2026-04-24T15:49:53Z</time></trkpt><trkpt lat="46.11711087145558" lon="12.907568461658846"><ele>104.66666666666666</ele><time>2026-04-24T15:49:54Z</time></trkpt><trkpt lat="46.11717891091383" lon="12.907601652962452"><ele>104.83333333333333</ele><time>2026-04-24T15:49:55Z</time></trkpt><trkpt lat="46.1173027489089" lon="12.907682329138863"><ele>105.0</ele><time>2026-04-24T15:49:57Z</time></trkpt><trkpt lat="46.11737885942288" lon="12.907738634229336"><ele>104.85714285714286</ele><time>2026-04-24T15:49:58Z</time></trkpt><trkpt lat="46.117459170221565" lon="12.90780102750031"><ele>104.71428571428572</ele><time>2026-04-24T15:49:59Z</time></trkpt><trkpt lat="46.11751818990952" lon="12.907854313084526"><ele>104.57142857142857</ele><time>2026-04-24T15:50:00Z</time></trkpt><trkpt lat="46.1175862085047" lon="12.907903254704243"><ele>104.42857142857143</ele><time>2026-04-24T15:50:01Z</time></trkpt><trkpt lat="46.11765494665172" lon="12.907928654907193"><ele>104.28571428571429</ele><time>2026-04-24T15:50:02Z</time></trkpt><trkpt lat="46.1177233051442" lon="12.907950851361745"><ele>104.14285714285714</ele><time>2026-04-24T15:50:03Z</time></trkpt><trkpt lat="46.117792795031626" lon="12.907969079391242"><ele>104.0</ele><time>2026-04-24T15:50:04Z</time></trkpt><trkpt lat="46.117869173839985" lon="12.907980239775142"><ele>104.0</ele><time>2026-04-24T15:50:05Z</time></trkpt><trkpt lat="46.11794091906662" lon="12.908004034643609"><ele>104.0</ele><time>2026-04-24T15:50:06Z</time></trkpt><trkpt lat="46.11800568526256" lon="12.90801069247711"><ele>104.0</ele><time>2026-04-24T15:50:07Z</time></trkpt><trkpt lat="46.118072684398044" lon="12.908010679309811"><ele>104.0</ele><time>2026-04-24T15:50:08Z</time></trkpt><trkpt lat="46.118137375289244" lon="12.908017206127047"><ele>104.0</ele><time>2026-04-24T15:50:09Z</time></trkpt><trkpt lat="46.11822007407361" lon="12.908034857532048"><ele>104.0</ele><time>2026-04-24T15:50:10Z</time></trkpt><trkpt lat="46.11828318451021" lon="12.908045637969183"><ele>104.0</ele><time>2026-04-24T15:50:11Z</time></trkpt><trkpt lat="46.11839898649126" lon="12.908082277992802"><ele>104.0</ele><time>2026-04-24T15:50:13Z</time></trkpt><trkpt lat="46.11852607289005" lon="12.908102511002"><ele>104.0</ele><time>2026-04-24T15:50:15Z</time></trkpt><trkpt lat="46.11860040199781" lon="12.908125845191007"><ele>104.0</ele><time>2026-04-24T15:50:16Z</time></trkpt><trkpt lat="46.11872447458555" lon="12.908155863306915"><ele>104.0</ele><time>2026-04-24T15:50:18Z</time></trkpt><trkpt lat="46.11879188253" lon="12.908183265465466"><ele>104.0</ele><time>2026-04-24T15:50:19Z</time></trkpt><trkpt lat="46.11887419198771" lon="12.908203226275596"><ele>103.99999999999999</ele><time>2026-04-24T15:50:20Z</time></trkpt><trkpt lat="46.11893981663674" lon="12.908211582912287"><ele>104.0</ele><time>2026-04-24T15:50:21Z</time></trkpt><trkpt lat="46.11900197573936" lon="12.908235834508055"><ele>104.0</ele><time>2026-04-24T15:50:22Z</time></trkpt><trkpt lat="46.119069472145505" lon="12.908255341161496"><ele>104.0</ele><time>2026-04-24T15:50:23Z</time></trkpt><trkpt lat="46.119140941066505" lon="12.908274053197305"><ele>103.99999999999999</ele><time>2026-04-24T15:50:24Z</time></trkpt><trkpt lat="46.11926584654848" lon="12.90830234260935"><ele>104.0</ele><time>2026-04-24T15:50:26Z</time></trkpt><trkpt lat="46.11933693407968" lon="12.908330505582143"><ele>104.2</ele><time>2026-04-24T15:50:27Z</time></trkpt><trkpt lat="46.119455216757224" lon="12.908368706232809"><ele>104.4</ele><time>2026-04-24T15:50:29Z</time></trkpt><trkpt lat="46.11952528980931" lon="12.90839545720568"><ele>104.6</ele><time>2026-04-24T15:50:30Z</time></trkpt><trkpt lat="46.11959390162423" lon="12.908412950389398"><ele>104.8</ele><time>2026-04-24T15:50:31Z</time></trkpt><trkpt lat="46.11966853145317" lon="12.908417377074214"><ele>105.0</ele><time>2026-04-24T15:50:32Z</time></trkpt><trkpt lat="46.11978810393256" lon="12.908487497360786"><ele>105.0</ele><time>2026-04-24T15:50:34Z</time></trkpt><trkpt lat="46.119855377762185" lon="12.908510009212968"><ele>105.0</ele><time>2026-04-24T15:50:35Z</time></trkpt><trkpt lat="46.119930300505146" lon="12.908536798906631"><ele>105.0</ele><time>2026-04-24T15:50:36Z</time></trkpt><trkpt lat="46.1199911662255" lon="12.90856319723895"><ele>105.0</ele><time>2026-04-24T15:50:37Z</time></trkpt><trkpt lat="46.120115130428694" lon="12.908608252343793"><ele>105.0</ele><time>2026-04-24T15:50:39Z</time></trkpt><trkpt lat="46.12017811185924" lon="12.908623737785495"><ele>105.0</ele><time>2026-04-24T15:50:40Z</time></trkpt><trkpt lat="46.12029383692259" lon="12.90865299128307"><ele>105.0</ele><time>2026-04-24T15:50:42Z</time></trkpt><trkpt lat="46.12041281648306" lon="12.908704790627034"><ele>105.0</ele><time>2026-04-24T15:50:44Z</time></trkpt><trkpt lat="46.12052488391053" lon="12.908730383372038"><ele>105.0</ele><time>2026-04-24T15:50:46Z</time></trkpt><trkpt lat="46.12058936669762" lon="12.908745963446657"><ele>105.0</ele><time>2026-04-24T15:50:47Z</time></trkpt><trkpt lat="46.12070219950017" lon="12.908790363218326"><ele>105.0</ele><time>2026-04-24T15:50:49Z</time></trkpt><trkpt lat="46.12077044908514" lon="12.90881807393532"><ele>105.0</ele><time>2026-04-24T15:50:50Z</time></trkpt><trkpt lat="46.1208334125064" lon="12.908838753139166"><ele>105.0</ele><time>2026-04-24T15:50:51Z</time></trkpt><trkpt lat="46.12094879484908" lon="12.908873281043313"><ele>105.0</ele><time>2026-04-24T15:50:53Z</time></trkpt><trkpt lat="46.12101714109717" lon="12.9088968128957"><ele>105.0</ele><time>2026-04-24T15:50:54Z</time></trkpt><trkpt lat="46.12108112035428" lon="12.908921066759826"><ele>105.0</ele><time>2026-04-24T15:50:55Z</time></trkpt><trkpt lat="46.12114975599604" lon="12.908949407219064"><ele>105.0</ele><time>2026-04-24T15:50:56Z</time></trkpt><trkpt lat="46.12121364661986" lon="12.90896075728915"><ele>105.0</ele><time>2026-04-24T15:50:57Z</time></trkpt><trkpt lat="46.12127520424744" lon="12.908981038929964"><ele>105.0</ele><time>2026-04-24T15:50:58Z</time></trkpt><trkpt lat="46.12139670036437" lon="12.909023680450998"><ele>105.0</ele><time>2026-04-24T15:51:00Z</time></trkpt><trkpt lat="46.12151674450926" lon="12.909057164482372"><ele>105.0</ele><time>2026-04-24T15:51:02Z</time></trkpt><trkpt lat="46.12157953801706" lon="12.909068570127717"><ele>105.0</ele><time>2026-04-24T15:51:03Z</time></trkpt><trkpt lat="46.12169289295301" lon="12.909105680753425"><ele>104.83333333333333</ele><time>2026-04-24T15:51:05Z</time></trkpt><trkpt lat="46.121766257985485" lon="12.909117490533953"><ele>104.66666666666666</ele><time>2026-04-24T15:51:06Z</time></trkpt><trkpt lat="46.121842804537145" lon="12.909131971918796"><ele>104.5</ele><time>2026-04-24T15:51:07Z</time></trkpt><trkpt lat="46.12196812086044" lon="12.909151557311196"><ele>104.33333333333333</ele><time>2026-04-24T15:51:09Z</time></trkpt><trkpt lat="46.12203135505908" lon="12.909156879611215"><ele>104.16666666666666</ele><time>2026-04-24T15:51:10Z</time></trkpt><trkpt lat="46.12209664391101" lon="12.90918158483404"><ele>104.0</ele><time>2026-04-24T15:51:11Z</time></trkpt><trkpt lat="46.12217311812831" lon="12.909206079009994"><ele>104.0</ele><time>2026-04-24T15:51:12Z</time></trkpt><trkpt lat="46.12228872652234" lon="12.90926052914951"><ele>104.0</ele><time>2026-04-24T15:51:14Z</time></trkpt><trkpt lat="46.12235108775323" lon="12.909303479703588"><ele>104.0</ele><time>2026-04-24T15:51:15Z</time></trkpt><trkpt lat="46.12241224521767" lon="12.90934045010034"><ele>104.0</ele><time>2026-04-24T15:51:16Z</time></trkpt><trkpt lat="46.1225347149509" lon="12.909406631472779"><ele>104.0</ele><time>2026-04-24T15:51:18Z</time></trkpt><trkpt lat="46.12259892760144" lon="12.909466062058883"><ele>104.28571428571428</ele><time>2026-04-24T15:51:19Z</time></trkpt><trkpt lat="46.12265542707543" lon="12.909513524675821"><ele>104.57142857142858</ele><time>2026-04-24T15:51:20Z</time></trkpt><trkpt lat="46.12272023224831" lon="12.909557788980992"><ele>104.85714285714286</ele><time>2026-04-24T15:51:21Z</time></trkpt><trkpt lat="46.12279308431394" lon="12.909612252197316"><ele>105.14285714285714</ele><time>2026-04-24T15:51:22Z</time></trkpt><trkpt lat="46.12285196142926" lon="12.909653728276115"><ele>105.42857142857142</ele><time>2026-04-24T15:51:23Z</time></trkpt><trkpt lat="46.12291292283397" lon="12.909706625148214"><ele>105.71428571428572</ele><time>2026-04-24T15:51:24Z</time></trkpt><trkpt lat="46.12297135942987" lon="12.909752573693885"><ele>106.0</ele><time>2026-04-24T15:51:25Z</time></trkpt><trkpt lat="46.12302877488455" lon="12.909800686505971"><ele>106.0</ele><time>2026-04-24T15:51:26Z</time></trkpt><trkpt lat="46.123089305783665" lon="12.909843577201004"><ele>106.0</ele><time>2026-04-24T15:51:27Z</time></trkpt><trkpt lat="46.1231523933095" lon="12.90988104039924"><ele>106.0</ele><time>2026-04-24T15:51:28Z</time></trkpt><trkpt lat="46.12321691038326" lon="12.909924073147105"><ele>106.0</ele><time>2026-04-24T15:51:29Z</time></trkpt><trkpt lat="46.12327829360146" lon="12.909969784516628"><ele>106.0</ele><time>2026-04-24T15:51:30Z</time></trkpt><trkpt lat="46.1233367623047" lon="12.910015781134955"><ele>106.0</ele><time>2026-04-24T15:51:31Z</time></trkpt><trkpt lat="46.12339624811579" lon="12.910060346829244"><ele>106.0</ele><time>2026-04-24T15:51:32Z</time></trkpt><trkpt lat="46.12345376493952" lon="12.910108473878807"><ele>105.66666666666667</ele><time>2026-04-24T15:51:33Z</time></trkpt><trkpt lat="46.12351579815013" lon="12.910148164458633"><ele>105.33333333333334</ele><time>2026-04-24T15:51:34Z</time></trkpt><trkpt lat="46.12357116223085" lon="12.910191727990016"><ele>105.0</ele><time>2026-04-24T15:51:35Z</time></trkpt><trkpt lat="46.123678467177236" lon="12.910269910591051"><ele>104.66666666666666</ele><time>2026-04-24T15:51:37Z</time></trkpt><trkpt lat="46.12374109853374" lon="12.910297674115258"><ele>104.33333333333333</ele><time>2026-04-24T15:51:38Z</time></trkpt><trkpt lat="46.123853155704545" lon="12.910342108218524"><ele>104.0</ele><time>2026-04-24T15:51:40Z</time></trkpt><trkpt lat="46.12391141790608" lon="12.910378891917565"><ele>104.0</ele><time>2026-04-24T15:51:41Z</time></trkpt><trkpt lat="46.12397261379864" lon="12.910410009061879"><ele>104.0</ele><time>2026-04-24T15:51:42Z</time></trkpt><trkpt lat="46.1240900514943" lon="12.910444872558774"><ele>104.0</ele><time>2026-04-24T15:51:44Z</time></trkpt><trkpt lat="46.124222427279086" lon="12.910478062986405"><ele>104.0</ele><time>2026-04-24T15:51:46Z</time></trkpt><trkpt lat="46.1242866423574" lon="12.910485047553625"><ele>104.0</ele><time>2026-04-24T15:51:47Z</time></trkpt><trkpt lat="46.12436079656136" lon="12.910497294927024"><ele>104.2</ele><time>2026-04-24T15:51:48Z</time></trkpt><trkpt lat="46.12448088360817" lon="12.910522327755116"><ele>104.4</ele><time>2026-04-24T15:51:50Z</time></trkpt><trkpt lat="46.12460247355403" lon="12.9105422892074"><ele>104.6</ele><time>2026-04-24T15:51:52Z</time></trkpt><trkpt lat="46.12466620954975" lon="12.91055199882853"><ele>104.8</ele><time>2026-04-24T15:51:53Z</time></trkpt><trkpt lat="46.12479180008867" lon="12.91058067753859"><ele>105.0</ele><time>2026-04-24T15:51:55Z</time></trkpt><trkpt lat="46.124909202129935" lon="12.91060781095675"><ele>105.0</ele><time>2026-04-24T15:51:57Z</time></trkpt><trkpt lat="46.12502960718437" lon="12.910624696491071"><ele>105.0</ele><time>2026-04-24T15:51:59Z</time></trkpt><trkpt lat="46.12509857340342" lon="12.910635818097992"><ele>105.0</ele><time>2026-04-24T15:52:00Z</time></trkpt><trkpt lat="46.125211346396966" lon="12.910647322527929"><ele>105.0</ele><time>2026-04-24T15:52:02Z</time></trkpt><trkpt lat="46.12534445785242" lon="12.91065333488427"><ele>105.0</ele><time>2026-04-24T15:52:04Z</time></trkpt><trkpt lat="46.12541406236485" lon="12.910666972360799"><ele>105.0</ele><time>2026-04-24T15:52:05Z</time></trkpt><trkpt lat="46.125476775960934" lon="12.910677631756545"><ele>105.0</ele><time>2026-04-24T15:52:06Z</time></trkpt><trkpt lat="46.12555690221673" lon="12.910699497354813"><ele>105.0</ele><time>2026-04-24T15:52:07Z</time></trkpt><trkpt lat="46.12568817267851" lon="12.910732697393785"><ele>105.0</ele><time>2026-04-24T15:52:09Z</time></trkpt><trkpt lat="46.125768529951756" lon="12.910749281795466"><ele>105.0</ele><time>2026-04-24T15:52:10Z</time></trkpt><trkpt lat="46.12584359992038" lon="12.910758405525138"><ele>105.0</ele><time>2026-04-24T15:52:11Z</time></trkpt><trkpt lat="46.12591337835402" lon="12.91076671796512"><ele>105.83333333333333</ele><time>2026-04-24T15:52:12Z</time></trkpt><trkpt lat="46.12597879972396" lon="12.910768434573216"><ele>106.66666666666666</ele><time>2026-04-24T15:52:13Z</time></trkpt><trkpt lat="46.12607486745333" lon="12.91079643966061"><ele>107.5</ele><time>2026-04-24T15:52:15Z</time></trkpt><trkpt lat="46.12613789199742" lon="12.910814180595032"><ele>108.33333333333333</ele><time>2026-04-24T15:52:16Z</time></trkpt><trkpt lat="46.1262104191589" lon="12.910813558572912"><ele>109.16666666666666</ele><time>2026-04-24T15:52:17Z</time></trkpt><trkpt lat="46.12629170638297" lon="12.910824925822753"><ele>110.0</ele><time>2026-04-24T15:52:18Z</time></trkpt><trkpt lat="46.12636624962485" lon="12.910839109897372"><ele>109.99999999999999</ele><time>2026-04-24T15:52:19Z</time></trkpt><trkpt lat="46.12643963892072" lon="12.91083758925781"><ele>110.0</ele><time>2026-04-24T15:52:20Z</time></trkpt><trkpt lat="46.126513316146614" lon="12.910850708710763"><ele>110.0</ele><time>2026-04-24T15:52:21Z</time></trkpt><trkpt lat="46.12658439406669" lon="12.91086983372068"><ele>110.0</ele><time>2026-04-24T15:52:22Z</time></trkpt><trkpt lat="46.12665142966464" lon="12.91088471813694"><ele>109.99999999999999</ele><time>2026-04-24T15:52:23Z</time></trkpt><trkpt lat="46.12678247797745" lon="12.91091410662584"><ele>110.0</ele><time>2026-04-24T15:52:25Z</time></trkpt><trkpt lat="46.12684690078399" lon="12.910926682016608"><ele>109.66666666666666</ele><time>2026-04-24T15:52:26Z</time></trkpt><trkpt lat="46.12691117827216" lon="12.910937284802571"><ele>109.33333333333333</ele><time>2026-04-24T15:52:27Z</time></trkpt><trkpt lat="46.12698543709263" lon="12.910949345963848"><ele>109.0</ele><time>2026-04-24T15:52:28Z</time></trkpt><trkpt lat="46.12705093340566" lon="12.910957866833526"><ele>108.66666666666666</ele><time>2026-04-24T15:52:29Z</time></trkpt><trkpt lat="46.12717730569734" lon="12.910973330707433"><ele>108.33333333333333</ele><time>2026-04-24T15:52:31Z</time></trkpt><trkpt lat="46.12724658555441" lon="12.910980690647982"><ele>108.0</ele><time>2026-04-24T15:52:32Z</time></trkpt><trkpt lat="46.12731149518276" lon="12.910993481092671"><ele>108.2</ele><time>2026-04-24T15:52:33Z</time></trkpt><trkpt lat="46.127437727674895" lon="12.91100159804243"><ele>108.4</ele><time>2026-04-24T15:52:35Z</time></trkpt><trkpt lat="46.12750738861499" lon="12.911007035956569"><ele>108.60000000000001</ele><time>2026-04-24T15:52:36Z</time></trkpt><trkpt lat="46.12757743548263" lon="12.91100929879946"><ele>108.80000000000001</ele><time>2026-04-24T15:52:37Z</time></trkpt><trkpt lat="46.12770868805231" lon="12.911031577463962"><ele>109.0</ele><time>2026-04-24T15:52:39Z</time></trkpt><trkpt lat="46.12777452507674" lon="12.911061804519177"><ele>109.0</ele><time>2026-04-24T15:52:40Z</time></trkpt><trkpt lat="46.12784060593286" lon="12.91108985597167"><ele>109.0</ele><time>2026-04-24T15:52:41Z</time></trkpt><trkpt lat="46.12791535975036" lon="12.911110623791213"><ele>109.0</ele><time>2026-04-24T15:52:42Z</time></trkpt><trkpt lat="46.127984791205144" lon="12.911127953889055"><ele>109.0</ele><time>2026-04-24T15:52:43Z</time></trkpt><trkpt lat="46.128111681725336" lon="12.911165547624257"><ele>109.0</ele><time>2026-04-24T15:52:45Z</time></trkpt><trkpt lat="46.12823363498221" lon="12.911192855854946"><ele>108.6</ele><time>2026-04-24T15:52:47Z</time></trkpt><trkpt lat="46.128302487737315" lon="12.91120461579039"><ele>108.2</ele><time>2026-04-24T15:52:48Z</time></trkpt><trkpt lat="46.12836861127568" lon="12.911211449024648"><ele>107.79999999999998</ele><time>2026-04-24T15:52:49Z</time></trkpt><trkpt lat="46.12843716468312" lon="12.911225857215403"><ele>107.39999999999999</ele><time>2026-04-24T15:52:50Z</time></trkpt><trkpt lat="46.12856016686219" lon="12.911234843479102"><ele>107.0</ele><time>2026-04-24T15:52:52Z</time></trkpt><trkpt lat="46.12869029733088" lon="12.91121869144189"><ele>107.0</ele><time>2026-04-24T15:52:54Z</time></trkpt><trkpt lat="46.12881150722117" lon="12.911198028094537"><ele>106.99999999999999</ele><time>2026-04-24T15:52:56Z</time></trkpt><trkpt lat="46.12892966189013" lon="12.911203170226488"><ele>106.99999999999999</ele><time>2026-04-24T15:52:58Z</time></trkpt><trkpt lat="46.12900149837795" lon="12.911210776549133"><ele>107.0</ele><time>2026-04-24T15:52:59Z</time></trkpt><trkpt lat="46.1290701038128" lon="12.911223813951025"><ele>107.0</ele><time>2026-04-24T15:53:00Z</time></trkpt><trkpt lat="46.12914245185316" lon="12.911243942382747"><ele>107.19999999999999</ele><time>2026-04-24T15:53:01Z</time></trkpt><trkpt lat="46.12926645828968" lon="12.911233011495817"><ele>107.39999999999999</ele><time>2026-04-24T15:53:03Z</time></trkpt><trkpt lat="46.12933759240073" lon="12.911223122822918"><ele>107.60000000000001</ele><time>2026-04-24T15:53:04Z</time></trkpt><trkpt lat="46.12945099219202" lon="12.91119797781685"><ele>107.80000000000001</ele><time>2026-04-24T15:53:06Z</time></trkpt><trkpt lat="46.12954818414949" lon="12.911157354404708"><ele>108.0</ele><time>2026-04-24T15:53:08Z</time></trkpt><trkpt lat="46.12965842299497" lon="12.91110320569954"><ele>108.0</ele><time>2026-04-24T15:53:10Z</time></trkpt><trkpt lat="46.12974916582653" lon="12.911090299434196"><ele>108.0</ele><time>2026-04-24T15:53:12Z</time></trkpt><trkpt lat="46.129837571725346" lon="12.911099387001265"><ele>108.0</ele><time>2026-04-24T15:53:14Z</time></trkpt><trkpt lat="46.12990694496235" lon="12.911132592949745"><ele>108.0</ele><time>2026-04-24T15:53:15Z</time></trkpt><trkpt lat="46.129973042930004" lon="12.911153532735963"><ele>108.0</ele><time>2026-04-24T15:53:16Z</time></trkpt><trkpt lat="46.130093817323875" lon="12.911203665725093"><ele>108.0</ele><time>2026-04-24T15:53:18Z</time></trkpt><trkpt lat="46.13019602245689" lon="12.911274360222434"><ele>108.2</ele><time>2026-04-24T15:53:20Z</time></trkpt><trkpt lat="46.13025498728651" lon="12.911307309461296"><ele>108.4</ele><time>2026-04-24T15:53:21Z</time></trkpt><trkpt lat="46.13035690443952" lon="12.911407485602709"><ele>108.60000000000001</ele><time>2026-04-24T15:53:23Z</time></trkpt><trkpt lat="46.130446045867714" lon="12.911495517991355"><ele>108.80000000000001</ele><time>2026-04-24T15:53:25Z</time></trkpt><trkpt lat="46.130536361021214" lon="12.911587519308894"><ele>109.0</ele><time>2026-04-24T15:53:27Z</time></trkpt><trkpt lat="46.130640564893746" lon="12.911682416762524"><ele>109.0</ele><time>2026-04-24T15:53:29Z</time></trkpt><trkpt lat="46.13074094950893" lon="12.911759785142207"><ele>109.0</ele><time>2026-04-24T15:53:31Z</time></trkpt><trkpt lat="46.13083525175978" lon="12.91183974813261"><ele>109.0</ele><time>2026-04-24T15:53:33Z</time></trkpt><trkpt lat="46.13092181396231" lon="12.911924893725143"><ele>109.0</ele><time>2026-04-24T15:53:35Z</time></trkpt><trkpt lat="46.13100191074339" lon="12.912002956953225"><ele>109.0</ele><time>2026-04-24T15:53:37Z</time></trkpt><trkpt lat="46.13109677067531" lon="12.912090874167252"><ele>109.0</ele><time>2026-04-24T15:53:39Z</time></trkpt><trkpt lat="46.13119540897791" lon="12.912169266137198"><ele>109.0</ele><time>2026-04-24T15:53:41Z</time></trkpt><trkpt lat="46.13128909563693" lon="12.912243210795173"><ele>109.0</ele><time>2026-04-24T15:53:43Z</time></trkpt><trkpt lat="46.13138536537481" lon="12.912293492195822"><ele>109.0</ele><time>2026-04-24T15:53:45Z</time></trkpt><trkpt lat="46.13147935700866" lon="12.912359293970963"><ele>109.0</ele><time>2026-04-24T15:53:47Z</time></trkpt><trkpt lat="46.131574404865695" lon="12.91241971929404"><ele>109.0</ele><time>2026-04-24T15:53:49Z</time></trkpt><trkpt lat="46.13167649062278" lon="12.912474301047917"><ele>109.0</ele><time>2026-04-24T15:53:51Z</time></trkpt><trkpt lat="46.13176079706664" lon="12.912523859442326"><ele>109.0</ele><time>2026-04-24T15:53:53Z</time></trkpt><trkpt lat="46.13186448854841" lon="12.912577249184546"><ele>109.0</ele><time>2026-04-24T15:53:55Z</time></trkpt><trkpt lat="46.1319684127043" lon="12.912603951704456"><ele>109.0</ele><time>2026-04-24T15:53:57Z</time></trkpt><trkpt lat="46.13207738399538" lon="12.912633001906425"><ele>109.0</ele><time>2026-04-24T15:53:59Z</time></trkpt><trkpt lat="46.1321860862076" lon="12.912658316674435"><ele>109.0</ele><time>2026-04-24T15:54:01Z</time></trkpt><trkpt lat="46.13229648117772" lon="12.912638427665858"><ele>109.0</ele><time>2026-04-24T15:54:03Z</time></trkpt><trkpt lat="46.13239336752983" lon="12.912618498518974"><ele>109.0</ele><time>2026-04-24T15:54:05Z</time></trkpt><trkpt lat="46.13249692203537" lon="12.912656935067496"><ele>109.0</ele><time>2026-04-24T15:54:07Z</time></trkpt><trkpt lat="46.13259159324875" lon="12.912706960163103"><ele>108.80000000000001</ele><time>2026-04-24T15:54:09Z</time></trkpt><trkpt lat="46.13268687022176" lon="12.912756329883388"><ele>108.60000000000001</ele><time>2026-04-24T15:54:11Z</time></trkpt><trkpt lat="46.13279423614031" lon="12.912845436846018"><ele>108.4</ele><time>2026-04-24T15:54:13Z</time></trkpt><trkpt lat="46.13289655516193" lon="12.91291450720167"><ele>108.2</ele><time>2026-04-24T15:54:15Z</time></trkpt><trkpt lat="46.13295348658024" lon="12.912953917878198"><ele>108.0</ele><time>2026-04-24T15:54:16Z</time></trkpt><trkpt lat="46.13305338132705" lon="12.913015282299943"><ele>108.0</ele><time>2026-04-24T15:54:18Z</time></trkpt><trkpt lat="46.133109737185215" lon="12.913056245287502"><ele>108.0</ele><time>2026-04-24T15:54:19Z</time></trkpt><trkpt lat="46.13321109681615" lon="12.913121596771855"><ele>108.0</ele><time>2026-04-24T15:54:21Z</time></trkpt><trkpt lat="46.13333113609933" lon="12.913175614360867"><ele>108.0</ele><time>2026-04-24T15:54:23Z</time></trkpt><trkpt lat="46.133387693828034" lon="12.913217211522744"><ele>108.0</ele><time>2026-04-24T15:54:24Z</time></trkpt><trkpt lat="46.133448896084175" lon="12.913238632871245"><ele>108.0</ele><time>2026-04-24T15:54:25Z</time></trkpt><trkpt lat="46.13357046657857" lon="12.913228061667269"><ele>108.33333333333333</ele><time>2026-04-24T15:54:27Z</time></trkpt><trkpt lat="46.133634983140254" lon="12.913220761783936"><ele>108.66666666666666</ele><time>2026-04-24T15:54:28Z</time></trkpt><trkpt lat="46.133704486238756" lon="12.913211088364763"><ele>109.0</ele><time>2026-04-24T15:54:29Z</time></trkpt><trkpt lat="46.133828243448335" lon="12.913200033073363"><ele>109.33333333333333</ele><time>2026-04-24T15:54:31Z</time></trkpt><trkpt lat="46.133894135553874" lon="12.91318238939384"><ele>109.66666666666666</ele><time>2026-04-24T15:54:32Z</time></trkpt><trkpt lat="46.13396767019629" lon="12.913168620343242"><ele>110.0</ele><time>2026-04-24T15:54:33Z</time></trkpt><trkpt lat="46.13403999452805" lon="12.913162659027945"><ele>110.0</ele><time>2026-04-24T15:54:34Z</time></trkpt><trkpt lat="46.13410332825107" lon="12.913143521240421"><ele>110.0</ele><time>2026-04-24T15:54:35Z</time></trkpt><trkpt lat="46.134176079610214" lon="12.91313809441182"><ele>110.0</ele><time>2026-04-24T15:54:36Z</time></trkpt><trkpt lat="46.13423912783404" lon="12.9131201387499"><ele>110.0</ele><time>2026-04-24T15:54:37Z</time></trkpt><trkpt lat="46.13436203584728" lon="12.913099563717479"><ele>110.0</ele><time>2026-04-24T15:54:39Z</time></trkpt><trkpt lat="46.13448914319855" lon="12.913071992306095"><ele>109.99999999999999</ele><time>2026-04-24T15:54:41Z</time></trkpt><trkpt lat="46.13455594385532" lon="12.913066362328724"><ele>110.0</ele><time>2026-04-24T15:54:42Z</time></trkpt><trkpt lat="46.13467175850937" lon="12.913093149072106"><ele>110.0</ele><time>2026-04-24T15:54:44Z</time></trkpt><trkpt lat="46.13474065403775" lon="12.913126047920322"><ele>110.0</ele><time>2026-04-24T15:54:45Z</time></trkpt><trkpt lat="46.134853421552066" lon="12.91317225548499"><ele>109.99999999999999</ele><time>2026-04-24T15:54:47Z</time></trkpt><trkpt lat="46.1349146875897" lon="12.913193721332599"><ele>110.0</ele><time>2026-04-24T15:54:48Z</time></trkpt><trkpt lat="46.13503950517279" lon="12.913227735712642"><ele>110.4</ele><time>2026-04-24T15:54:50Z</time></trkpt><trkpt lat="46.13510222122125" lon="12.91325148212309"><ele>110.8</ele><time>2026-04-24T15:54:51Z</time></trkpt><trkpt lat="46.13520826303879" lon="12.91333904836765"><ele>111.19999999999999</ele><time>2026-04-24T15:54:53Z</time></trkpt><trkpt lat="46.13526086657243" lon="12.9133973691235"><ele>111.6</ele><time>2026-04-24T15:54:54Z</time></trkpt><trkpt lat="46.13537590170568" lon="12.913485767320465"><ele>112.0</ele><time>2026-04-24T15:54:56Z</time></trkpt><trkpt lat="46.135481392759864" lon="12.913569173562603"><ele>112.0</ele><time>2026-04-24T15:54:58Z</time></trkpt><trkpt lat="46.13554033018635" lon="12.913606303419304"><ele>111.99999999999999</ele><time>2026-04-24T15:54:59Z</time></trkpt><trkpt lat="46.135599962391005" lon="12.913654807964766"><ele>111.99999999999999</ele><time>2026-04-24T15:55:00Z</time></trkpt><trkpt lat="46.13571041393391" lon="12.91370681981339"><ele>112.0</ele><time>2026-04-24T15:55:02Z</time></trkpt><trkpt lat="46.13582956882616" lon="12.91376660170866"><ele>112.0</ele><time>2026-04-24T15:55:04Z</time></trkpt><trkpt lat="46.13595096791188" lon="12.913791539893607"><ele>112.6</ele><time>2026-04-24T15:55:06Z</time></trkpt><trkpt lat="46.136020059355424" lon="12.913795064370918"><ele>113.19999999999999</ele><time>2026-04-24T15:55:07Z</time></trkpt><trkpt lat="46.1361360881643" lon="12.913804328730516"><ele>113.8</ele><time>2026-04-24T15:55:09Z</time></trkpt><trkpt lat="46.13620037202575" lon="12.913824507300756"><ele>114.4</ele><time>2026-04-24T15:55:10Z</time></trkpt><trkpt lat="46.136312739200896" lon="12.91384584691415"><ele>115.0</ele><time>2026-04-24T15:55:12Z</time></trkpt><trkpt lat="46.136426771576566" lon="12.913897597565041"><ele>115.00000000000001</ele><time>2026-04-24T15:55:14Z</time></trkpt><trkpt lat="46.13649231786446" lon="12.913928222437393"><ele>115.0</ele><time>2026-04-24T15:55:15Z</time></trkpt><trkpt lat="46.13660691536327" lon="12.913979332343695"><ele>115.0</ele><time>2026-04-24T15:55:17Z</time></trkpt><trkpt lat="46.13667576448879" lon="12.914009489882774"><ele>115.0</ele><time>2026-04-24T15:55:18Z</time></trkpt><trkpt lat="46.13674352769598" lon="12.914043291023559"><ele>115.00000000000001</ele><time>2026-04-24T15:55:19Z</time></trkpt><trkpt lat="46.13681134580365" lon="12.914074832461395"><ele>115.0</ele><time>2026-04-24T15:55:20Z</time></trkpt><trkpt lat="46.13687355085282" lon="12.914095822781867"><ele>115.2</ele><time>2026-04-24T15:55:21Z</time></trkpt><trkpt lat="46.13693927468096" lon="12.91411926991001"><ele>115.4</ele><time>2026-04-24T15:55:22Z</time></trkpt><trkpt lat="46.13704046496718" lon="12.914154722820088"><ele>115.6</ele><time>2026-04-24T15:55:24Z</time></trkpt><trkpt lat="46.13713493990427" lon="12.914192895233258"><ele>115.8</ele><time>2026-04-24T15:55:26Z</time></trkpt><trkpt lat="46.13723161038707" lon="12.914239799223893"><ele>116.0</ele><time>2026-04-24T15:55:28Z</time></trkpt><trkpt lat="46.13734035427594" lon="12.914299848966971"><ele>115.19999999999999</ele><time>2026-04-24T15:55:30Z</time></trkpt><trkpt lat="46.13745787212808" lon="12.914347734945602"><ele>114.39999999999999</ele><time>2026-04-24T15:55:32Z</time></trkpt><trkpt lat="46.13752310148921" lon="12.914370718008044"><ele>113.6</ele><time>2026-04-24T15:55:33Z</time></trkpt><trkpt lat="46.137620732123125" lon="12.91440444046062"><ele>112.8</ele><time>2026-04-24T15:55:35Z</time></trkpt><trkpt lat="46.13772569903486" lon="12.914445876217247"><ele>112.0</ele><time>2026-04-24T15:55:37Z</time></trkpt><trkpt lat="46.137819798969595" lon="12.914472862433497"><ele>112.0</ele><time>2026-04-24T15:55:39Z</time></trkpt><trkpt lat="46.13792568291675" lon="12.914553209396479"><ele>111.99999999999999</ele><time>2026-04-24T15:55:41Z</time></trkpt><trkpt lat="46.13803890602066" lon="12.914572475407471"><ele>111.99999999999999</ele><time>2026-04-24T15:55:43Z</time></trkpt><trkpt lat="46.13810530666956" lon="12.914619195127353"><ele>112.0</ele><time>2026-04-24T15:55:44Z</time></trkpt><trkpt lat="46.13822475793226" lon="12.914686051246221"><ele>112.0</ele><time>2026-04-24T15:55:46Z</time></trkpt><trkpt lat="46.13829105370669" lon="12.91470629237697"><ele>112.19999999999999</ele><time>2026-04-24T15:55:47Z</time></trkpt><trkpt lat="46.138355705781535" lon="12.914716237398602"><ele>112.39999999999999</ele><time>2026-04-24T15:55:48Z</time></trkpt><trkpt lat="46.13848178998155" lon="12.91476117611849"><ele>112.60000000000001</ele><time>2026-04-24T15:55:50Z</time></trkpt><trkpt lat="46.13854649271298" lon="12.9147913053102"><ele>112.80000000000001</ele><time>2026-04-24T15:55:51Z</time></trkpt><trkpt lat="46.13864702184924" lon="12.914832567791148"><ele>113.0</ele><time>2026-04-24T15:55:53Z</time></trkpt><trkpt lat="46.13873691495513" lon="12.91487075266018"><ele>113.0</ele><time>2026-04-24T15:55:55Z</time></trkpt><trkpt lat="46.138806685108975" lon="12.91490494118658"><ele>113.00000000000001</ele><time>2026-04-24T15:55:56Z</time></trkpt><trkpt lat="46.138942444677916" lon="12.914962329976015"><ele>113.00000000000001</ele><time>2026-04-24T15:55:58Z</time></trkpt><trkpt lat="46.139005990277504" lon="12.914992676482976"><ele>113.0</ele><time>2026-04-24T15:55:59Z</time></trkpt><trkpt lat="46.13907004269007" lon="12.915023875960573"><ele>113.0</ele><time>2026-04-24T15:56:00Z</time></trkpt><trkpt lat="46.13919315674261" lon="12.915072121917405"><ele>112.75</ele><time>2026-04-24T15:56:02Z</time></trkpt><trkpt lat="46.139322005293025" lon="12.915132232489842"><ele>112.5</ele><time>2026-04-24T15:56:04Z</time></trkpt><trkpt lat="46.13943551675004" lon="12.915177392678489"><ele>112.25</ele><time>2026-04-24T15:56:06Z</time></trkpt><trkpt lat="46.13955062311658" lon="12.915238612571656"><ele>112.0</ele><time>2026-04-24T15:56:08Z</time></trkpt><trkpt lat="46.13964561358553" lon="12.91529728819536"><ele>112.0</ele><time>2026-04-24T15:56:10Z</time></trkpt><trkpt lat="46.13972925510392" lon="12.915332853337025"><ele>111.99999999999999</ele><time>2026-04-24T15:56:12Z</time></trkpt><trkpt lat="46.13981387482293" lon="12.915370050943078"><ele>111.99999999999999</ele><time>2026-04-24T15:56:14Z</time></trkpt><trkpt lat="46.13991638906773" lon="12.915423741982439"><ele>112.0</ele><time>2026-04-24T15:56:16Z</time></trkpt><trkpt lat="46.14005122339266" lon="12.915465552067355"><ele>112.0</ele><time>2026-04-24T15:56:18Z</time></trkpt><trkpt lat="46.14012441764079" lon="12.91548928375382"><ele>112.33333333333334</ele><time>2026-04-24T15:56:19Z</time></trkpt><trkpt lat="46.140196035993455" lon="12.915518033203575"><ele>112.66666666666667</ele><time>2026-04-24T15:56:20Z</time></trkpt><trkpt lat="46.140255346197286" lon="12.915550820781707"><ele>113.0</ele><time>2026-04-24T15:56:21Z</time></trkpt><trkpt lat="46.14032217317523" lon="12.915579203542498"><ele>113.33333333333334</ele><time>2026-04-24T15:56:22Z</time></trkpt><trkpt lat="46.14044893431155" lon="12.915635754280357"><ele>113.66666666666667</ele><time>2026-04-24T15:56:24Z</time></trkpt><trkpt lat="46.14050902276937" lon="12.915679585377704"><ele>114.0</ele><time>2026-04-24T15:56:25Z</time></trkpt><trkpt lat="46.14058246226464" lon="12.915709053699834"><ele>114.0</ele><time>2026-04-24T15:56:26Z</time></trkpt><trkpt lat="46.14064912254443" lon="12.915739479527595"><ele>114.0</ele><time>2026-04-24T15:56:27Z</time></trkpt><trkpt lat="46.1407620005437" lon="12.915789053780685"><ele>114.0</ele><time>2026-04-24T15:56:29Z</time></trkpt><trkpt lat="46.14088302950514" lon="12.915835163405164"><ele>114.0</ele><time>2026-04-24T15:56:31Z</time></trkpt><trkpt lat="46.14094632134657" lon="12.915860012558054"><ele>114.0</ele><time>2026-04-24T15:56:32Z</time></trkpt><trkpt lat="46.141011505874545" lon="12.915888392910773"><ele>114.0</ele><time>2026-04-24T15:56:33Z</time></trkpt><trkpt lat="46.14112363843074" lon="12.915934520932932"><ele>114.0</ele><time>2026-04-24T15:56:35Z</time></trkpt><trkpt lat="46.1412339097139" lon="12.915977685682352"><ele>114.0</ele><time>2026-04-24T15:56:37Z</time></trkpt><trkpt lat="46.14130281393546" lon="12.916000748477531"><ele>114.0</ele><time>2026-04-24T15:56:38Z</time></trkpt><trkpt lat="46.141393057630246" lon="12.91604734270484"><ele>114.0</ele><time>2026-04-24T15:56:40Z</time></trkpt><trkpt lat="46.14148851411748" lon="12.916105906221828"><ele>114.0</ele><time>2026-04-24T15:56:43Z</time></trkpt><trkpt lat="46.14157180643238" lon="12.916001356645705"><ele>114.0</ele><time>2026-04-24T15:56:45Z</time></trkpt><trkpt lat="46.14158353508156" lon="12.915878446651769"><ele>114.0</ele><time>2026-04-24T15:56:48Z</time></trkpt><trkpt lat="46.141583501477974" lon="12.915757728969673"><ele>114.0</ele><time>2026-04-24T15:56:50Z</time></trkpt><trkpt lat="46.141572347135465" lon="12.915634666163049"><ele>114.0</ele><time>2026-04-24T15:56:52Z</time></trkpt><trkpt lat="46.14153436630791" lon="12.915505317967355"><ele>114.0</ele><time>2026-04-24T15:56:54Z</time></trkpt><trkpt lat="46.14148956887058" lon="12.91535986729506"><ele>114.0</ele><time>2026-04-24T15:56:56Z</time></trkpt><trkpt lat="46.14145809529207" lon="12.915200059030385"><ele>114.0</ele><time>2026-04-24T15:56:59Z</time></trkpt><trkpt lat="46.14143482753918" lon="12.915089493405732"><ele>114.0</ele><time>2026-04-24T15:57:01Z</time></trkpt><trkpt lat="46.14144726552292" lon="12.914978953885974"><ele>114.0</ele><time>2026-04-24T15:57:03Z</time></trkpt><trkpt lat="46.141510255386734" lon="12.914887471347507"><ele>114.0</ele><time>2026-04-24T15:57:05Z</time></trkpt><trkpt lat="46.14158748538088" lon="12.914872903389366"><ele>114.0</ele><time>2026-04-24T15:57:07Z</time></trkpt><trkpt lat="46.14167293301327" lon="12.914899152699702"><ele>114.83333333333333</ele><time>2026-04-24T15:57:09Z</time></trkpt><trkpt lat="46.14173823588695" lon="12.914919055553463"><ele>115.66666666666666</ele><time>2026-04-24T15:57:11Z</time></trkpt><trkpt lat="46.141822738704306" lon="12.914915874748472"><ele>116.5</ele><time>2026-04-24T15:57:13Z</time></trkpt><trkpt lat="46.14187511131035" lon="12.914831295111224"><ele>117.33333333333333</ele><time>2026-04-24T15:57:15Z</time></trkpt><trkpt lat="46.141876164846636" lon="12.914732875734677"><ele>118.16666666666666</ele><time>2026-04-24T15:57:17Z</time></trkpt><trkpt lat="46.141787623305085" lon="12.914691030840395"><ele>119.0</ele><time>2026-04-24T15:57:20Z</time></trkpt><trkpt lat="46.14172412101818" lon="12.914639599475267"><ele>118.99999999999999</ele><time>2026-04-24T15:57:23Z</time></trkpt><trkpt lat="46.141644513331485" lon="12.914562801388376"><ele>119.0</ele><time>2026-04-24T15:57:26Z</time></trkpt><trkpt lat="46.141569561087" lon="12.914510318370032"><ele>119.0</ele><time>2026-04-24T15:57:29Z</time></trkpt><trkpt lat="46.14150125791575" lon="12.914459925887645"><ele>119.0</ele><time>2026-04-24T15:57:32Z</time></trkpt><trkpt lat="46.141413549586225" lon="12.91439266238745"><ele>118.99999999999999</ele><time>2026-04-24T15:57:35Z</time></trkpt><trkpt lat="46.1413343212705" lon="12.914347261665515"><ele>119.0</ele><time>2026-04-24T15:57:38Z</time></trkpt><trkpt lat="46.14126750520827" lon="12.914300762097712"><ele>118.71428571428572</ele><time>2026-04-24T15:57:41Z</time></trkpt><trkpt lat="46.14118231100556" lon="12.914254991218643"><ele>118.42857142857143</ele><time>2026-04-24T15:57:44Z</time></trkpt><trkpt lat="46.14110753372376" lon="12.9142080050812"><ele>118.14285714285714</ele><time>2026-04-24T15:57:47Z</time></trkpt><trkpt lat="46.14104617664119" lon="12.914179514360228"><ele>117.85714285714286</ele><time>2026-04-24T15:57:50Z</time></trkpt><trkpt lat="46.14098252381024" lon="12.914133086619234"><ele>117.57142857142858</ele><time>2026-04-24T15:57:53Z</time></trkpt><trkpt lat="46.14092051587896" lon="12.914094150794607"><ele>117.28571428571429</ele><time>2026-04-24T15:57:56Z</time></trkpt><trkpt lat="46.14085345536956" lon="12.914068356437223"><ele>117.0</ele><time>2026-04-24T15:57:59Z</time></trkpt><trkpt lat="46.14079196447942" lon="12.914032211476053"><ele>119.0</ele><time>2026-04-24T15:58:02Z</time></trkpt><trkpt lat="46.14071706446889" lon="12.913982479001827"><ele>121.0</ele><time>2026-04-24T15:58:05Z</time></trkpt><trkpt lat="46.140655034939314" lon="12.913951726138261"><ele>123.0</ele><time>2026-04-24T15:58:08Z</time></trkpt><trkpt lat="46.14058005915301" lon="12.913949934844512"><ele>125.0</ele><time>2026-04-24T15:58:11Z</time></trkpt><trkpt lat="46.14050357995722" lon="12.913932745513025"><ele>127.0</ele><time>2026-04-24T15:58:14Z</time></trkpt><trkpt lat="46.14040673585796" lon="12.913940437619953"><ele>129.0</ele><time>2026-04-24T15:58:18Z</time></trkpt><trkpt lat="46.14032962323567" lon="12.913930446766178"><ele>129.14285714285714</ele><time>2026-04-24T15:58:21Z</time></trkpt><trkpt lat="46.140253524674456" lon="12.913932252080583"><ele>129.28571428571428</ele><time>2026-04-24T15:58:25Z</time></trkpt><trkpt lat="46.140179391121684" lon="12.913933791181876"><ele>129.42857142857144</ele><time>2026-04-24T15:58:28Z</time></trkpt><trkpt lat="46.14011124955068" lon="12.913909843065813"><ele>129.57142857142856</ele><time>2026-04-24T15:58:31Z</time></trkpt><trkpt lat="46.14003718170815" lon="12.913866684273145"><ele>129.71428571428572</ele><time>2026-04-24T15:58:35Z</time></trkpt><trkpt lat="46.13997615009781" lon="12.913813206136021"><ele>129.85714285714286</ele><time>2026-04-24T15:58:38Z</time></trkpt><trkpt lat="46.13990444688688" lon="12.913774282539041"><ele>130.0</ele><time>2026-04-24T15:58:41Z</time></trkpt><trkpt lat="46.139834117536616" lon="12.913746503116162"><ele>129.57142857142858</ele><time>2026-04-24T15:58:44Z</time></trkpt><trkpt lat="46.13977121964111" lon="12.91369913445156"><ele>129.14285714285714</ele><time>2026-04-24T15:58:47Z</time></trkpt><trkpt lat="46.13969906910221" lon="12.913671958169633"><ele>128.71428571428572</ele><time>2026-04-24T15:58:50Z</time></trkpt><trkpt lat="46.139624771354" lon="12.913649853145525"><ele>128.28571428571428</ele><time>2026-04-24T15:58:53Z</time></trkpt><trkpt lat="46.13955555592074" lon="12.913624939836536"><ele>127.85714285714286</ele><time>2026-04-24T15:58:56Z</time></trkpt><trkpt lat="46.13948457752832" lon="12.913604988183083"><ele>127.42857142857143</ele><time>2026-04-24T15:59:00Z</time></trkpt><trkpt lat="46.139421086078805" lon="12.913594181519866"><ele>127.0</ele><time>2026-04-24T15:59:03Z</time></trkpt><trkpt lat="46.13935097425609" lon="12.913582403451105"><ele>127.0</ele><time>2026-04-24T15:59:07Z</time></trkpt><trkpt lat="46.13929799738165" lon="12.913530913510861"><ele>127.0</ele><time>2026-04-24T15:59:11Z</time></trkpt><trkpt lat="46.13926183675146" lon="12.913433426468243"><ele>127.0</ele><time>2026-04-24T15:59:15Z</time></trkpt><trkpt lat="46.13927208958993" lon="12.913341629230178"><ele>127.0</ele><time>2026-04-24T15:59:19Z</time></trkpt><trkpt lat="46.13923883315403" lon="12.913231417334929"><ele>127.0</ele><time>2026-04-24T15:59:23Z</time></trkpt><trkpt lat="46.139181705363406" lon="12.913135545429807"><ele>127.0</ele><time>2026-04-24T15:59:25Z</time></trkpt><trkpt lat="46.139142938617184" lon="12.913049205462418"><ele>127.0</ele><time>2026-04-24T15:59:28Z</time></trkpt><trkpt lat="46.13909461119744" lon="12.912957288006323"><ele>129.42857142857144</ele><time>2026-04-24T15:59:32Z</time></trkpt><trkpt lat="46.13908640422442" lon="12.912861424146762"><ele>131.85714285714286</ele><time>2026-04-24T15:59:36Z</time></trkpt><trkpt lat="46.13911879520889" lon="12.912772681375758"><ele>134.28571428571428</ele><time>2026-04-24T15:59:39Z</time></trkpt><trkpt lat="46.139162520963076" lon="12.912702148635502"><ele>136.71428571428572</ele><time>2026-04-24T15:59:42Z</time></trkpt><trkpt lat="46.13923696466002" lon="12.912661477329936"><ele>139.14285714285714</ele><time>2026-04-24T15:59:45Z</time></trkpt><trkpt lat="46.13930190116517" lon="12.912646979947699"><ele>141.57142857142858</ele><time>2026-04-24T15:59:48Z</time></trkpt><trkpt lat="46.13937016844009" lon="12.912609303724778"><ele>144.0</ele><time>2026-04-24T15:59:51Z</time></trkpt><trkpt lat="46.139454902256006" lon="12.912584270132049"><ele>145.16666666666666</ele><time>2026-04-24T15:59:54Z</time></trkpt><trkpt lat="46.13952805115084" lon="12.912567421275831"><ele>146.33333333333334</ele><time>2026-04-24T15:59:57Z</time></trkpt><trkpt lat="46.13959895030121" lon="12.91253250899759"><ele>147.5</ele><time>2026-04-24T16:00:01Z</time></trkpt><trkpt lat="46.13966744830798" lon="12.912490951447836"><ele>148.66666666666669</ele><time>2026-04-24T16:00:04Z</time></trkpt><trkpt lat="46.139734160535845" lon="12.91246473149014"><ele>149.83333333333334</ele><time>2026-04-24T16:00:07Z</time></trkpt><trkpt lat="46.1397710455651" lon="12.912365722448447"><ele>151.0</ele><time>2026-04-24T16:00:10Z</time></trkpt><trkpt lat="46.139806192968116" lon="12.912260792947281"><ele>151.0</ele><time>2026-04-24T16:00:13Z</time></trkpt><trkpt lat="46.13986061974595" lon="12.91216056929784"><ele>151.0</ele><time>2026-04-24T16:00:16Z</time></trkpt><trkpt lat="46.1398777841187" lon="12.912041970206088"><ele>151.0</ele><time>2026-04-24T16:00:19Z</time></trkpt><trkpt lat="46.13991758057045" lon="12.911929295084489"><ele>151.0</ele><time>2026-04-24T16:00:22Z</time></trkpt><trkpt lat="46.139932622614495" lon="12.911828117522084"><ele>151.0</ele><time>2026-04-24T16:00:24Z</time></trkpt><trkpt lat="46.13998001231459" lon="12.911712622249794"><ele>151.0</ele><time>2026-04-24T16:00:27Z</time></trkpt><trkpt lat="46.1400175726868" lon="12.911585182098962"><ele>151.66666666666669</ele><time>2026-04-24T16:00:30Z</time></trkpt><trkpt lat="46.14003359776338" lon="12.911495270980673"><ele>152.33333333333334</ele><time>2026-04-24T16:00:32Z</time></trkpt><trkpt lat="46.14005899268393" lon="12.911375967428555"><ele>153.0</ele><time>2026-04-24T16:00:34Z</time></trkpt><trkpt lat="46.1400821715967" lon="12.911280613068488"><ele>153.66666666666666</ele><time>2026-04-24T16:00:36Z</time></trkpt><trkpt lat="46.140095589008425" lon="12.911156645412852"><ele>154.33333333333331</ele><time>2026-04-24T16:00:38Z</time></trkpt><trkpt lat="46.14011215091599" lon="12.911035381617788"><ele>155.0</ele><time>2026-04-24T16:00:40Z</time></trkpt><trkpt lat="46.14011364398861" lon="12.910908957926637"><ele>155.4</ele><time>2026-04-24T16:00:42Z</time></trkpt><trkpt lat="46.14012837697277" lon="12.910791399533068"><ele>155.8</ele><time>2026-04-24T16:00:44Z</time></trkpt><trkpt lat="46.14012902460878" lon="12.910661437156962"><ele>156.2</ele><time>2026-04-24T16:00:46Z</time></trkpt><trkpt lat="46.14014261805573" lon="12.910558866275574"><ele>156.6</ele><time>2026-04-24T16:00:48Z</time></trkpt><trkpt lat="46.14015015328754" lon="12.91040527741349"><ele>157.0</ele><time>2026-04-24T16:00:50Z</time></trkpt><trkpt lat="46.14015404285861" lon="12.910262569796979"><ele>157.0</ele><time>2026-04-24T16:00:52Z</time></trkpt><trkpt lat="46.14017403393206" lon="12.910137686025584"><ele>157.0</ele><time>2026-04-24T16:00:54Z</time></trkpt><trkpt lat="46.14019574376444" lon="12.909988103144503"><ele>157.0</ele><time>2026-04-24T16:00:56Z</time></trkpt><trkpt lat="46.1402148061935" lon="12.909861539904302"><ele>157.0</ele><time>2026-04-24T16:00:58Z</time></trkpt><trkpt lat="46.14022925255624" lon="12.909755717407794"><ele>157.0</ele><time>2026-04-24T16:01:00Z</time></trkpt><trkpt lat="46.14026786631382" lon="12.909683383626655"><ele>157.0</ele><time>2026-04-24T16:01:02Z</time></trkpt><trkpt lat="46.140295896791386" lon="12.909563497950957"><ele>156.79999999999998</ele><time>2026-04-24T16:01:04Z</time></trkpt><trkpt lat="46.14032748040617" lon="12.909453770655585"><ele>156.6</ele><time>2026-04-24T16:01:06Z</time></trkpt><trkpt lat="46.140353754378104" lon="12.909296346010349"><ele>156.39999999999998</ele><time>2026-04-24T16:01:09Z</time></trkpt><trkpt lat="46.140390142181765" lon="12.909144638938047"><ele>156.2</ele><time>2026-04-24T16:01:11Z</time></trkpt><trkpt lat="46.14041661055949" lon="12.908991476417581"><ele>156.0</ele><time>2026-04-24T16:01:13Z</time></trkpt><trkpt lat="46.1404604500599" lon="12.908878761937713"><ele>156.0</ele><time>2026-04-24T16:01:15Z</time></trkpt><trkpt lat="46.14045146601988" lon="12.908754789177062"><ele>156.0</ele><time>2026-04-24T16:01:17Z</time></trkpt><trkpt lat="46.14045390274886" lon="12.908599710477331"><ele>156.0</ele><time>2026-04-24T16:01:19Z</time></trkpt><trkpt lat="46.14045986346022" lon="12.908490957376213"><ele>156.0</ele><time>2026-04-24T16:01:20Z</time></trkpt><trkpt lat="46.140475581699896" lon="12.908369990741742"><ele>156.0</ele><time>2026-04-24T16:01:21Z</time></trkpt><trkpt lat="46.14047465878943" lon="12.90825071751191"><ele>156.0</ele><time>2026-04-24T16:01:22Z</time></trkpt><trkpt lat="46.140479473597" lon="12.90814810107833"><ele>155.83333333333334</ele><time>2026-04-24T16:01:23Z</time></trkpt><trkpt lat="46.14047551051331" lon="12.908052446885717"><ele>155.66666666666666</ele><time>2026-04-24T16:01:24Z</time></trkpt><trkpt lat="46.14047814792878" lon="12.907865243812614"><ele>155.5</ele><time>2026-04-24T16:01:26Z</time></trkpt><trkpt lat="46.140480703607025" lon="12.90775806202205"><ele>155.33333333333331</ele><time>2026-04-24T16:01:27Z</time></trkpt><trkpt lat="46.14048426579673" lon="12.907658767135327"><ele>155.16666666666666</ele><time>2026-04-24T16:01:28Z</time></trkpt><trkpt lat="46.140494433088755" lon="12.90756185121189"><ele>155.0</ele><time>2026-04-24T16:01:29Z</time></trkpt><trkpt lat="46.14051008370994" lon="12.907451322459199"><ele>154.83333333333331</ele><time>2026-04-24T16:01:30Z</time></trkpt><trkpt lat="46.14052515313567" lon="12.907340541225922"><ele>154.66666666666666</ele><time>2026-04-24T16:01:31Z</time></trkpt><trkpt lat="46.14054068481005" lon="12.907241064637942"><ele>154.5</ele><time>2026-04-24T16:01:32Z</time></trkpt><trkpt lat="46.140571147498214" lon="12.907096486205804"><ele>154.33333333333334</ele><time>2026-04-24T16:01:34Z</time></trkpt><trkpt lat="46.14064322265865" lon="12.907027694810036"><ele>154.16666666666669</ele><time>2026-04-24T16:01:35Z</time></trkpt><trkpt lat="46.14069279866765" lon="12.906945075885963"><ele>154.0</ele><time>2026-04-24T16:01:36Z</time></trkpt><trkpt lat="46.140752405766264" lon="12.906901915838098"><ele>154.0</ele><time>2026-04-24T16:01:37Z</time></trkpt><trkpt lat="46.14086089939718" lon="12.906846547848728"><ele>154.0</ele><time>2026-04-24T16:01:39Z</time></trkpt><trkpt lat="46.140970165589856" lon="12.906744509264113"><ele>154.0</ele><time>2026-04-24T16:01:41Z</time></trkpt><trkpt lat="46.141047601393666" lon="12.906657043787861"><ele>154.0</ele><time>2026-04-24T16:01:43Z</time></trkpt><trkpt lat="46.14109621315671" lon="12.906595943512748"><ele>154.0</ele><time>2026-04-24T16:01:44Z</time></trkpt><trkpt lat="46.14113858261662" lon="12.906509432617675"><ele>153.66666666666669</ele><time>2026-04-24T16:01:45Z</time></trkpt><trkpt lat="46.14116887487598" lon="12.906421330899544"><ele>153.33333333333334</ele><time>2026-04-24T16:01:46Z</time></trkpt><trkpt lat="46.14120239905417" lon="12.906341788431764"><ele>153.0</ele><time>2026-04-24T16:01:47Z</time></trkpt><trkpt lat="46.14120426453648" lon="12.906205242501395"><ele>152.66666666666666</ele><time>2026-04-24T16:01:49Z</time></trkpt><trkpt lat="46.14114784437454" lon="12.90604692039998"><ele>152.33333333333331</ele><time>2026-04-24T16:01:51Z</time></trkpt><trkpt lat="46.1410975646984" lon="12.90597399742084"><ele>152.0</ele><time>2026-04-24T16:01:52Z</time></trkpt><trkpt lat="46.14105148487688" lon="12.905900651427004"><ele>152.0</ele><time>2026-04-24T16:01:53Z</time></trkpt><trkpt lat="46.14100721896158" lon="12.905824910849732"><ele>152.0</ele><time>2026-04-24T16:01:54Z</time></trkpt><trkpt lat="46.14092916403868" lon="12.905689141369761"><ele>152.0</ele><time>2026-04-24T16:01:56Z</time></trkpt><trkpt lat="46.14085871937583" lon="12.90555224143147"><ele>152.0</ele><time>2026-04-24T16:01:58Z</time></trkpt><trkpt lat="46.140838276883045" lon="12.905366930882332"><ele>152.0</ele><time>2026-04-24T16:02:00Z</time></trkpt><trkpt lat="46.14084021820217" lon="12.905263039602074"><ele>152.0</ele><time>2026-04-24T16:02:01Z</time></trkpt><trkpt lat="46.140847208397034" lon="12.905162799273704"><ele>152.0</ele><time>2026-04-24T16:02:02Z</time></trkpt><trkpt lat="46.14086919386047" lon="12.905075502138201"><ele>152.0</ele><time>2026-04-24T16:02:03Z</time></trkpt><trkpt lat="46.14092506929591" lon="12.904959124481195"><ele>152.0</ele><time>2026-04-24T16:02:05Z</time></trkpt><trkpt lat="46.14094687586763" lon="12.904860702713822"><ele>152.0</ele><time>2026-04-24T16:02:06Z</time></trkpt><trkpt lat="46.140959524398326" lon="12.904768682931014"><ele>152.0</ele><time>2026-04-24T16:02:07Z</time></trkpt><trkpt lat="46.14098985194642" lon="12.904614186715177"><ele>152.0</ele><time>2026-04-24T16:02:09Z</time></trkpt><trkpt lat="46.14102003363056" lon="12.904462270612697"><ele>152.0</ele><time>2026-04-24T16:02:11Z</time></trkpt><trkpt lat="46.141097715920225" lon="12.904385613950483"><ele>152.0</ele><time>2026-04-24T16:02:13Z</time></trkpt><trkpt lat="46.14120524203313" lon="12.904457671868162"><ele>152.0</ele><time>2026-04-24T16:02:15Z</time></trkpt><trkpt lat="46.14131774782187" lon="12.904482714928802"><ele>152.0</ele><time>2026-04-24T16:02:17Z</time></trkpt><trkpt lat="46.141414513018425" lon="12.904508152630397"><ele>152.0</ele><time>2026-04-24T16:02:19Z</time></trkpt><trkpt lat="46.141534789406755" lon="12.904545108545136"><ele>152.0</ele><time>2026-04-24T16:02:21Z</time></trkpt><trkpt lat="46.14162948041771" lon="12.904574402495056"><ele>152.0</ele><time>2026-04-24T16:02:23Z</time></trkpt><trkpt lat="46.141735972307195" lon="12.904613539191935"><ele>152.0</ele><time>2026-04-24T16:02:25.001Z</time></trkpt><trkpt lat="46.14184736036928" lon="12.904638777748833"><ele>152.0</ele><time>2026-04-24T16:02:27.001Z</time></trkpt><trkpt lat="46.14191099871485" lon="12.90466479136347"><ele>152.0</ele><time>2026-04-24T16:02:28.001Z</time></trkpt><trkpt lat="46.142025945076746" lon="12.904707415532133"><ele>152.0</ele><time>2026-04-24T16:02:30Z</time></trkpt><trkpt lat="46.14214187036379" lon="12.904756999189194"><ele>152.0</ele><time>2026-04-24T16:02:32Z</time></trkpt><trkpt lat="46.14226130723814" lon="12.904803037725074"><ele>152.0</ele><time>2026-04-24T16:02:34Z</time></trkpt><trkpt lat="46.14238148852332" lon="12.904838662705707"><ele>152.0</ele><time>2026-04-24T16:02:36Z</time></trkpt><trkpt lat="46.14249416550105" lon="12.904876997007072"><ele>152.0</ele><time>2026-04-24T16:02:38Z</time></trkpt><trkpt lat="46.14261078413552" lon="12.904916556503892"><ele>152.0</ele><time>2026-04-24T16:02:40Z</time></trkpt><trkpt lat="46.14267673529759" lon="12.90493436115269"><ele>152.0</ele><time>2026-04-24T16:02:41Z</time></trkpt><trkpt lat="46.142749615569485" lon="12.90495980900028"><ele>152.0</ele><time>2026-04-24T16:02:42Z</time></trkpt><trkpt lat="46.142818875006675" lon="12.90498366465159"><ele>152.0</ele><time>2026-04-24T16:02:43Z</time></trkpt><trkpt lat="46.14288837081884" lon="12.90500120410819"><ele>152.0</ele><time>2026-04-24T16:02:44Z</time></trkpt><trkpt lat="46.14296007607701" lon="12.905025829524499"><ele>152.0</ele><time>2026-04-24T16:02:45Z</time></trkpt><trkpt lat="46.14302328060135" lon="12.905048063279429"><ele>152.0</ele><time>2026-04-24T16:02:46Z</time></trkpt><trkpt lat="46.14314932349901" lon="12.905094360788103"><ele>152.0</ele><time>2026-04-24T16:02:48Z</time></trkpt><trkpt lat="46.14325922046451" lon="12.905144250935772"><ele>152.0</ele><time>2026-04-24T16:02:50Z</time></trkpt><trkpt lat="46.143337255650586" lon="12.905174267155868"><ele>152.42857142857142</ele><time>2026-04-24T16:02:51Z</time></trkpt><trkpt lat="46.14340461655701" lon="12.905190561655049"><ele>152.85714285714286</ele><time>2026-04-24T16:02:52Z</time></trkpt><trkpt lat="46.14347071676597" lon="12.90520323789704"><ele>153.28571428571428</ele><time>2026-04-24T16:02:53Z</time></trkpt><trkpt lat="46.143533967402355" lon="12.905227822998707"><ele>153.71428571428572</ele><time>2026-04-24T16:02:54Z</time></trkpt><trkpt lat="46.143598236650725" lon="12.905247310844778"><ele>154.14285714285714</ele><time>2026-04-24T16:02:55Z</time></trkpt><trkpt lat="46.14366517090416" lon="12.905265062664244"><ele>154.57142857142858</ele><time>2026-04-24T16:02:56Z</time></trkpt><trkpt lat="46.14375439092227" lon="12.905302442814184"><ele>155.0</ele><time>2026-04-24T16:02:57Z</time></trkpt><trkpt lat="46.14382407429823" lon="12.905329600373186"><ele>155.0</ele><time>2026-04-24T16:02:58Z</time></trkpt><trkpt lat="46.14395970690284" lon="12.905377282161416"><ele>155.0</ele><time>2026-04-24T16:03:00Z</time></trkpt><trkpt lat="46.144023590490946" lon="12.905399858608758"><ele>155.0</ele><time>2026-04-24T16:03:01Z</time></trkpt><trkpt lat="46.14413078303506" lon="12.905442117820611"><ele>155.0</ele><time>2026-04-24T16:03:03Z</time></trkpt><trkpt lat="46.144252405796706" lon="12.905482574336437"><ele>155.0</ele><time>2026-04-24T16:03:05Z</time></trkpt><trkpt lat="46.14431826777336" lon="12.90550793193426"><ele>155.0</ele><time>2026-04-24T16:03:06Z</time></trkpt><trkpt lat="46.14438667739817" lon="12.905529218777671"><ele>155.0</ele><time>2026-04-24T16:03:07Z</time></trkpt><trkpt lat="46.144457524128875" lon="12.905554026450062"><ele>155.0</ele><time>2026-04-24T16:03:08Z</time></trkpt><trkpt lat="46.1445300097317" lon="12.90558264549396"><ele>155.0</ele><time>2026-04-24T16:03:09Z</time></trkpt><trkpt lat="46.14460036876512" lon="12.90560759369774"><ele>155.0</ele><time>2026-04-24T16:03:10Z</time></trkpt><trkpt lat="46.14467408802098" lon="12.9056389739791"><ele>155.0</ele><time>2026-04-24T16:03:11Z</time></trkpt><trkpt lat="46.14474958013773" lon="12.905670012034614"><ele>155.0</ele><time>2026-04-24T16:03:12Z</time></trkpt><trkpt lat="46.14481458133566" lon="12.905686460435971"><ele>154.66666666666666</ele><time>2026-04-24T16:03:13Z</time></trkpt><trkpt lat="46.14488462599634" lon="12.905712104694574"><ele>154.33333333333331</ele><time>2026-04-24T16:03:14Z</time></trkpt><trkpt lat="46.14494961511877" lon="12.905735396392274"><ele>154.0</ele><time>2026-04-24T16:03:15Z</time></trkpt><trkpt lat="46.145072469119945" lon="12.905783084467853"><ele>153.66666666666666</ele><time>2026-04-24T16:03:17Z</time></trkpt><trkpt lat="46.14514637895313" lon="12.905805452076711"><ele>153.33333333333334</ele><time>2026-04-24T16:03:18Z</time></trkpt><trkpt lat="46.14520882646024" lon="12.905832199280296"><ele>153.0</ele><time>2026-04-24T16:03:19Z</time></trkpt><trkpt lat="46.14533842396776" lon="12.905881713686089"><ele>153.0</ele><time>2026-04-24T16:03:21Z</time></trkpt><trkpt lat="46.14541002102614" lon="12.905904857437145"><ele>153.0</ele><time>2026-04-24T16:03:22Z</time></trkpt><trkpt lat="46.1455360874833" lon="12.905952895089795"><ele>153.0</ele><time>2026-04-24T16:03:24Z</time></trkpt><trkpt lat="46.14560504613671" lon="12.90597612969098"><ele>153.0</ele><time>2026-04-24T16:03:25Z</time></trkpt><trkpt lat="46.14572547005638" lon="12.906023696697869"><ele>153.0</ele><time>2026-04-24T16:03:27Z</time></trkpt><trkpt lat="46.14580347350849" lon="12.906042683657724"><ele>153.6</ele><time>2026-04-24T16:03:28Z</time></trkpt><trkpt lat="46.14587521857291" lon="12.906058782080677"><ele>154.20000000000002</ele><time>2026-04-24T16:03:29Z</time></trkpt><trkpt lat="46.14598491081785" lon="12.906096812829547"><ele>154.8</ele><time>2026-04-24T16:03:31Z</time></trkpt><trkpt lat="46.14609401972474" lon="12.906149165092165"><ele>155.4</ele><time>2026-04-24T16:03:33Z</time></trkpt><trkpt lat="46.146161624036154" lon="12.90617280749412"><ele>156.0</ele><time>2026-04-24T16:03:34Z</time></trkpt><trkpt lat="46.146274640485146" lon="12.906211385926635"><ele>156.0</ele><time>2026-04-24T16:03:36Z</time></trkpt><trkpt lat="46.14639410136647" lon="12.906253220929402"><ele>156.0</ele><time>2026-04-24T16:03:38Z</time></trkpt><trkpt lat="46.14650266787881" lon="12.906293831286716"><ele>156.0</ele><time>2026-04-24T16:03:40Z</time></trkpt><trkpt lat="46.1466098479965" lon="12.90633597786519"><ele>156.0</ele><time>2026-04-24T16:03:42Z</time></trkpt><trkpt lat="46.14667862538292" lon="12.906358887336186"><ele>156.0</ele><time>2026-04-24T16:03:43Z</time></trkpt><trkpt lat="46.14679372969605" lon="12.906419735558075"><ele>156.25</ele><time>2026-04-24T16:03:45Z</time></trkpt><trkpt lat="46.146907555229575" lon="12.906454056283964"><ele>156.5</ele><time>2026-04-24T16:03:47Z</time></trkpt><trkpt lat="46.147020218567896" lon="12.906487697650405"><ele>156.75</ele><time>2026-04-24T16:03:49Z</time></trkpt><trkpt lat="46.14713011199204" lon="12.906527729100086"><ele>157.0</ele><time>2026-04-24T16:03:51Z</time></trkpt><trkpt lat="46.14723253614219" lon="12.906572465268813"><ele>157.0</ele><time>2026-04-24T16:03:53Z</time></trkpt><trkpt lat="46.14729673823134" lon="12.906600910129272"><ele>157.0</ele><time>2026-04-24T16:03:54Z</time></trkpt><trkpt lat="46.14741122281808" lon="12.906634726677854"><ele>157.0</ele><time>2026-04-24T16:03:56Z</time></trkpt><trkpt lat="46.14751804525575" lon="12.906678098550099"><ele>157.0</ele><time>2026-04-24T16:03:58Z</time></trkpt><trkpt lat="46.1475815712004" lon="12.90669310609075"><ele>157.0</ele><time>2026-04-24T16:03:59Z</time></trkpt><trkpt lat="46.14764521951679" lon="12.906712086830682"><ele>157.0</ele><time>2026-04-24T16:04:00Z</time></trkpt><trkpt lat="46.147710385502364" lon="12.906732951070456"><ele>156.79999999999998</ele><time>2026-04-24T16:04:01Z</time></trkpt><trkpt lat="46.147822784875984" lon="12.906773708674852"><ele>156.6</ele><time>2026-04-24T16:04:03Z</time></trkpt><trkpt lat="46.147936405940044" lon="12.906806438421773"><ele>156.39999999999998</ele><time>2026-04-24T16:04:05Z</time></trkpt><trkpt lat="46.14805708262866" lon="12.906851306971472"><ele>156.2</ele><time>2026-04-24T16:04:07Z</time></trkpt><trkpt lat="46.1481481363046" lon="12.906875298591013"><ele>156.0</ele><time>2026-04-24T16:04:09Z</time></trkpt><trkpt lat="46.14824765995834" lon="12.906921155220127"><ele>156.0</ele><time>2026-04-24T16:04:11Z</time></trkpt><trkpt lat="46.148356168199996" lon="12.906966810953103"><ele>156.0</ele><time>2026-04-24T16:04:13Z</time></trkpt><trkpt lat="46.148467346152906" lon="12.907018118335962"><ele>156.0</ele><time>2026-04-24T16:04:15Z</time></trkpt><trkpt lat="46.14856972322837" lon="12.907061579742939"><ele>156.0</ele><time>2026-04-24T16:04:17Z</time></trkpt><trkpt lat="46.14869690254174" lon="12.907114153412309"><ele>156.0</ele><time>2026-04-24T16:04:19Z</time></trkpt><trkpt lat="46.1488126225324" lon="12.907157976056578"><ele>156.0</ele><time>2026-04-24T16:04:21Z</time></trkpt><trkpt lat="46.14889547343579" lon="12.907181449648787"><ele>156.0</ele><time>2026-04-24T16:04:23Z</time></trkpt><trkpt lat="46.148956954411474" lon="12.907213907871672"><ele>156.0</ele><time>2026-04-24T16:04:25Z</time></trkpt><trkpt lat="46.149034051618266" lon="12.907196789125585"><ele>156.0</ele><time>2026-04-24T16:04:28Z</time></trkpt><trkpt lat="46.14913896210624" lon="12.907134101516828"><ele>156.14285714285714</ele><time>2026-04-24T16:04:30Z</time></trkpt><trkpt lat="46.14920133861703" lon="12.907104695697237"><ele>156.28571428571428</ele><time>2026-04-24T16:04:31Z</time></trkpt><trkpt lat="46.149268851477665" lon="12.907077237749137"><ele>156.42857142857142</ele><time>2026-04-24T16:04:32Z</time></trkpt><trkpt lat="46.149331724565485" lon="12.907050585048816"><ele>156.57142857142856</ele><time>2026-04-24T16:04:33Z</time></trkpt><trkpt lat="46.14940047962655" lon="12.90702199407502"><ele>156.71428571428572</ele><time>2026-04-24T16:04:34Z</time></trkpt><trkpt lat="46.14946761588575" lon="12.907006065989213"><ele>156.85714285714283</ele><time>2026-04-24T16:04:35Z</time></trkpt><trkpt lat="46.14954079538496" lon="12.906986872532174"><ele>157.0</ele><time>2026-04-24T16:04:36Z</time></trkpt><trkpt lat="46.149608419191786" lon="12.906958784613604"><ele>157.0</ele><time>2026-04-24T16:04:37Z</time></trkpt><trkpt lat="46.14972266442849" lon="12.906902032296559"><ele>157.0</ele><time>2026-04-24T16:04:39Z</time></trkpt><trkpt lat="46.14984166275919" lon="12.906844785898647"><ele>157.0</ele><time>2026-04-24T16:04:41Z</time></trkpt><trkpt lat="46.14991016496441" lon="12.90682387726717"><ele>157.0</ele><time>2026-04-24T16:04:42Z</time></trkpt><trkpt lat="46.149982240068205" lon="12.906790504299718"><ele>157.0</ele><time>2026-04-24T16:04:43Z</time></trkpt><trkpt lat="46.15004679846203" lon="12.906764849110738"><ele>157.16666666666669</ele><time>2026-04-24T16:04:44Z</time></trkpt><trkpt lat="46.15010815022096" lon="12.90673632228258"><ele>157.33333333333334</ele><time>2026-04-24T16:04:45Z</time></trkpt><trkpt lat="46.15017692456995" lon="12.906715563523438"><ele>157.5</ele><time>2026-04-24T16:04:46Z</time></trkpt><trkpt lat="46.150294236811774" lon="12.906661543839332"><ele>157.66666666666666</ele><time>2026-04-24T16:04:48Z</time></trkpt><trkpt lat="46.15036331350917" lon="12.906633366552933"><ele>157.83333333333331</ele><time>2026-04-24T16:04:49Z</time></trkpt><trkpt lat="46.150429468852344" lon="12.906604521208626"><ele>158.0</ele><time>2026-04-24T16:04:50Z</time></trkpt><trkpt lat="46.15050726944634" lon="12.906589569296452"><ele>158.0</ele><time>2026-04-24T16:04:51Z</time></trkpt><trkpt lat="46.150569023261994" lon="12.906564586930319"><ele>158.0</ele><time>2026-04-24T16:04:52Z</time></trkpt><trkpt lat="46.15063498116302" lon="12.906535720748828"><ele>158.0</ele><time>2026-04-24T16:04:53Z</time></trkpt><trkpt lat="46.15070072818729" lon="12.906509420190696"><ele>158.0</ele><time>2026-04-24T16:04:54Z</time></trkpt><trkpt lat="46.15076803583504" lon="12.90649586322081"><ele>158.0</ele><time>2026-04-24T16:04:55Z</time></trkpt><trkpt lat="46.15083417486255" lon="12.906480081276866"><ele>158.0</ele><time>2026-04-24T16:04:56Z</time></trkpt><trkpt lat="46.15095839216918" lon="12.90644587406764"><ele>158.0</ele><time>2026-04-24T16:04:58Z</time></trkpt><trkpt lat="46.15108020430828" lon="12.906402458416292"><ele>158.0</ele><time>2026-04-24T16:05:00Z</time></trkpt><trkpt lat="46.15119460904206" lon="12.906340331637125"><ele>158.0</ele><time>2026-04-24T16:05:02Z</time></trkpt><trkpt lat="46.1512658284333" lon="12.906311797398198"><ele>158.0</ele><time>2026-04-24T16:05:03Z</time></trkpt><trkpt lat="46.15132606323054" lon="12.90628177954109"><ele>158.0</ele><time>2026-04-24T16:05:04Z</time></trkpt><trkpt lat="46.15138829183246" lon="12.90625910284413"><ele>158.0</ele><time>2026-04-24T16:05:05Z</time></trkpt><trkpt lat="46.15144815684018" lon="12.906228136962794"><ele>158.0</ele><time>2026-04-24T16:05:06Z</time></trkpt><trkpt lat="46.151564064614945" lon="12.906186859818007"><ele>158.0</ele><time>2026-04-24T16:05:08Z</time></trkpt><trkpt lat="46.15162892141453" lon="12.90616738452105"><ele>158.0</ele><time>2026-04-24T16:05:09Z</time></trkpt><trkpt lat="46.15173575817978" lon="12.906123807701153"><ele>158.0</ele><time>2026-04-24T16:05:11Z</time></trkpt><trkpt lat="46.15184437782981" lon="12.906074790470182"><ele>158.0</ele><time>2026-04-24T16:05:13Z</time></trkpt><trkpt lat="46.151974642033366" lon="12.906029274785574"><ele>158.0</ele><time>2026-04-24T16:05:15Z</time></trkpt><trkpt lat="46.15209214992519" lon="12.905986713670357"><ele>158.0</ele><time>2026-04-24T16:05:17Z</time></trkpt><trkpt lat="46.15216102646725" lon="12.905966144365383"><ele>158.0</ele><time>2026-04-24T16:05:18Z</time></trkpt><trkpt lat="46.15228160642555" lon="12.905911594563383"><ele>158.0</ele><time>2026-04-24T16:05:20Z</time></trkpt><trkpt lat="46.15240578201132" lon="12.905873457170852"><ele>158.0</ele><time>2026-04-24T16:05:22Z</time></trkpt><trkpt lat="46.15246974600095" lon="12.905841735774777"><ele>158.16666666666666</ele><time>2026-04-24T16:05:23Z</time></trkpt><trkpt lat="46.15253751947423" lon="12.905812803601924"><ele>158.33333333333331</ele><time>2026-04-24T16:05:24Z</time></trkpt><trkpt lat="46.15260097256365" lon="12.905774621555832"><ele>158.5</ele><time>2026-04-24T16:05:25Z</time></trkpt><trkpt lat="46.152663680241545" lon="12.905740289215442"><ele>158.66666666666666</ele><time>2026-04-24T16:05:26Z</time></trkpt><trkpt lat="46.152724732663245" lon="12.905715189735398"><ele>158.83333333333334</ele><time>2026-04-24T16:05:27Z</time></trkpt><trkpt lat="46.15284720523049" lon="12.905660624717706"><ele>159.0</ele><time>2026-04-24T16:05:29Z</time></trkpt><trkpt lat="46.15296313282253" lon="12.90558976068092"><ele>159.0</ele><time>2026-04-24T16:05:31Z</time></trkpt><trkpt lat="46.15308312023454" lon="12.905547080063611"><ele>159.0</ele><time>2026-04-24T16:05:33Z</time></trkpt><trkpt lat="46.15319998214922" lon="12.905479729715049"><ele>159.0</ele><time>2026-04-24T16:05:35Z</time></trkpt><trkpt lat="46.15331108364415" lon="12.905427243796401"><ele>159.0</ele><time>2026-04-24T16:05:37Z</time></trkpt><trkpt lat="46.15342930438593" lon="12.90536777463778"><ele>159.0</ele><time>2026-04-24T16:05:39Z</time></trkpt><trkpt lat="46.15354759141536" lon="12.90532168193514"><ele>159.0</ele><time>2026-04-24T16:05:41Z</time></trkpt><trkpt lat="46.15366261006959" lon="12.905258783402935"><ele>159.0</ele><time>2026-04-24T16:05:43Z</time></trkpt><trkpt lat="46.15372728046754" lon="12.905232746046416"><ele>159.0</ele><time>2026-04-24T16:05:44Z</time></trkpt><trkpt lat="46.1537876076937" lon="12.905205697366785"><ele>159.0</ele><time>2026-04-24T16:05:45Z</time></trkpt><trkpt lat="46.1538473286767" lon="12.905175730604384"><ele>159.0</ele><time>2026-04-24T16:05:46Z</time></trkpt><trkpt lat="46.15397077558737" lon="12.90511779622227"><ele>159.5</ele><time>2026-04-24T16:05:48Z</time></trkpt><trkpt lat="46.154087374551" lon="12.905061017082138"><ele>160.0</ele><time>2026-04-24T16:05:50Z</time></trkpt><trkpt lat="46.154150846518924" lon="12.905026829241741"><ele>160.5</ele><time>2026-04-24T16:05:51Z</time></trkpt><trkpt lat="46.15420990401859" lon="12.90499308956686"><ele>161.0</ele><time>2026-04-24T16:05:52Z</time></trkpt><trkpt lat="46.15427387452158" lon="12.90496650800421"><ele>161.5</ele><time>2026-04-24T16:05:53Z</time></trkpt><trkpt lat="46.154390453143144" lon="12.904902736573053"><ele>162.0</ele><time>2026-04-24T16:05:55Z</time></trkpt><trkpt lat="46.15446404357643" lon="12.904870315582418"><ele>162.0</ele><time>2026-04-24T16:05:56Z</time></trkpt><trkpt lat="46.1545322052136" lon="12.904839374404"><ele>162.0</ele><time>2026-04-24T16:05:57Z</time></trkpt><trkpt lat="46.15459913457025" lon="12.904797444527114"><ele>162.0</ele><time>2026-04-24T16:05:58Z</time></trkpt><trkpt lat="46.15466574191725" lon="12.904763605364888"><ele>162.0</ele><time>2026-04-24T16:05:59Z</time></trkpt><trkpt lat="46.154736882395554" lon="12.90473399062122"><ele>162.0</ele><time>2026-04-24T16:06:00Z</time></trkpt><trkpt lat="46.15479940426857" lon="12.904702585163347"><ele>162.0</ele><time>2026-04-24T16:06:01Z</time></trkpt><trkpt lat="46.154859320993666" lon="12.904670690397054"><ele>162.0</ele><time>2026-04-24T16:06:02Z</time></trkpt><trkpt lat="46.15492161829521" lon="12.904646995714655"><ele>162.28571428571428</ele><time>2026-04-24T16:06:03Z</time></trkpt><trkpt lat="46.15498641036977" lon="12.904623354167708"><ele>162.57142857142856</ele><time>2026-04-24T16:06:04Z</time></trkpt><trkpt lat="46.15505169405923" lon="12.904582360286948"><ele>162.85714285714283</ele><time>2026-04-24T16:06:05Z</time></trkpt><trkpt lat="46.15512227238709" lon="12.904546359753082"><ele>163.14285714285714</ele><time>2026-04-24T16:06:06Z</time></trkpt><trkpt lat="46.15519115085102" lon="12.904511365907991"><ele>163.42857142857142</ele><time>2026-04-24T16:06:07Z</time></trkpt><trkpt lat="46.15525281169174" lon="12.90448322175698"><ele>163.7142857142857</ele><time>2026-04-24T16:06:08Z</time></trkpt><trkpt lat="46.15531809973082" lon="12.904456406896294"><ele>164.0</ele><time>2026-04-24T16:06:09Z</time></trkpt><trkpt lat="46.15538456145101" lon="12.904417036609987"><ele>164.0</ele><time>2026-04-24T16:06:10Z</time></trkpt><trkpt lat="46.155455558776296" lon="12.90438943200727"><ele>164.0</ele><time>2026-04-24T16:06:11Z</time></trkpt><trkpt lat="46.15551973433197" lon="12.904359918396906"><ele>164.0</ele><time>2026-04-24T16:06:12Z</time></trkpt><trkpt lat="46.15557933625842" lon="12.90432322015535"><ele>164.0</ele><time>2026-04-24T16:06:13Z</time></trkpt><trkpt lat="46.15564081137186" lon="12.904285785218889"><ele>164.0</ele><time>2026-04-24T16:06:14Z</time></trkpt><trkpt lat="46.155706913097" lon="12.90425320237109"><ele>164.0</ele><time>2026-04-24T16:06:15Z</time></trkpt><trkpt lat="46.15584089689958" lon="12.904194682199579"><ele>164.0</ele><time>2026-04-24T16:06:17Z</time></trkpt><trkpt lat="46.15590676568405" lon="12.904160848297003"><ele>164.0</ele><time>2026-04-24T16:06:18Z</time></trkpt><trkpt lat="46.15596861298968" lon="12.90413086992625"><ele>164.0</ele><time>2026-04-24T16:06:19Z</time></trkpt><trkpt lat="46.1560950276134" lon="12.90407703547929"><ele>164.0</ele><time>2026-04-24T16:06:21Z</time></trkpt><trkpt lat="46.15621410966718" lon="12.904018609865677"><ele>164.0</ele><time>2026-04-24T16:06:23Z</time></trkpt><trkpt lat="46.15627688504207" lon="12.903987851450621"><ele>163.99999999999997</ele><time>2026-04-24T16:06:24Z</time></trkpt><trkpt lat="46.15638673793459" lon="12.903937924231142"><ele>164.0</ele><time>2026-04-24T16:06:26Z</time></trkpt><trkpt lat="46.15645105662378" lon="12.903911509885079"><ele>164.0</ele><time>2026-04-24T16:06:27Z</time></trkpt><trkpt lat="46.15651505017225" lon="12.903883853036316"><ele>164.0</ele><time>2026-04-24T16:06:28Z</time></trkpt><trkpt lat="46.15657816469295" lon="12.903856084523142"><ele>164.0</ele><time>2026-04-24T16:06:29Z</time></trkpt><trkpt lat="46.15664379677573" lon="12.903833717122923"><ele>163.99999999999997</ele><time>2026-04-24T16:06:30Z</time></trkpt><trkpt lat="46.15670647219932" lon="12.903806015113101"><ele>164.0</ele><time>2026-04-24T16:06:31Z</time></trkpt><trkpt lat="46.156768410405185" lon="12.903781989484616"><ele>163.99999999999997</ele><time>2026-04-24T16:06:32Z</time></trkpt><trkpt lat="46.15683338116707" lon="12.90375321909653"><ele>164.0</ele><time>2026-04-24T16:06:33Z</time></trkpt><trkpt lat="46.15690189792657" lon="12.90373547647884"><ele>164.0</ele><time>2026-04-24T16:06:34Z</time></trkpt><trkpt lat="46.15696840245523" lon="12.903708387352886"><ele>164.0</ele><time>2026-04-24T16:06:35Z</time></trkpt><trkpt lat="46.15703761961349" lon="12.903679043070015"><ele>164.0</ele><time>2026-04-24T16:06:36Z</time></trkpt><trkpt lat="46.157105002391695" lon="12.903655254171616"><ele>163.99999999999997</ele><time>2026-04-24T16:06:37Z</time></trkpt><trkpt lat="46.157173664243935" lon="12.9036400614617"><ele>164.0</ele><time>2026-04-24T16:06:38Z</time></trkpt><trkpt lat="46.15723843840733" lon="12.90360852404523"><ele>163.99999999999997</ele><time>2026-04-24T16:06:39Z</time></trkpt><trkpt lat="46.15730620470536" lon="12.903578789782982"><ele>164.0</ele><time>2026-04-24T16:06:40Z</time></trkpt><trkpt lat="46.15736916485248" lon="12.90355726264249"><ele>164.0</ele><time>2026-04-24T16:06:41Z</time></trkpt><trkpt lat="46.157437761103104" lon="12.9035306987839"><ele>164.0</ele><time>2026-04-24T16:06:42Z</time></trkpt><trkpt lat="46.15750031181378" lon="12.903515574822192"><ele>164.0</ele><time>2026-04-24T16:06:43Z</time></trkpt><trkpt lat="46.15756577992236" lon="12.90348151083774"><ele>163.99999999999997</ele><time>2026-04-24T16:06:44Z</time></trkpt><trkpt lat="46.15763436810792" lon="12.903457321059982"><ele>164.0</ele><time>2026-04-24T16:06:45Z</time></trkpt><trkpt lat="46.15774981853808" lon="12.90340795840263"><ele>163.39999999999998</ele><time>2026-04-24T16:06:47Z</time></trkpt><trkpt lat="46.15782229005085" lon="12.903392292153804"><ele>162.8</ele><time>2026-04-24T16:06:48Z</time></trkpt><trkpt lat="46.15789193380857" lon="12.903374269412181"><ele>162.2</ele><time>2026-04-24T16:06:49Z</time></trkpt><trkpt lat="46.158001444950074" lon="12.903325877653733"><ele>161.60000000000002</ele><time>2026-04-24T16:06:51Z</time></trkpt><trkpt lat="46.15810923388779" lon="12.903279452995722"><ele>161.0</ele><time>2026-04-24T16:06:53Z</time></trkpt><trkpt lat="46.15818882860434" lon="12.903279989566252"><ele>162.20000000000002</ele><time>2026-04-24T16:06:54Z</time></trkpt><trkpt lat="46.15831480851985" lon="12.903258548884466"><ele>163.4</ele><time>2026-04-24T16:06:56Z</time></trkpt><trkpt lat="46.15843949912981" lon="12.903224115683997"><ele>164.6</ele><time>2026-04-24T16:06:58Z</time></trkpt><trkpt lat="46.15852271162996" lon="12.903218527597312"><ele>165.8</ele><time>2026-04-24T16:06:59Z</time></trkpt><trkpt lat="46.158589059904976" lon="12.90319673919609"><ele>167.0</ele><time>2026-04-24T16:07:00Z</time></trkpt><trkpt lat="46.15866029267636" lon="12.903187021268211"><ele>167.0</ele><time>2026-04-24T16:07:01Z</time></trkpt><trkpt lat="46.15873315266163" lon="12.90317896226873"><ele>167.0</ele><time>2026-04-24T16:07:02Z</time></trkpt><trkpt lat="46.15880241579131" lon="12.903166538730371"><ele>167.0</ele><time>2026-04-24T16:07:03Z</time></trkpt><trkpt lat="46.15886578643715" lon="12.903151288320212"><ele>167.0</ele><time>2026-04-24T16:07:04Z</time></trkpt><trkpt lat="46.15897597020451" lon="12.90313925900439"><ele>167.0</ele><time>2026-04-24T16:07:06Z</time></trkpt><trkpt lat="46.159043020127875" lon="12.90312415465015"><ele>167.0</ele><time>2026-04-24T16:07:07Z</time></trkpt><trkpt lat="46.159110478670925" lon="12.90310397336879"><ele>167.0</ele><time>2026-04-24T16:07:08Z</time></trkpt><trkpt lat="46.15918374036581" lon="12.903078366232558"><ele>167.0</ele><time>2026-04-24T16:07:09Z</time></trkpt><trkpt lat="46.159300453620546" lon="12.903014017635538"><ele>167.0</ele><time>2026-04-24T16:07:11Z</time></trkpt><trkpt lat="46.15941872973152" lon="12.902948513504963"><ele>167.0</ele><time>2026-04-24T16:07:13Z</time></trkpt><trkpt lat="46.15947934366267" lon="12.902915396048012"><ele>167.0</ele><time>2026-04-24T16:07:14Z</time></trkpt><trkpt lat="46.15959773860894" lon="12.902859799420026"><ele>167.0</ele><time>2026-04-24T16:07:16Z</time></trkpt><trkpt lat="46.159657744547495" lon="12.902821126903428"><ele>167.0</ele><time>2026-04-24T16:07:17Z</time></trkpt><trkpt lat="46.159718614351476" lon="12.902786873882434"><ele>167.0</ele><time>2026-04-24T16:07:18Z</time></trkpt><trkpt lat="46.15983203677143" lon="12.902737913542584"><ele>167.0</ele><time>2026-04-24T16:07:20Z</time></trkpt><trkpt lat="46.159889556901916" lon="12.902694724519316"><ele>167.0</ele><time>2026-04-24T16:07:21Z</time></trkpt><trkpt lat="46.15995356909755" lon="12.90264519463396"><ele>167.0</ele><time>2026-04-24T16:07:22Z</time></trkpt><trkpt lat="46.160015785862264" lon="12.902605934272563"><ele>166.5</ele><time>2026-04-24T16:07:23Z</time></trkpt><trkpt lat="46.16013853800008" lon="12.902532259723392"><ele>166.0</ele><time>2026-04-24T16:07:25Z</time></trkpt><trkpt lat="46.160251718559216" lon="12.902446950666091"><ele>165.5</ele><time>2026-04-24T16:07:27Z</time></trkpt><trkpt lat="46.160310061941956" lon="12.902405141457137"><ele>165.0</ele><time>2026-04-24T16:07:28Z</time></trkpt><trkpt lat="46.16042683743593" lon="12.902305871591373"><ele>165.0</ele><time>2026-04-24T16:07:30Z</time></trkpt><trkpt lat="46.16053946612172" lon="12.902226943310172"><ele>165.0</ele><time>2026-04-24T16:07:32Z</time></trkpt><trkpt lat="46.160602002397205" lon="12.90217635512946"><ele>165.0</ele><time>2026-04-24T16:07:33Z</time></trkpt><trkpt lat="46.16066552569437" lon="12.902122518234052"><ele>165.0</ele><time>2026-04-24T16:07:34Z</time></trkpt><trkpt lat="46.16072658290543" lon="12.9020665156987"><ele>165.0</ele><time>2026-04-24T16:07:35Z</time></trkpt><trkpt lat="46.16078420305066" lon="12.902025912873762"><ele>165.0</ele><time>2026-04-24T16:07:36Z</time></trkpt><trkpt lat="46.16083873773603" lon="12.901959790435555"><ele>165.16666666666666</ele><time>2026-04-24T16:07:37Z</time></trkpt><trkpt lat="46.16089830953587" lon="12.9019085363696"><ele>165.33333333333334</ele><time>2026-04-24T16:07:38Z</time></trkpt><trkpt lat="46.16095730024214" lon="12.901856576695382"><ele>165.5</ele><time>2026-04-24T16:07:39Z</time></trkpt><trkpt lat="46.16101489351661" lon="12.901796256291131"><ele>165.66666666666669</ele><time>2026-04-24T16:07:40Z</time></trkpt><trkpt lat="46.16111365623921" lon="12.901687705333408"><ele>165.83333333333334</ele><time>2026-04-24T16:07:42Z</time></trkpt><trkpt lat="46.16116785130443" lon="12.901639317174038"><ele>166.0</ele><time>2026-04-24T16:07:43Z</time></trkpt><trkpt lat="46.161217251135966" lon="12.901567265619722"><ele>166.0</ele><time>2026-04-24T16:07:44Z</time></trkpt><trkpt lat="46.161311770729135" lon="12.90145605130007"><ele>166.0</ele><time>2026-04-24T16:07:46Z</time></trkpt><trkpt lat="46.1613664284824" lon="12.901397106431288"><ele>166.0</ele><time>2026-04-24T16:07:47Z</time></trkpt><trkpt lat="46.16146951954838" lon="12.901283791028535"><ele>166.0</ele><time>2026-04-24T16:07:49Z</time></trkpt><trkpt lat="46.161561644018796" lon="12.901175813216136"><ele>166.0</ele><time>2026-04-24T16:07:51Z</time></trkpt><trkpt lat="46.16166880340661" lon="12.901066078490665"><ele>166.16666666666669</ele><time>2026-04-24T16:07:53Z</time></trkpt><trkpt lat="46.16175657821124" lon="12.900963014472325"><ele>166.33333333333334</ele><time>2026-04-24T16:07:55Z</time></trkpt><trkpt lat="46.161806508376216" lon="12.90090640542974"><ele>166.5</ele><time>2026-04-24T16:07:56Z</time></trkpt><trkpt lat="46.161893392693194" lon="12.900798620857547"><ele>166.66666666666666</ele><time>2026-04-24T16:07:58Z</time></trkpt><trkpt lat="46.16194733023338" lon="12.900738157527835"><ele>166.83333333333331</ele><time>2026-04-24T16:07:59Z</time></trkpt><trkpt lat="46.1620071817926" lon="12.900684009992574"><ele>167.0</ele><time>2026-04-24T16:08:00Z</time></trkpt><trkpt lat="46.16210435107433" lon="12.900565447341684"><ele>167.0</ele><time>2026-04-24T16:08:02Z</time></trkpt><trkpt lat="46.162157842430766" lon="12.900509439708456"><ele>167.0</ele><time>2026-04-24T16:08:03Z</time></trkpt><trkpt lat="46.162255172123686" lon="12.900393348317191"><ele>167.0</ele><time>2026-04-24T16:08:05Z</time></trkpt><trkpt lat="46.16230412980016" lon="12.90032818161107"><ele>167.0</ele><time>2026-04-24T16:08:06Z</time></trkpt><trkpt lat="46.16240035615903" lon="12.900223448208838"><ele>167.0</ele><time>2026-04-24T16:08:08Z</time></trkpt><trkpt lat="46.16250076804212" lon="12.900115488383491"><ele>167.2</ele><time>2026-04-24T16:08:10Z</time></trkpt><trkpt lat="46.162593533806486" lon="12.900011457535268"><ele>167.39999999999998</ele><time>2026-04-24T16:08:12Z</time></trkpt><trkpt lat="46.162681137419405" lon="12.899902674877607"><ele>167.60000000000002</ele><time>2026-04-24T16:08:14Z</time></trkpt><trkpt lat="46.16277757833093" lon="12.899810733088305"><ele>167.8</ele><time>2026-04-24T16:08:16Z</time></trkpt><trkpt lat="46.16282571944262" lon="12.899750808638414"><ele>168.0</ele><time>2026-04-24T16:08:17Z</time></trkpt><trkpt lat="46.16290453480073" lon="12.899649723411594"><ele>168.0</ele><time>2026-04-24T16:08:19Z</time></trkpt><trkpt lat="46.16299111119511" lon="12.899523556017387"><ele>168.0</ele><time>2026-04-24T16:08:21Z</time></trkpt><trkpt lat="46.16307968974787" lon="12.899416020729939"><ele>168.0</ele><time>2026-04-24T16:08:23Z</time></trkpt><trkpt lat="46.16316303472891" lon="12.899296060672834"><ele>168.0</ele><time>2026-04-24T16:08:25Z</time></trkpt><trkpt lat="46.16325167694968" lon="12.899179259581743"><ele>168.2</ele><time>2026-04-24T16:08:27Z</time></trkpt><trkpt lat="46.16333558588359" lon="12.899058850908876"><ele>168.4</ele><time>2026-04-24T16:08:29Z</time></trkpt><trkpt lat="46.16338269298212" lon="12.89899127362555"><ele>168.6</ele><time>2026-04-24T16:08:30Z</time></trkpt><trkpt lat="46.16348694409567" lon="12.898921207890782"><ele>168.79999999999998</ele><time>2026-04-24T16:08:32Z</time></trkpt><trkpt lat="46.16358548594458" lon="12.89886830204942"><ele>169.0</ele><time>2026-04-24T16:08:34Z</time></trkpt><trkpt lat="46.16370078542623" lon="12.898834170298246"><ele>169.0</ele><time>2026-04-24T16:08:36Z</time></trkpt><trkpt lat="46.163842388425564" lon="12.898831125250908"><ele>169.0</ele><time>2026-04-24T16:08:39Z</time></trkpt><trkpt lat="46.16394424486046" lon="12.89884199448718"><ele>169.0</ele><time>2026-04-24T16:08:41Z</time></trkpt><trkpt lat="46.164024151679484" lon="12.898878528702815"><ele>169.0</ele><time>2026-04-24T16:08:43Z</time></trkpt><trkpt lat="46.16409615800521" lon="12.89887581671759"><ele>169.0</ele><time>2026-04-24T16:08:45Z</time></trkpt><trkpt lat="46.16417601345518" lon="12.898833481111454"><ele>169.2</ele><time>2026-04-24T16:08:47Z</time></trkpt><trkpt lat="46.16425738790502" lon="12.898726672377876"><ele>169.39999999999998</ele><time>2026-04-24T16:08:49Z</time></trkpt><trkpt lat="46.164316181495714" lon="12.898615306816833"><ele>169.6</ele><time>2026-04-24T16:08:51Z</time></trkpt><trkpt lat="46.16436337962298" lon="12.898488963666138"><ele>169.8</ele><time>2026-04-24T16:08:53Z</time></trkpt><trkpt lat="46.164403199816874" lon="12.89839276721634"><ele>170.0</ele><time>2026-04-24T16:08:55Z</time></trkpt><trkpt lat="46.16446570236714" lon="12.89826142848937"><ele>170.0</ele><time>2026-04-24T16:08:57Z</time></trkpt><trkpt lat="46.164508317342325" lon="12.898096242018637"><ele>170.0</ele><time>2026-04-24T16:08:59Z</time></trkpt><trkpt lat="46.16452346408204" lon="12.897946410194283"><ele>170.0</ele><time>2026-04-24T16:09:01Z</time></trkpt><trkpt lat="46.1645397496049" lon="12.89779773195314"><ele>170.0</ele><time>2026-04-24T16:09:03Z</time></trkpt><trkpt lat="46.16451504296149" lon="12.89762729542084"><ele>169.8</ele><time>2026-04-24T16:09:05Z</time></trkpt><trkpt lat="46.16449295609291" lon="12.897475356202468"><ele>169.6</ele><time>2026-04-24T16:09:07Z</time></trkpt><trkpt lat="46.164448158913906" lon="12.897332523182781"><ele>169.39999999999998</ele><time>2026-04-24T16:09:09Z</time></trkpt><trkpt lat="46.16441662208927" lon="12.897170735907924"><ele>169.2</ele><time>2026-04-24T16:09:11Z</time></trkpt><trkpt lat="46.16438598132832" lon="12.897009364304843"><ele>169.0</ele><time>2026-04-24T16:09:13Z</time></trkpt><trkpt lat="46.16434314898041" lon="12.896867845120521"><ele>169.0</ele><time>2026-04-24T16:09:15Z</time></trkpt><trkpt lat="46.16430467905918" lon="12.896726019916054"><ele>169.0</ele><time>2026-04-24T16:09:17Z</time></trkpt><trkpt lat="46.16427097990262" lon="12.896585085158287"><ele>169.0</ele><time>2026-04-24T16:09:19Z</time></trkpt><trkpt lat="46.16423513552317" lon="12.896439948296841"><ele>169.0</ele><time>2026-04-24T16:09:21Z</time></trkpt><trkpt lat="46.16419906124817" lon="12.89629412625989"><ele>169.0</ele><time>2026-04-24T16:09:23Z</time></trkpt><trkpt lat="46.164161073208064" lon="12.89614881593235"><ele>169.0</ele><time>2026-04-24T16:09:25Z</time></trkpt><trkpt lat="46.16412930902528" lon="12.895997697876801"><ele>169.0</ele><time>2026-04-24T16:09:27Z</time></trkpt><trkpt lat="46.164114054702566" lon="12.895909449708787"><ele>169.0</ele><time>2026-04-24T16:09:28Z</time></trkpt><trkpt lat="46.16407854451565" lon="12.895750827575707"><ele>169.0</ele><time>2026-04-24T16:09:30Z</time></trkpt><trkpt lat="46.164047730118604" lon="12.895670357316309"><ele>169.0</ele><time>2026-04-24T16:09:31Z</time></trkpt><trkpt lat="46.164010378824365" lon="12.895502191060704"><ele>169.25</ele><time>2026-04-24T16:09:33Z</time></trkpt><trkpt lat="46.163978492034936" lon="12.89533138026487"><ele>169.5</ele><time>2026-04-24T16:09:35Z</time></trkpt><trkpt lat="46.16394130034088" lon="12.895167304293896"><ele>169.75</ele><time>2026-04-24T16:09:37Z</time></trkpt><trkpt lat="46.163893842578624" lon="12.89499826615926"><ele>170.0</ele><time>2026-04-24T16:09:39Z</time></trkpt><trkpt lat="46.163850470463416" lon="12.894849502226245"><ele>170.0</ele><time>2026-04-24T16:09:41Z</time></trkpt><trkpt lat="46.163815246918205" lon="12.894694871513787"><ele>170.0</ele><time>2026-04-24T16:09:43Z</time></trkpt><trkpt lat="46.16377690793402" lon="12.894535652405018"><ele>170.0</ele><time>2026-04-24T16:09:45Z</time></trkpt><trkpt lat="46.16373435368163" lon="12.894368464133947"><ele>170.0</ele><time>2026-04-24T16:09:47Z</time></trkpt><trkpt lat="46.16371588544806" lon="12.89428014639942"><ele>170.0</ele><time>2026-04-24T16:09:48Z</time></trkpt><trkpt lat="46.163679700942225" lon="12.894112560712669"><ele>170.8</ele><time>2026-04-24T16:09:50Z</time></trkpt><trkpt lat="46.16364194040956" lon="12.89394598970164"><ele>171.6</ele><time>2026-04-24T16:09:52Z</time></trkpt><trkpt lat="46.1635875419826" lon="12.893792420133138"><ele>172.39999999999998</ele><time>2026-04-24T16:09:54Z</time></trkpt><trkpt lat="46.163559890622935" lon="12.893672569450079"><ele>173.2</ele><time>2026-04-24T16:09:56Z</time></trkpt><trkpt lat="46.16366282505844" lon="12.893606704984574"><ele>174.0</ele><time>2026-04-24T16:09:58Z</time></trkpt><trkpt lat="46.16375484824588" lon="12.89357614823519"><ele>174.0</ele><time>2026-04-24T16:10:00Z</time></trkpt><trkpt lat="46.16386374135222" lon="12.893523771242872"><ele>174.0</ele><time>2026-04-24T16:10:02Z</time></trkpt><trkpt lat="46.163968440950356" lon="12.893490958653993"><ele>174.0</ele><time>2026-04-24T16:10:04Z</time></trkpt><trkpt lat="46.164072831729314" lon="12.893472497224634"><ele>174.0</ele><time>2026-04-24T16:10:06Z</time></trkpt><trkpt lat="46.164149293181346" lon="12.893406891583348"><ele>174.0</ele><time>2026-04-24T16:10:08Z</time></trkpt><trkpt lat="46.164221388260835" lon="12.893340248588794"><ele>174.6</ele><time>2026-04-24T16:10:10Z</time></trkpt><trkpt lat="46.164311442468" lon="12.893312125876774"><ele>175.2</ele><time>2026-04-24T16:10:12Z</time></trkpt><trkpt lat="46.16441792104338" lon="12.893227711017017"><ele>175.79999999999998</ele><time>2026-04-24T16:10:14Z</time></trkpt><trkpt lat="46.16451091865162" lon="12.893211346626211"><ele>176.39999999999998</ele><time>2026-04-24T16:10:16Z</time></trkpt><trkpt lat="46.164615109466546" lon="12.893172840452616"><ele>177.0</ele><time>2026-04-24T16:10:18Z</time></trkpt><trkpt lat="46.16471337649757" lon="12.893102868829821"><ele>177.0</ele><time>2026-04-24T16:10:20Z</time></trkpt><trkpt lat="46.16480634757058" lon="12.893030231224595"><ele>177.0</ele><time>2026-04-24T16:10:22Z</time></trkpt><trkpt lat="46.164900119990655" lon="12.892967738189643"><ele>177.0</ele><time>2026-04-24T16:10:24Z</time></trkpt><trkpt lat="46.1649909783467" lon="12.892909583511559"><ele>177.0</ele><time>2026-04-24T16:10:26Z</time></trkpt><trkpt lat="46.16507069334456" lon="12.892845338092416"><ele>177.0</ele><time>2026-04-24T16:10:28Z</time></trkpt><trkpt lat="46.16515203965507" lon="12.892777867855001"><ele>177.39999999999998</ele><time>2026-04-24T16:10:30Z</time></trkpt><trkpt lat="46.16523772970233" lon="12.892695844683692"><ele>177.79999999999998</ele><time>2026-04-24T16:10:32Z</time></trkpt><trkpt lat="46.16532203094578" lon="12.892623629515867"><ele>178.2</ele><time>2026-04-24T16:10:34Z</time></trkpt><trkpt lat="46.16539475554014" lon="12.892573780631407"><ele>178.6</ele><time>2026-04-24T16:10:36Z</time></trkpt><trkpt lat="46.165468401042766" lon="12.892518981930795"><ele>179.0</ele><time>2026-04-24T16:10:38Z</time></trkpt><trkpt lat="46.16555991387186" lon="12.892412493861402"><ele>179.0</ele><time>2026-04-24T16:10:40Z</time></trkpt><trkpt lat="46.16560156529787" lon="12.892342830798043"><ele>179.0</ele><time>2026-04-24T16:10:41Z</time></trkpt><trkpt lat="46.16566992258198" lon="12.892243919728353"><ele>179.0</ele><time>2026-04-24T16:10:43Z</time></trkpt><trkpt lat="46.16580393182296" lon="12.892203476416851"><ele>179.0</ele><time>2026-04-24T16:10:46Z</time></trkpt><trkpt lat="46.16588576703394" lon="12.892162538317109"><ele>179.0</ele><time>2026-04-24T16:10:48Z</time></trkpt><trkpt lat="46.165975472209226" lon="12.892122483835028"><ele>179.5</ele><time>2026-04-24T16:10:50Z</time></trkpt><trkpt lat="46.16608267933483" lon="12.892103662388374"><ele>180.0</ele><time>2026-04-24T16:10:52Z</time></trkpt><trkpt lat="46.16614929701424" lon="12.892054106727645"><ele>180.5</ele><time>2026-04-24T16:10:54Z</time></trkpt><trkpt lat="46.166228309147414" lon="12.89197431877502"><ele>181.0</ele><time>2026-04-24T16:10:56Z</time></trkpt><trkpt lat="46.16626710325093" lon="12.891885546782792"><ele>181.5</ele><time>2026-04-24T16:10:58Z</time></trkpt><trkpt lat="46.166322132164815" lon="12.891781202202448"><ele>182.0</ele><time>2026-04-24T16:11:01Z</time></trkpt><trkpt lat="46.16636064739824" lon="12.891670797907262"><ele>182.0</ele><time>2026-04-24T16:11:04Z</time></trkpt><trkpt lat="46.16641424158032" lon="12.89160932091747"><ele>182.0</ele><time>2026-04-24T16:11:06Z</time></trkpt><trkpt lat="46.16646358528373" lon="12.8915145158073"><ele>182.0</ele><time>2026-04-24T16:11:08Z</time></trkpt><trkpt lat="46.16650269633922" lon="12.891402686108947"><ele>182.0</ele><time>2026-04-24T16:11:11Z</time></trkpt><trkpt lat="46.16653789976609" lon="12.891305265979467"><ele>182.0</ele><time>2026-04-24T16:11:14Z</time></trkpt><trkpt lat="46.166577471365216" lon="12.891179201334728"><ele>182.0</ele><time>2026-04-24T16:11:18Z</time></trkpt><trkpt lat="46.166598331344204" lon="12.89108892926362"><ele>181.83333333333331</ele><time>2026-04-24T16:11:22Z</time></trkpt><trkpt lat="46.16663817847319" lon="12.89099740407138"><ele>181.66666666666666</ele><time>2026-04-24T16:11:25Z</time></trkpt><trkpt lat="46.16669360880235" lon="12.890907079194662"><ele>181.5</ele><time>2026-04-24T16:11:28Z</time></trkpt><trkpt lat="46.166710772333815" lon="12.890795809445814"><ele>181.33333333333334</ele><time>2026-04-24T16:11:31Z</time></trkpt><trkpt lat="46.166767961352114" lon="12.890711888398876"><ele>181.16666666666669</ele><time>2026-04-24T16:11:35Z</time></trkpt><trkpt lat="46.16678522148934" lon="12.890614045926084"><ele>181.0</ele><time>2026-04-24T16:11:38Z</time></trkpt><trkpt lat="46.166790330831006" lon="12.890521709840401"><ele>181.0</ele><time>2026-04-24T16:11:40Z</time></trkpt><trkpt lat="46.166832036217905" lon="12.890443554950856"><ele>181.0</ele><time>2026-04-24T16:11:43Z</time></trkpt><trkpt lat="46.16688416856445" lon="12.890348464191607"><ele>181.0</ele><time>2026-04-24T16:11:47Z</time></trkpt><trkpt lat="46.166904609998284" lon="12.890220342970952"><ele>181.0</ele><time>2026-04-24T16:11:50Z</time></trkpt><trkpt lat="46.166937477037074" lon="12.890140659382268"><ele>181.0</ele><time>2026-04-24T16:11:53Z</time></trkpt><trkpt lat="46.16698219149717" lon="12.890062061689989"><ele>181.0</ele><time>2026-04-24T16:11:56Z</time></trkpt><trkpt lat="46.16701555153846" lon="12.889965149423558"><ele>181.57142857142856</ele><time>2026-04-24T16:11:59Z</time></trkpt><trkpt lat="46.16705032290536" lon="12.889871013491247"><ele>182.14285714285714</ele><time>2026-04-24T16:12:02Z</time></trkpt><trkpt lat="46.16707317009683" lon="12.88977755796278"><ele>182.71428571428572</ele><time>2026-04-24T16:12:05Z</time></trkpt><trkpt lat="46.16706500180227" lon="12.889683007536775"><ele>183.28571428571428</ele><time>2026-04-24T16:12:08Z</time></trkpt><trkpt lat="46.16711665945916" lon="12.889599288191512"><ele>183.85714285714286</ele><time>2026-04-24T16:12:12Z</time></trkpt><trkpt lat="46.16717697924074" lon="12.889563199720925"><ele>184.42857142857142</ele><time>2026-04-24T16:12:14Z</time></trkpt><trkpt lat="46.167259602906455" lon="12.889509840850161"><ele>185.0</ele><time>2026-04-24T16:12:17Z</time></trkpt><trkpt lat="46.167325761238864" lon="12.889448011287122"><ele>184.2</ele><time>2026-04-24T16:12:19Z</time></trkpt><trkpt lat="46.16738340372655" lon="12.88935738424255"><ele>183.4</ele><time>2026-04-24T16:12:21Z</time></trkpt><trkpt lat="46.16744159130288" lon="12.889272085580249"><ele>182.60000000000002</ele><time>2026-04-24T16:12:23Z</time></trkpt><trkpt lat="46.16749179999271" lon="12.889156723425804"><ele>181.8</ele><time>2026-04-24T16:12:25Z</time></trkpt><trkpt lat="46.167548175461285" lon="12.889033633164305"><ele>181.0</ele><time>2026-04-24T16:12:27Z</time></trkpt><trkpt lat="46.16759298160703" lon="12.888927875954149"><ele>181.0</ele><time>2026-04-24T16:12:29Z</time></trkpt><trkpt lat="46.16762930824982" lon="12.888822385467531"><ele>181.0</ele><time>2026-04-24T16:12:31Z</time></trkpt><trkpt lat="46.167683456570174" lon="12.888710758765578"><ele>181.0</ele><time>2026-04-24T16:12:33Z</time></trkpt><trkpt lat="46.16771810128803" lon="12.88858703759804"><ele>181.0</ele><time>2026-04-24T16:12:35Z</time></trkpt><trkpt lat="46.16775970689188" lon="12.888450040742319"><ele>181.0</ele><time>2026-04-24T16:12:37Z</time></trkpt><trkpt lat="46.167811617156914" lon="12.888330834428691"><ele>182.0</ele><time>2026-04-24T16:12:39Z</time></trkpt><trkpt lat="46.1678561267484" lon="12.888199068633819"><ele>183.0</ele><time>2026-04-24T16:12:41Z</time></trkpt><trkpt lat="46.167896088623436" lon="12.888082763194173"><ele>184.0</ele><time>2026-04-24T16:12:43Z</time></trkpt><trkpt lat="46.16792491878456" lon="12.887912172628859"><ele>185.0</ele><time>2026-04-24T16:12:45Z</time></trkpt><trkpt lat="46.167973392502105" lon="12.887776530360417"><ele>186.0</ele><time>2026-04-24T16:12:47Z</time></trkpt><trkpt lat="46.16802413574364" lon="12.887617677807631"><ele>186.4</ele><time>2026-04-24T16:12:49Z</time></trkpt><trkpt lat="46.168082988115835" lon="12.88747993921077"><ele>186.8</ele><time>2026-04-24T16:12:51Z</time></trkpt><trkpt lat="46.16814981567293" lon="12.887352292829132"><ele>187.20000000000002</ele><time>2026-04-24T16:12:53Z</time></trkpt><trkpt lat="46.168239641441765" lon="12.887240206080927"><ele>187.60000000000002</ele><time>2026-04-24T16:12:55Z</time></trkpt><trkpt lat="46.16831377951258" lon="12.887137776245865"><ele>188.0</ele><time>2026-04-24T16:12:57Z</time></trkpt><trkpt lat="46.16839936407939" lon="12.887037408186945"><ele>188.0</ele><time>2026-04-24T16:12:59Z</time></trkpt><trkpt lat="46.16847868169227" lon="12.88692486414475"><ele>188.0</ele><time>2026-04-24T16:13:01Z</time></trkpt><trkpt lat="46.168552307264335" lon="12.88682330190066"><ele>188.0</ele><time>2026-04-24T16:13:03Z</time></trkpt><trkpt lat="46.16861410267263" lon="12.8867058483755"><ele>188.0</ele><time>2026-04-24T16:13:05Z</time></trkpt><trkpt lat="46.16869219714393" lon="12.886602899376108"><ele>188.0</ele><time>2026-04-24T16:13:07Z</time></trkpt><trkpt lat="46.16875744115128" lon="12.886501115841043"><ele>188.0</ele><time>2026-04-24T16:13:09Z</time></trkpt><trkpt lat="46.168820590290174" lon="12.886377768757667"><ele>188.0</ele><time>2026-04-24T16:13:11Z</time></trkpt><trkpt lat="46.16889985038083" lon="12.88627238836453"><ele>188.0</ele><time>2026-04-24T16:13:13Z</time></trkpt><trkpt lat="46.16899530422312" lon="12.886189679343758"><ele>188.0</ele><time>2026-04-24T16:13:15Z</time></trkpt><trkpt lat="46.16908599427468" lon="12.88607942612086"><ele>188.0</ele><time>2026-04-24T16:13:17Z</time></trkpt><trkpt lat="46.1691709669558" lon="12.8859990325964"><ele>188.0</ele><time>2026-04-24T16:13:19Z</time></trkpt><trkpt lat="46.16926852602417" lon="12.88588846295777"><ele>188.0</ele><time>2026-04-24T16:13:21Z</time></trkpt><trkpt lat="46.16932414397178" lon="12.885831951541856"><ele>188.0</ele><time>2026-04-24T16:13:22Z</time></trkpt><trkpt lat="46.16941880926959" lon="12.885740388486653"><ele>188.0</ele><time>2026-04-24T16:13:24Z</time></trkpt><trkpt lat="46.16951983855048" lon="12.8856493162007"><ele>188.0</ele><time>2026-04-24T16:13:26Z</time></trkpt><trkpt lat="46.16960425379915" lon="12.88555245387289"><ele>188.0</ele><time>2026-04-24T16:13:28Z</time></trkpt><trkpt lat="46.16970578386089" lon="12.88545718485389"><ele>188.0</ele><time>2026-04-24T16:13:30Z</time></trkpt><trkpt lat="46.16980684198747" lon="12.885368263628397"><ele>188.0</ele><time>2026-04-24T16:13:32Z</time></trkpt><trkpt lat="46.169912906049895" lon="12.885284268766453"><ele>188.0</ele><time>2026-04-24T16:13:34Z</time></trkpt><trkpt lat="46.17001182857534" lon="12.885216087024242"><ele>188.0</ele><time>2026-04-24T16:13:36Z</time></trkpt><trkpt lat="46.1701009559672" lon="12.885123015211775"><ele>188.0</ele><time>2026-04-24T16:13:38Z</time></trkpt><trkpt lat="46.170189811742304" lon="12.885030732115872"><ele>188.0</ele><time>2026-04-24T16:13:40Z</time></trkpt><trkpt lat="46.17027286401815" lon="12.88492440452972"><ele>188.0</ele><time>2026-04-24T16:13:42Z</time></trkpt><trkpt lat="46.170341106999125" lon="12.884823854315938"><ele>188.0</ele><time>2026-04-24T16:13:44Z</time></trkpt><trkpt lat="46.1704299332928" lon="12.88470346146322"><ele>188.0</ele><time>2026-04-24T16:13:46Z</time></trkpt><trkpt lat="46.17051700789816" lon="12.88457755339675"><ele>188.0</ele><time>2026-04-24T16:13:48Z</time></trkpt><trkpt lat="46.17059051813914" lon="12.884459002964986"><ele>188.0</ele><time>2026-04-24T16:13:50Z</time></trkpt><trkpt lat="46.170677273663244" lon="12.884353689533693"><ele>188.0</ele><time>2026-04-24T16:13:52Z</time></trkpt><trkpt lat="46.17076521716509" lon="12.884243221920459"><ele>188.2</ele><time>2026-04-24T16:13:54Z</time></trkpt><trkpt lat="46.17084408682911" lon="12.884127988032084"><ele>188.4</ele><time>2026-04-24T16:13:56Z</time></trkpt><trkpt lat="46.170915493460576" lon="12.884032483927228"><ele>188.6</ele><time>2026-04-24T16:13:58Z</time></trkpt><trkpt lat="46.17096800604555" lon="12.883966118505926"><ele>188.79999999999998</ele><time>2026-04-24T16:13:59Z</time></trkpt><trkpt lat="46.17105582048403" lon="12.883873624440676"><ele>189.0</ele><time>2026-04-24T16:14:01Z</time></trkpt><trkpt lat="46.17114867762369" lon="12.88378432171552"><ele>189.0</ele><time>2026-04-24T16:14:03Z</time></trkpt><trkpt lat="46.17123709086941" lon="12.883702517266716"><ele>189.0</ele><time>2026-04-24T16:14:05Z</time></trkpt><trkpt lat="46.171332110113866" lon="12.88362125811849"><ele>189.0</ele><time>2026-04-24T16:14:07Z</time></trkpt><trkpt lat="46.17142404100821" lon="12.883550467820971"><ele>189.0</ele><time>2026-04-24T16:14:09Z</time></trkpt><trkpt lat="46.171474480771046" lon="12.883491524770545"><ele>189.0</ele><time>2026-04-24T16:14:10Z</time></trkpt><trkpt lat="46.17157961884227" lon="12.883416752334808"><ele>190.0</ele><time>2026-04-24T16:14:12Z</time></trkpt><trkpt lat="46.171664206172075" lon="12.883302966601002"><ele>191.0</ele><time>2026-04-24T16:14:14Z</time></trkpt><trkpt lat="46.171754541542526" lon="12.883210267522575"><ele>192.0</ele><time>2026-04-24T16:14:16Z</time></trkpt><trkpt lat="46.171849512559824" lon="12.88312593039654"><ele>193.0</ele><time>2026-04-24T16:14:18Z</time></trkpt><trkpt lat="46.17192995250969" lon="12.883007263743695"><ele>193.0</ele><time>2026-04-24T16:14:20Z</time></trkpt><trkpt lat="46.171975447300944" lon="12.882938609396348"><ele>193.0</ele><time>2026-04-24T16:14:21Z</time></trkpt><trkpt lat="46.17205631722944" lon="12.882800327970871"><ele>193.0</ele><time>2026-04-24T16:14:23Z</time></trkpt><trkpt lat="46.172130091905665" lon="12.88267654417512"><ele>193.0</ele><time>2026-04-24T16:14:25Z</time></trkpt><trkpt lat="46.17219725430566" lon="12.882542253489117"><ele>193.0</ele><time>2026-04-24T16:14:27Z</time></trkpt><trkpt lat="46.17226558628532" lon="12.88242598100316"><ele>192.60000000000002</ele><time>2026-04-24T16:14:29Z</time></trkpt><trkpt lat="46.17232250451038" lon="12.882279999799756"><ele>192.20000000000002</ele><time>2026-04-24T16:14:31Z</time></trkpt><trkpt lat="46.17238598920153" lon="12.882149952457146"><ele>191.8</ele><time>2026-04-24T16:14:33Z</time></trkpt><trkpt lat="46.172448864677534" lon="12.882014039123304"><ele>191.4</ele><time>2026-04-24T16:14:35Z</time></trkpt><trkpt lat="46.17251634455334" lon="12.881891265426574"><ele>191.0</ele><time>2026-04-24T16:14:37Z</time></trkpt><trkpt lat="46.17257521381508" lon="12.881753133515797"><ele>191.0</ele><time>2026-04-24T16:14:39Z</time></trkpt><trkpt lat="46.17265033699586" lon="12.881624058356703"><ele>191.0</ele><time>2026-04-24T16:14:41Z</time></trkpt><trkpt lat="46.17271961225501" lon="12.88151824203077"><ele>191.0</ele><time>2026-04-24T16:14:43Z</time></trkpt><trkpt lat="46.172806275133446" lon="12.881430121184165"><ele>191.0</ele><time>2026-04-24T16:14:45Z</time></trkpt><trkpt lat="46.17290563284398" lon="12.881381848268145"><ele>191.0</ele><time>2026-04-24T16:14:47Z</time></trkpt><trkpt lat="46.17300952984241" lon="12.881358566338823"><ele>191.0</ele><time>2026-04-24T16:14:49Z</time></trkpt><trkpt lat="46.17311676501783" lon="12.881308380172902"><ele>191.0</ele><time>2026-04-24T16:14:51Z</time></trkpt><trkpt lat="46.173222373946004" lon="12.881233566376348"><ele>191.0</ele><time>2026-04-24T16:14:53Z</time></trkpt><trkpt lat="46.17334007378253" lon="12.881188024476232"><ele>191.0</ele><time>2026-04-24T16:14:55Z</time></trkpt><trkpt lat="46.1734556593964" lon="12.881141356954087"><ele>191.60000000000002</ele><time>2026-04-24T16:14:57Z</time></trkpt><trkpt lat="46.173568273003546" lon="12.881102478571963"><ele>192.2</ele><time>2026-04-24T16:14:59Z</time></trkpt><trkpt lat="46.173666936009" lon="12.881038769113719"><ele>192.8</ele><time>2026-04-24T16:15:01Z</time></trkpt><trkpt lat="46.173777633941036" lon="12.880976263525037"><ele>193.39999999999998</ele><time>2026-04-24T16:15:03Z</time></trkpt><trkpt lat="46.173838026181365" lon="12.880946779780823"><ele>194.0</ele><time>2026-04-24T16:15:04Z</time></trkpt><trkpt lat="46.173896807140046" lon="12.880914199195464"><ele>194.2</ele><time>2026-04-24T16:15:05Z</time></trkpt><trkpt lat="46.17401216618695" lon="12.880854281348222"><ele>194.39999999999998</ele><time>2026-04-24T16:15:07Z</time></trkpt><trkpt lat="46.17413232371408" lon="12.880806097926325"><ele>194.6</ele><time>2026-04-24T16:15:09Z</time></trkpt><trkpt lat="46.174244205276715" lon="12.880756526460015"><ele>194.8</ele><time>2026-04-24T16:15:11Z</time></trkpt><trkpt lat="46.17430392828546" lon="12.8807241428471"><ele>195.0</ele><time>2026-04-24T16:15:12Z</time></trkpt><trkpt lat="46.17436428654936" lon="12.880685921662923"><ele>195.16666666666666</ele><time>2026-04-24T16:15:13Z</time></trkpt><trkpt lat="46.17447899869409" lon="12.880626426928877"><ele>195.33333333333331</ele><time>2026-04-24T16:15:15Z</time></trkpt><trkpt lat="46.17454271329363" lon="12.880604898266746"><ele>195.5</ele><time>2026-04-24T16:15:16Z</time></trkpt><trkpt lat="46.17460569864781" lon="12.880576389453866"><ele>195.66666666666666</ele><time>2026-04-24T16:15:17Z</time></trkpt><trkpt lat="46.174666817819634" lon="12.880553538760214"><ele>195.83333333333331</ele><time>2026-04-24T16:15:18Z</time></trkpt><trkpt lat="46.1747749519936" lon="12.880502487650446"><ele>196.0</ele><time>2026-04-24T16:15:20Z</time></trkpt><trkpt lat="46.17488381831639" lon="12.880442197631181"><ele>196.0</ele><time>2026-04-24T16:15:22Z</time></trkpt><trkpt lat="46.17500208422514" lon="12.880387224664304"><ele>196.0</ele><time>2026-04-24T16:15:24Z</time></trkpt><trkpt lat="46.17511257889376" lon="12.880341082037477"><ele>196.0</ele><time>2026-04-24T16:15:26Z</time></trkpt><trkpt lat="46.175229766700255" lon="12.88028310245646"><ele>196.0</ele><time>2026-04-24T16:15:28Z</time></trkpt><trkpt lat="46.175292996830045" lon="12.880258255614331"><ele>196.0</ele><time>2026-04-24T16:15:29Z</time></trkpt><trkpt lat="46.17540413125822" lon="12.880204002017262"><ele>196.0</ele><time>2026-04-24T16:15:31Z</time></trkpt><trkpt lat="46.17546768431879" lon="12.880169625923287"><ele>196.0</ele><time>2026-04-24T16:15:32Z</time></trkpt><trkpt lat="46.17557261886127" lon="12.88012272072491"><ele>196.0</ele><time>2026-04-24T16:15:34Z</time></trkpt><trkpt lat="46.17568732440155" lon="12.880078568013007"><ele>196.0</ele><time>2026-04-24T16:15:36Z</time></trkpt><trkpt lat="46.17580723758797" lon="12.88002352208116"><ele>196.0</ele><time>2026-04-24T16:15:38Z</time></trkpt><trkpt lat="46.17591421721814" lon="12.879986905702728"><ele>196.20000000000002</ele><time>2026-04-24T16:15:40Z</time></trkpt><trkpt lat="46.17597726040042" lon="12.879969869359742"><ele>196.4</ele><time>2026-04-24T16:15:41Z</time></trkpt><trkpt lat="46.17603909895491" lon="12.879944027034133"><ele>196.6</ele><time>2026-04-24T16:15:42Z</time></trkpt><trkpt lat="46.176152670853455" lon="12.879876776312791"><ele>196.8</ele><time>2026-04-24T16:15:44Z</time></trkpt><trkpt lat="46.176277568160664" lon="12.879835252555846"><ele>197.0</ele><time>2026-04-24T16:15:46Z</time></trkpt><trkpt lat="46.176382734245436" lon="12.87978707403983"><ele>197.0</ele><time>2026-04-24T16:15:48Z</time></trkpt><trkpt lat="46.17650646230997" lon="12.879720593798483"><ele>197.0</ele><time>2026-04-24T16:15:50Z</time></trkpt><trkpt lat="46.17662558285883" lon="12.879671531072123"><ele>197.0</ele><time>2026-04-24T16:15:52Z</time></trkpt><trkpt lat="46.17673031661192" lon="12.879611799845367"><ele>197.0</ele><time>2026-04-24T16:15:54Z</time></trkpt><trkpt lat="46.17679192634054" lon="12.87958615028764"><ele>197.0</ele><time>2026-04-24T16:15:55Z</time></trkpt><trkpt lat="46.17685247394258" lon="12.879555935324365"><ele>196.6</ele><time>2026-04-24T16:15:56Z</time></trkpt><trkpt lat="46.17691534639792" lon="12.879529871755883"><ele>196.2</ele><time>2026-04-24T16:15:57Z</time></trkpt><trkpt lat="46.17702760417832" lon="12.87948116650167"><ele>195.8</ele><time>2026-04-24T16:15:59Z</time></trkpt><trkpt lat="46.177098638108696" lon="12.879456344402245"><ele>195.4</ele><time>2026-04-24T16:16:00Z</time></trkpt><trkpt lat="46.17721194123757" lon="12.879402554695242"><ele>195.0</ele><time>2026-04-24T16:16:02Z</time></trkpt><trkpt lat="46.17732843891065" lon="12.87933916786709"><ele>195.0</ele><time>2026-04-24T16:16:04Z</time></trkpt><trkpt lat="46.17744108887661" lon="12.879303285392323"><ele>195.0</ele><time>2026-04-24T16:16:06Z</time></trkpt><trkpt lat="46.17754341991957" lon="12.879258896862101"><ele>195.0</ele><time>2026-04-24T16:16:08Z</time></trkpt><trkpt lat="46.17765323699482" lon="12.8792338520754"><ele>195.0</ele><time>2026-04-24T16:16:10Z</time></trkpt><trkpt lat="46.17775487598879" lon="12.879177291768059"><ele>195.0</ele><time>2026-04-24T16:16:12Z</time></trkpt><trkpt lat="46.17786405140045" lon="12.879128756142903"><ele>195.2</ele><time>2026-04-24T16:16:14Z</time></trkpt><trkpt lat="46.177967968949446" lon="12.879071177908564"><ele>195.4</ele><time>2026-04-24T16:16:16Z</time></trkpt><trkpt lat="46.17802928131962" lon="12.879049435660068"><ele>195.60000000000002</ele><time>2026-04-24T16:16:17Z</time></trkpt><trkpt lat="46.17809269759005" lon="12.879027981127578"><ele>195.8</ele><time>2026-04-24T16:16:18Z</time></trkpt><trkpt lat="46.17820372483987" lon="12.878976902710376"><ele>196.0</ele><time>2026-04-24T16:16:20Z</time></trkpt><trkpt lat="46.17830580702645" lon="12.878925744965168"><ele>196.0</ele><time>2026-04-24T16:16:22Z</time></trkpt><trkpt lat="46.178416747924196" lon="12.878878912549254"><ele>196.0</ele><time>2026-04-24T16:16:24Z</time></trkpt><trkpt lat="46.17853113810245" lon="12.878826892069098"><ele>196.0</ele><time>2026-04-24T16:16:26Z</time></trkpt><trkpt lat="46.178628795268885" lon="12.878802875775024"><ele>196.0</ele><time>2026-04-24T16:16:28Z</time></trkpt><trkpt lat="46.178686920223065" lon="12.878766566105147"><ele>196.0</ele><time>2026-04-24T16:16:29Z</time></trkpt><trkpt lat="46.1787577907954" lon="12.87873066065675"><ele>196.0</ele><time>2026-04-24T16:16:30Z</time></trkpt><trkpt lat="46.17886468593809" lon="12.878686140823278"><ele>196.0</ele><time>2026-04-24T16:16:32Z</time></trkpt><trkpt lat="46.178970502098984" lon="12.87862952591293"><ele>196.0</ele><time>2026-04-24T16:16:34Z</time></trkpt><trkpt lat="46.17908561991336" lon="12.87857076995896"><ele>196.0</ele><time>2026-04-24T16:16:36Z</time></trkpt><trkpt lat="46.17919560466313" lon="12.878519498461293"><ele>197.20000000000002</ele><time>2026-04-24T16:16:38Z</time></trkpt><trkpt lat="46.179302564195694" lon="12.878467521530338"><ele>198.4</ele><time>2026-04-24T16:16:40Z</time></trkpt><trkpt lat="46.179417411155434" lon="12.87840120565714"><ele>199.6</ele><time>2026-04-24T16:16:42Z</time></trkpt><trkpt lat="46.179481871737195" lon="12.87837471253289"><ele>200.8</ele><time>2026-04-24T16:16:43Z</time></trkpt><trkpt lat="46.17959392079825" lon="12.878336995969129"><ele>202.0</ele><time>2026-04-24T16:16:45Z</time></trkpt><trkpt lat="46.17971453877672" lon="12.878286468387136"><ele>202.0</ele><time>2026-04-24T16:16:47Z</time></trkpt><trkpt lat="46.17981803891938" lon="12.878225300882637"><ele>202.0</ele><time>2026-04-24T16:16:49Z</time></trkpt><trkpt lat="46.17993242945753" lon="12.878174880430398"><ele>202.0</ele><time>2026-04-24T16:16:51Z</time></trkpt><trkpt lat="46.180041972625816" lon="12.878138145988142"><ele>202.0</ele><time>2026-04-24T16:16:53Z</time></trkpt><trkpt lat="46.18014275504533" lon="12.87808909327255"><ele>202.0</ele><time>2026-04-24T16:16:55Z</time></trkpt><trkpt lat="46.18025396782709" lon="12.87804380910192"><ele>202.0</ele><time>2026-04-24T16:16:57Z</time></trkpt><trkpt lat="46.18036562738992" lon="12.878022707057621"><ele>202.0</ele><time>2026-04-24T16:16:59Z</time></trkpt><trkpt lat="46.18047448317053" lon="12.878005168445721"><ele>202.0</ele><time>2026-04-24T16:17:01Z</time></trkpt><trkpt lat="46.180537014256906" lon="12.877982648269349"><ele>202.0</ele><time>2026-04-24T16:17:02Z</time></trkpt><trkpt lat="46.180651867124695" lon="12.877957598524906"><ele>202.0</ele><time>2026-04-24T16:17:04Z</time></trkpt><trkpt lat="46.18076066894067" lon="12.877946128237438"><ele>202.0</ele><time>2026-04-24T16:17:06.001Z</time></trkpt><trkpt lat="46.18087519130824" lon="12.877928897146342"><ele>202.0</ele><time>2026-04-24T16:17:08.001Z</time></trkpt><trkpt lat="46.180994928452705" lon="12.877916189496297"><ele>202.0</ele><time>2026-04-24T16:17:10.001Z</time></trkpt><trkpt lat="46.18111988758374" lon="12.87790355698607"><ele>202.0</ele><time>2026-04-24T16:17:12.001Z</time></trkpt><trkpt lat="46.181233504524826" lon="12.87790001236296"><ele>202.0</ele><time>2026-04-24T16:17:14.001Z</time></trkpt><trkpt lat="46.18134288350508" lon="12.877910352925618"><ele>202.0</ele><time>2026-04-24T16:17:16.001Z</time></trkpt><trkpt lat="46.18145541329425" lon="12.877899683952894"><ele>202.0</ele><time>2026-04-24T16:17:18.001Z</time></trkpt><trkpt lat="46.181566244862694" lon="12.877902274263281"><ele>202.0</ele><time>2026-04-24T16:17:20.001Z</time></trkpt><trkpt lat="46.18166672770972" lon="12.877880879885721"><ele>202.6</ele><time>2026-04-24T16:17:22Z</time></trkpt><trkpt lat="46.181781376422244" lon="12.877872614350892"><ele>203.2</ele><time>2026-04-24T16:17:24Z</time></trkpt><trkpt lat="46.181903127020526" lon="12.87789170963735"><ele>203.8</ele><time>2026-04-24T16:17:26Z</time></trkpt><trkpt lat="46.18200796895005" lon="12.877897634183828"><ele>204.4</ele><time>2026-04-24T16:17:28Z</time></trkpt><trkpt lat="46.182113167922466" lon="12.87790442966684"><ele>205.0</ele><time>2026-04-24T16:17:30Z</time></trkpt><trkpt lat="46.182181185066355" lon="12.87791326573496"><ele>205.0</ele><time>2026-04-24T16:17:31Z</time></trkpt><trkpt lat="46.182291678205914" lon="12.87792580692231"><ele>205.0</ele><time>2026-04-24T16:17:33Z</time></trkpt><trkpt lat="46.182387601900686" lon="12.877918073189239"><ele>205.0</ele><time>2026-04-24T16:17:35Z</time></trkpt><trkpt lat="46.18248161290158" lon="12.877896125511864"><ele>205.0</ele><time>2026-04-24T16:17:37Z</time></trkpt><trkpt lat="46.182546655307156" lon="12.877838296825267"><ele>205.0</ele><time>2026-04-24T16:17:39Z</time></trkpt><trkpt lat="46.18253366723446" lon="12.877699415285498"><ele>206.0</ele><time>2026-04-24T16:17:41Z</time></trkpt><trkpt lat="46.182472316477465" lon="12.877637506147899"><ele>206.0</ele><time>2026-04-24T16:17:43Z</time></trkpt></trkseg><trkseg><trkpt lat="46.17977810379069" lon="12.878245935152139"><ele>201.99999999999997</ele><time>2026-04-24T16:47:22.202Z</time></trkpt><trkpt lat="46.17969471289749" lon="12.878284827885874"><ele>202.0</ele><time>2026-04-24T16:47:24.102Z</time></trkpt><trkpt lat="46.17959840274327" lon="12.878293611166537"><ele>202.0</ele><time>2026-04-24T16:47:26.002Z</time></trkpt><trkpt lat="46.17951936106795" lon="12.878323426662327"><ele>202.0</ele><time>2026-04-24T16:47:28Z</time></trkpt><trkpt lat="46.17943184067095" lon="12.878364546750856"><ele>201.99999999999997</ele><time>2026-04-24T16:47:30Z</time></trkpt><trkpt lat="46.17935318595227" lon="12.878402680167811"><ele>202.0</ele><time>2026-04-24T16:47:32Z</time></trkpt><trkpt lat="46.179290847132684" lon="12.878444791642938"><ele>202.0</ele><time>2026-04-24T16:47:34Z</time></trkpt><trkpt lat="46.179183287471915" lon="12.878484816224622"><ele>202.0</ele><time>2026-04-24T16:47:36Z</time></trkpt><trkpt lat="46.17905613030043" lon="12.878551611615839"><ele>202.0</ele><time>2026-04-24T16:47:38Z</time></trkpt><trkpt lat="46.17899388459774" lon="12.878580640454755"><ele>202.0</ele><time>2026-04-24T16:47:39Z</time></trkpt><trkpt lat="46.17887235505467" lon="12.87863348048767"><ele>202.0</ele><time>2026-04-24T16:47:41Z</time></trkpt><trkpt lat="46.17880982927459" lon="12.878660749084778"><ele>200.5</ele><time>2026-04-24T16:47:42Z</time></trkpt><trkpt lat="46.17874604761007" lon="12.878698415758656"><ele>199.0</ele><time>2026-04-24T16:47:43Z</time></trkpt><trkpt lat="46.17862889230309" lon="12.87876451120988"><ele>197.5</ele><time>2026-04-24T16:47:45Z</time></trkpt><trkpt lat="46.17852271748788" lon="12.87883118028495"><ele>196.0</ele><time>2026-04-24T16:47:47Z</time></trkpt><trkpt lat="46.17837216814423" lon="12.878864490932424"><ele>196.0</ele><time>2026-04-24T16:47:49Z</time></trkpt><trkpt lat="46.178315749636496" lon="12.878907492132404"><ele>196.0</ele><time>2026-04-24T16:47:50Z</time></trkpt><trkpt lat="46.17820516316851" lon="12.878940828571267"><ele>196.0</ele><time>2026-04-24T16:47:52Z</time></trkpt><trkpt lat="46.17809862481147" lon="12.878988536101396"><ele>196.0</ele><time>2026-04-24T16:47:54Z</time></trkpt><trkpt lat="46.17799269470082" lon="12.879039371557516"><ele>196.0</ele><time>2026-04-24T16:47:56Z</time></trkpt><trkpt lat="46.1779003547542" lon="12.879087977814443"><ele>196.0</ele><time>2026-04-24T16:47:58Z</time></trkpt><trkpt lat="46.17780352332534" lon="12.879130532457896"><ele>196.0</ele><time>2026-04-24T16:48:00Z</time></trkpt><trkpt lat="46.177709087859306" lon="12.879179144229601"><ele>196.0</ele><time>2026-04-24T16:48:02Z</time></trkpt><trkpt lat="46.177613527037515" lon="12.87921163630076"><ele>196.0</ele><time>2026-04-24T16:48:04Z</time></trkpt><trkpt lat="46.177538170635685" lon="12.879255164672252"><ele>196.0</ele><time>2026-04-24T16:48:06Z</time></trkpt><trkpt lat="46.1774403961435" lon="12.879299754829443"><ele>195.83333333333331</ele><time>2026-04-24T16:48:08Z</time></trkpt><trkpt lat="46.17729939534291" lon="12.879302628321117"><ele>195.66666666666666</ele><time>2026-04-24T16:48:10Z</time></trkpt><trkpt lat="46.17721981022781" lon="12.879304751774361"><ele>195.5</ele><time>2026-04-24T16:48:11Z</time></trkpt><trkpt lat="46.17714808155263" lon="12.8793299821584"><ele>195.33333333333331</ele><time>2026-04-24T16:48:12Z</time></trkpt><trkpt lat="46.177080311124094" lon="12.879353160827804"><ele>195.16666666666666</ele><time>2026-04-24T16:48:13Z</time></trkpt><trkpt lat="46.17700649790354" lon="12.879384853118776"><ele>195.0</ele><time>2026-04-24T16:48:14Z</time></trkpt><trkpt lat="46.1769307841514" lon="12.879426788221735"><ele>195.0</ele><time>2026-04-24T16:48:15Z</time></trkpt><trkpt lat="46.176855832789805" lon="12.879462455599997"><ele>195.0</ele><time>2026-04-24T16:48:16Z</time></trkpt><trkpt lat="46.17677824899154" lon="12.879494106679394"><ele>195.0</ele><time>2026-04-24T16:48:17Z</time></trkpt><trkpt lat="46.17668888844253" lon="12.87953029452829"><ele>195.0</ele><time>2026-04-24T16:48:18Z</time></trkpt><trkpt lat="46.176605549071816" lon="12.879556676276897"><ele>195.0</ele><time>2026-04-24T16:48:19Z</time></trkpt><trkpt lat="46.176522107143306" lon="12.879596560751441"><ele>195.0</ele><time>2026-04-24T16:48:20Z</time></trkpt><trkpt lat="46.17643610557778" lon="12.879637017916929"><ele>195.4</ele><time>2026-04-24T16:48:21Z</time></trkpt><trkpt lat="46.176350808862345" lon="12.879668365713274"><ele>195.8</ele><time>2026-04-24T16:48:22Z</time></trkpt><trkpt lat="46.17626862413497" lon="12.879711785915312"><ele>196.2</ele><time>2026-04-24T16:48:23Z</time></trkpt><trkpt lat="46.17618519858634" lon="12.87974844923026"><ele>196.6</ele><time>2026-04-24T16:48:24Z</time></trkpt><trkpt lat="46.17609466139928" lon="12.879795061196527"><ele>197.0</ele><time>2026-04-24T16:48:25Z</time></trkpt><trkpt lat="46.1760081571343" lon="12.87984494038413"><ele>197.00000000000003</ele><time>2026-04-24T16:48:26Z</time></trkpt><trkpt lat="46.17592321560132" lon="12.879871318805852"><ele>197.0</ele><time>2026-04-24T16:48:27Z</time></trkpt><trkpt lat="46.1758426828998" lon="12.879908708956657"><ele>197.0</ele><time>2026-04-24T16:48:28Z</time></trkpt><trkpt lat="46.17575485476852" lon="12.879948689708076"><ele>197.0</ele><time>2026-04-24T16:48:29Z</time></trkpt><trkpt lat="46.175679631076896" lon="12.879990659914577"><ele>197.00000000000003</ele><time>2026-04-24T16:48:30Z</time></trkpt><trkpt lat="46.175599942083835" lon="12.880034331503417"><ele>197.0</ele><time>2026-04-24T16:48:31Z</time></trkpt><trkpt lat="46.175516113909374" lon="12.880066085825746"><ele>196.83333333333334</ele><time>2026-04-24T16:48:32Z</time></trkpt><trkpt lat="46.1754365491433" lon="12.880103697146653"><ele>196.66666666666669</ele><time>2026-04-24T16:48:33Z</time></trkpt><trkpt lat="46.175358892923974" lon="12.88014130001176"><ele>196.5</ele><time>2026-04-24T16:48:34Z</time></trkpt><trkpt lat="46.175284181177155" lon="12.880176216737079"><ele>196.33333333333331</ele><time>2026-04-24T16:48:35Z</time></trkpt><trkpt lat="46.17520432367314" lon="12.880215730864032"><ele>196.16666666666666</ele><time>2026-04-24T16:48:36Z</time></trkpt><trkpt lat="46.17512569635948" lon="12.880250372269238"><ele>196.0</ele><time>2026-04-24T16:48:37Z</time></trkpt><trkpt lat="46.17503860663251" lon="12.880289271919558"><ele>195.99999999999997</ele><time>2026-04-24T16:48:38Z</time></trkpt><trkpt lat="46.1749596006514" lon="12.880322537790498"><ele>196.0</ele><time>2026-04-24T16:48:39Z</time></trkpt><trkpt lat="46.17487809062975" lon="12.880354827031162"><ele>196.0</ele><time>2026-04-24T16:48:40Z</time></trkpt><trkpt lat="46.17480225319662" lon="12.880386842754683"><ele>196.0</ele><time>2026-04-24T16:48:41Z</time></trkpt><trkpt lat="46.17472625385714" lon="12.880416138557784"><ele>195.99999999999997</ele><time>2026-04-24T16:48:42Z</time></trkpt><trkpt lat="46.174647416779834" lon="12.880450197405432"><ele>196.0</ele><time>2026-04-24T16:48:43Z</time></trkpt><trkpt lat="46.174572643343915" lon="12.880498103008332"><ele>195.57142857142858</ele><time>2026-04-24T16:48:44Z</time></trkpt><trkpt lat="46.174493800809486" lon="12.880548550798887"><ele>195.14285714285714</ele><time>2026-04-24T16:48:45Z</time></trkpt><trkpt lat="46.174421854090305" lon="12.880571316324515"><ele>194.71428571428572</ele><time>2026-04-24T16:48:46Z</time></trkpt><trkpt lat="46.17435085176293" lon="12.880603813236373"><ele>194.28571428571428</ele><time>2026-04-24T16:48:47Z</time></trkpt><trkpt lat="46.17428246797892" lon="12.880636887081067"><ele>193.85714285714286</ele><time>2026-04-24T16:48:48Z</time></trkpt><trkpt lat="46.17421951634951" lon="12.88066542386319"><ele>193.42857142857144</ele><time>2026-04-24T16:48:49Z</time></trkpt><trkpt lat="46.1741512679392" lon="12.880697944980119"><ele>193.0</ele><time>2026-04-24T16:48:50Z</time></trkpt><trkpt lat="46.17408245355699" lon="12.880723206339157"><ele>193.14285714285717</ele><time>2026-04-24T16:48:51Z</time></trkpt><trkpt lat="46.174013772813254" lon="12.880761415177892"><ele>193.28571428571428</ele><time>2026-04-24T16:48:52Z</time></trkpt><trkpt lat="46.17394764791578" lon="12.880790800825952"><ele>193.42857142857144</ele><time>2026-04-24T16:48:52.999Z</time></trkpt><trkpt lat="46.17388277140597" lon="12.880816779930537"><ele>193.57142857142858</ele><time>2026-04-24T16:48:53.999Z</time></trkpt><trkpt lat="46.173814250867814" lon="12.880847005229846"><ele>193.71428571428572</ele><time>2026-04-24T16:48:54.999Z</time></trkpt><trkpt lat="46.173740087084454" lon="12.88088675081926"><ele>193.85714285714286</ele><time>2026-04-24T16:48:55.999Z</time></trkpt><trkpt lat="46.17367216683981" lon="12.880912249302442"><ele>194.0</ele><time>2026-04-24T16:48:56.999Z</time></trkpt><trkpt lat="46.17359969881472" lon="12.88094847102078"><ele>194.00000000000003</ele><time>2026-04-24T16:48:57.999Z</time></trkpt><trkpt lat="46.17353946931537" lon="12.880978013288496"><ele>194.0</ele><time>2026-04-24T16:48:58.999Z</time></trkpt><trkpt lat="46.1734693740075" lon="12.881008082437441"><ele>194.0</ele><time>2026-04-24T16:48:59.999Z</time></trkpt><trkpt lat="46.17336897137462" lon="12.881058731337196"><ele>194.0</ele><time>2026-04-24T16:49:01.999Z</time></trkpt><trkpt lat="46.17329754030478" lon="12.881099779506599"><ele>194.00000000000003</ele><time>2026-04-24T16:49:02.999Z</time></trkpt><trkpt lat="46.173235302482375" lon="12.881142419543615"><ele>194.0</ele><time>2026-04-24T16:49:03.999Z</time></trkpt><trkpt lat="46.17316919923253" lon="12.881171907306197"><ele>193.57142857142856</ele><time>2026-04-24T16:49:04.999Z</time></trkpt><trkpt lat="46.173097223016725" lon="12.881213197369705"><ele>193.14285714285717</ele><time>2026-04-24T16:49:05.999Z</time></trkpt><trkpt lat="46.17302400563178" lon="12.881255877676882"><ele>192.71428571428572</ele><time>2026-04-24T16:49:06.999Z</time></trkpt><trkpt lat="46.17295263067675" lon="12.881284101014337"><ele>192.28571428571428</ele><time>2026-04-24T16:49:07.999Z</time></trkpt><trkpt lat="46.17288710486192" lon="12.881316241804674"><ele>191.85714285714283</ele><time>2026-04-24T16:49:08.999Z</time></trkpt><trkpt lat="46.17281678965196" lon="12.881352450225847"><ele>191.42857142857144</ele><time>2026-04-24T16:49:09.999Z</time></trkpt><trkpt lat="46.17275629934792" lon="12.88139557866747"><ele>191.0</ele><time>2026-04-24T16:49:10.999Z</time></trkpt><trkpt lat="46.172705833581816" lon="12.881452073855042"><ele>191.0</ele><time>2026-04-24T16:49:11.999Z</time></trkpt><trkpt lat="46.172654680389364" lon="12.881533429545872"><ele>191.0</ele><time>2026-04-24T16:49:12.999Z</time></trkpt><trkpt lat="46.17261527394957" lon="12.88162492779612"><ele>191.0</ele><time>2026-04-24T16:49:13.999Z</time></trkpt><trkpt lat="46.17257310501082" lon="12.881704066780996"><ele>191.0</ele><time>2026-04-24T16:49:14.999Z</time></trkpt><trkpt lat="46.17253695046326" lon="12.88178873699353"><ele>191.0</ele><time>2026-04-24T16:49:15.999Z</time></trkpt><trkpt lat="46.17249974030653" lon="12.881873916327427"><ele>191.0</ele><time>2026-04-24T16:49:16.999Z</time></trkpt><trkpt lat="46.17245469289255" lon="12.881958241023064"><ele>191.0</ele><time>2026-04-24T16:49:17.999Z</time></trkpt><trkpt lat="46.1724066527432" lon="12.88204005338434"><ele>191.0</ele><time>2026-04-24T16:49:18.999Z</time></trkpt><trkpt lat="46.17235851527823" lon="12.882124235251672"><ele>191.0</ele><time>2026-04-24T16:49:19.999Z</time></trkpt><trkpt lat="46.17232252481892" lon="12.882203516368172"><ele>191.0</ele><time>2026-04-24T16:49:20.999Z</time></trkpt><trkpt lat="46.17228373899848" lon="12.882288106871606"><ele>191.0</ele><time>2026-04-24T16:49:21.999Z</time></trkpt><trkpt lat="46.17220278817036" lon="12.882440663444772"><ele>191.0</ele><time>2026-04-24T16:49:23.999Z</time></trkpt><trkpt lat="46.17214863195625" lon="12.882532113973268"><ele>191.0</ele><time>2026-04-24T16:49:24.999Z</time></trkpt><trkpt lat="46.17210607311388" lon="12.882614969490213"><ele>191.33333333333331</ele><time>2026-04-24T16:49:25.999Z</time></trkpt><trkpt lat="46.17206781968641" lon="12.882687851009711"><ele>191.66666666666666</ele><time>2026-04-24T16:49:26.999Z</time></trkpt><trkpt lat="46.17202554361941" lon="12.882773347876434"><ele>192.0</ele><time>2026-04-24T16:49:28Z</time></trkpt><trkpt lat="46.17197718095222" lon="12.882846581845984"><ele>192.33333333333331</ele><time>2026-04-24T16:49:29Z</time></trkpt><trkpt lat="46.17188414627688" lon="12.882985459279523"><ele>192.66666666666666</ele><time>2026-04-24T16:49:31Z</time></trkpt><trkpt lat="46.17182897450148" lon="12.883049261510052"><ele>193.0</ele><time>2026-04-24T16:49:32Z</time></trkpt><trkpt lat="46.17177540494819" lon="12.883120560319789"><ele>192.99999999999997</ele><time>2026-04-24T16:49:33Z</time></trkpt><trkpt lat="46.17172456103132" lon="12.883184563894666"><ele>193.0</ele><time>2026-04-24T16:49:34Z</time></trkpt><trkpt lat="46.17165617156587" lon="12.883248238034675"><ele>193.0</ele><time>2026-04-24T16:49:35Z</time></trkpt><trkpt lat="46.17159167947026" lon="12.88330389097842"><ele>193.0</ele><time>2026-04-24T16:49:36Z</time></trkpt><trkpt lat="46.171538568375446" lon="12.883355804009192"><ele>192.99999999999997</ele><time>2026-04-24T16:49:37Z</time></trkpt><trkpt lat="46.17143480975656" lon="12.883451204880368"><ele>193.0</ele><time>2026-04-24T16:49:39Z</time></trkpt><trkpt lat="46.17138199031049" lon="12.883507176274335"><ele>192.33333333333331</ele><time>2026-04-24T16:49:40Z</time></trkpt><trkpt lat="46.17126715219934" lon="12.883612534990641"><ele>191.66666666666666</ele><time>2026-04-24T16:49:42Z</time></trkpt><trkpt lat="46.171209092537254" lon="12.883665296247234"><ele>191.0</ele><time>2026-04-24T16:49:43Z</time></trkpt><trkpt lat="46.17115214812511" lon="12.883723002947281"><ele>190.33333333333331</ele><time>2026-04-24T16:49:44Z</time></trkpt><trkpt lat="46.17109144594847" lon="12.88378686428565"><ele>189.66666666666666</ele><time>2026-04-24T16:49:45Z</time></trkpt><trkpt lat="46.171041306196045" lon="12.883857429962042"><ele>189.0</ele><time>2026-04-24T16:49:46Z</time></trkpt><trkpt lat="46.1709880864592" lon="12.88392953309144"><ele>189.0</ele><time>2026-04-24T16:49:47Z</time></trkpt><trkpt lat="46.170929534066595" lon="12.883998438617146"><ele>189.0</ele><time>2026-04-24T16:49:48Z</time></trkpt><trkpt lat="46.170875630634896" lon="12.884065924539927"><ele>189.0</ele><time>2026-04-24T16:49:49Z</time></trkpt><trkpt lat="46.17081630148547" lon="12.884139221576566"><ele>189.0</ele><time>2026-04-24T16:49:50Z</time></trkpt><trkpt lat="46.17076262811895" lon="12.884195813746082"><ele>189.0</ele><time>2026-04-24T16:49:51Z</time></trkpt><trkpt lat="46.17070350785818" lon="12.884267926128388"><ele>189.0</ele><time>2026-04-24T16:49:52Z</time></trkpt><trkpt lat="46.17064198338034" lon="12.884356874734125"><ele>188.83333333333334</ele><time>2026-04-24T16:49:53Z</time></trkpt><trkpt lat="46.17058962519834" lon="12.884433032622912"><ele>188.66666666666666</ele><time>2026-04-24T16:49:54Z</time></trkpt><trkpt lat="46.1705370977208" lon="12.884508992205307"><ele>188.5</ele><time>2026-04-24T16:49:55Z</time></trkpt><trkpt lat="46.17048712645868" lon="12.884583822069207"><ele>188.33333333333331</ele><time>2026-04-24T16:49:56Z</time></trkpt><trkpt lat="46.1704288636944" lon="12.884661582544163"><ele>188.16666666666666</ele><time>2026-04-24T16:49:57Z</time></trkpt><trkpt lat="46.170374697999804" lon="12.884740522639195"><ele>188.0</ele><time>2026-04-24T16:49:58Z</time></trkpt><trkpt lat="46.170319228250804" lon="12.884815152996369"><ele>188.0</ele><time>2026-04-24T16:49:59Z</time></trkpt><trkpt lat="46.17026177680655" lon="12.884878266618987"><ele>188.0</ele><time>2026-04-24T16:50:00Z</time></trkpt><trkpt lat="46.17020177881415" lon="12.884936572007629"><ele>188.0</ele><time>2026-04-24T16:50:01Z</time></trkpt><trkpt lat="46.17014439692704" lon="12.884997859188065"><ele>188.0</ele><time>2026-04-24T16:50:02Z</time></trkpt><trkpt lat="46.17008992966877" lon="12.885061345724399"><ele>188.0</ele><time>2026-04-24T16:50:03Z</time></trkpt><trkpt lat="46.17002561757998" lon="12.885118620507447"><ele>188.0</ele><time>2026-04-24T16:50:04Z</time></trkpt><trkpt lat="46.16996536065943" lon="12.885161993087197"><ele>188.0</ele><time>2026-04-24T16:50:05Z</time></trkpt><trkpt lat="46.16990256496975" lon="12.885205385825754"><ele>188.0</ele><time>2026-04-24T16:50:06Z</time></trkpt><trkpt lat="46.16983848770464" lon="12.885257299151037"><ele>188.0</ele><time>2026-04-24T16:50:07Z</time></trkpt><trkpt lat="46.169772188323996" lon="12.885310971196766"><ele>188.0</ele><time>2026-04-24T16:50:08Z</time></trkpt><trkpt lat="46.169704948289336" lon="12.885371545169804"><ele>188.0</ele><time>2026-04-24T16:50:09Z</time></trkpt><trkpt lat="46.16964028259718" lon="12.88542661683404"><ele>188.0</ele><time>2026-04-24T16:50:10Z</time></trkpt><trkpt lat="46.16957544512995" lon="12.885491129350083"><ele>188.0</ele><time>2026-04-24T16:50:11Z</time></trkpt><trkpt lat="46.169512702275895" lon="12.885549196973072"><ele>188.0</ele><time>2026-04-24T16:50:12Z</time></trkpt><trkpt lat="46.169446877639814" lon="12.885602882178528"><ele>188.0</ele><time>2026-04-24T16:50:13Z</time></trkpt><trkpt lat="46.1693887972448" lon="12.885656731038749"><ele>188.0</ele><time>2026-04-24T16:50:14Z</time></trkpt><trkpt lat="46.1693322024022" lon="12.88571427580577"><ele>188.0</ele><time>2026-04-24T16:50:15Z</time></trkpt><trkpt lat="46.16927533862837" lon="12.885767162204568"><ele>188.0</ele><time>2026-04-24T16:50:16Z</time></trkpt><trkpt lat="46.16921618890228" lon="12.88583154308777"><ele>188.0</ele><time>2026-04-24T16:50:17Z</time></trkpt><trkpt lat="46.16915999407188" lon="12.885891814238121"><ele>188.0</ele><time>2026-04-24T16:50:18Z</time></trkpt><trkpt lat="46.169100180490915" lon="12.885955524390395"><ele>188.0</ele><time>2026-04-24T16:50:19Z</time></trkpt><trkpt lat="46.16904676241482" lon="12.88601264211393"><ele>188.0</ele><time>2026-04-24T16:50:20Z</time></trkpt><trkpt lat="46.16894320841902" lon="12.886125419049261"><ele>188.0</ele><time>2026-04-24T16:50:22Z</time></trkpt><trkpt lat="46.16888533896444" lon="12.88616802395518"><ele>188.0</ele><time>2026-04-24T16:50:23Z</time></trkpt><trkpt lat="46.16883056225083" lon="12.8862291107194"><ele>188.0</ele><time>2026-04-24T16:50:24Z</time></trkpt><trkpt lat="46.16878205471311" lon="12.886304708164946"><ele>188.0</ele><time>2026-04-24T16:50:25Z</time></trkpt><trkpt lat="46.16873848291131" lon="12.886378742712521"><ele>188.0</ele><time>2026-04-24T16:50:26Z</time></trkpt><trkpt lat="46.16868159448124" lon="12.8864552993194"><ele>188.0</ele><time>2026-04-24T16:50:27Z</time></trkpt><trkpt lat="46.168633190973296" lon="12.88652709100042"><ele>188.0</ele><time>2026-04-24T16:50:28Z</time></trkpt><trkpt lat="46.168585183065474" lon="12.88660040212616"><ele>188.0</ele><time>2026-04-24T16:50:29Z</time></trkpt><trkpt lat="46.16853354624733" lon="12.886663593796378"><ele>188.0</ele><time>2026-04-24T16:50:30Z</time></trkpt><trkpt lat="46.168482393571445" lon="12.88673874294694"><ele>188.0</ele><time>2026-04-24T16:50:31Z</time></trkpt><trkpt lat="46.16842357620399" lon="12.886800867930999"><ele>188.0</ele><time>2026-04-24T16:50:32Z</time></trkpt><trkpt lat="46.16836399161648" lon="12.886860485750981"><ele>188.0</ele><time>2026-04-24T16:50:33Z</time></trkpt><trkpt lat="46.168310140878944" lon="12.886924440774031"><ele>188.0</ele><time>2026-04-24T16:50:34Z</time></trkpt><trkpt lat="46.16825675954923" lon="12.886987465430005"><ele>188.0</ele><time>2026-04-24T16:50:35Z</time></trkpt><trkpt lat="46.16819854151471" lon="12.88704255846387"><ele>188.0</ele><time>2026-04-24T16:50:36Z</time></trkpt><trkpt lat="46.16814278031794" lon="12.887115704630098"><ele>188.0</ele><time>2026-04-24T16:50:37Z</time></trkpt><trkpt lat="46.16809527101991" lon="12.887183098750915"><ele>188.0</ele><time>2026-04-24T16:50:38Z</time></trkpt><trkpt lat="46.16805071637844" lon="12.887255496574246"><ele>188.0</ele><time>2026-04-24T16:50:39Z</time></trkpt><trkpt lat="46.16800678595813" lon="12.887323063558766"><ele>188.0</ele><time>2026-04-24T16:50:40Z</time></trkpt><trkpt lat="46.16794463955393" lon="12.88748881702978"><ele>188.0</ele><time>2026-04-24T16:50:42Z</time></trkpt><trkpt lat="46.16791863749036" lon="12.887576745334028"><ele>188.0</ele><time>2026-04-24T16:50:43Z</time></trkpt><trkpt lat="46.167893005850225" lon="12.887668764537121"><ele>188.0</ele><time>2026-04-24T16:50:44Z</time></trkpt><trkpt lat="46.16787021137306" lon="12.88776276641692"><ele>188.0</ele><time>2026-04-24T16:50:45Z</time></trkpt><trkpt lat="46.167846454982" lon="12.88785101560268"><ele>188.0</ele><time>2026-04-24T16:50:46Z</time></trkpt><trkpt lat="46.16779697742049" lon="12.888017639114954"><ele>187.71428571428572</ele><time>2026-04-24T16:50:47.999Z</time></trkpt><trkpt lat="46.16778067519165" lon="12.888106005288085"><ele>187.42857142857142</ele><time>2026-04-24T16:50:48.999Z</time></trkpt><trkpt lat="46.16775360356296" lon="12.888204093166074"><ele>187.14285714285717</ele><time>2026-04-24T16:50:49.999Z</time></trkpt><trkpt lat="46.16773055142526" lon="12.888304047295888"><ele>186.85714285714286</ele><time>2026-04-24T16:50:50.999Z</time></trkpt><trkpt lat="46.16770721667053" lon="12.888391044608495"><ele>186.57142857142858</ele><time>2026-04-24T16:50:51.999Z</time></trkpt><trkpt lat="46.16768589420793" lon="12.888491088560569"><ele>186.2857142857143</ele><time>2026-04-24T16:50:52.999Z</time></trkpt><trkpt lat="46.16765740273234" lon="12.888584479995536"><ele>186.0</ele><time>2026-04-24T16:50:53.999Z</time></trkpt><trkpt lat="46.16763543342198" lon="12.8886728377583"><ele>186.00000000000003</ele><time>2026-04-24T16:50:54.999Z</time></trkpt><trkpt lat="46.16759830896731" lon="12.888765845624864"><ele>186.0</ele><time>2026-04-24T16:50:55.999Z</time></trkpt><trkpt lat="46.16756026405638" lon="12.888847859214572"><ele>186.0</ele><time>2026-04-24T16:50:56.999Z</time></trkpt><trkpt lat="46.16753035312256" lon="12.888938813551658"><ele>186.0</ele><time>2026-04-24T16:50:57.999Z</time></trkpt><trkpt lat="46.16749307515299" lon="12.889024828676046"><ele>186.0</ele><time>2026-04-24T16:50:58.999Z</time></trkpt><trkpt lat="46.16744334315144" lon="12.889113658858394"><ele>186.00000000000003</ele><time>2026-04-24T16:50:59.999Z</time></trkpt><trkpt lat="46.16740076696759" lon="12.889182844235625"><ele>186.0</ele><time>2026-04-24T16:51:00.999Z</time></trkpt><trkpt lat="46.16734267417053" lon="12.889250963904997"><ele>185.8</ele><time>2026-04-24T16:51:01.999Z</time></trkpt><trkpt lat="46.167293252733984" lon="12.889309138492774"><ele>185.60000000000002</ele><time>2026-04-24T16:51:02.999Z</time></trkpt><trkpt lat="46.16719166246329" lon="12.88941778616624"><ele>185.4</ele><time>2026-04-24T16:51:04.999Z</time></trkpt><trkpt lat="46.16710541581537" lon="12.88950360787644"><ele>185.2</ele><time>2026-04-24T16:51:06.999Z</time></trkpt><trkpt lat="46.167093498006324" lon="12.88960084810879"><ele>185.0</ele><time>2026-04-24T16:51:08.999Z</time></trkpt><trkpt lat="46.167089444203185" lon="12.889736077472689"><ele>185.0</ele><time>2026-04-24T16:51:11.999Z</time></trkpt><trkpt lat="46.1670435402233" lon="12.889829506409663"><ele>185.0</ele><time>2026-04-24T16:51:13.999Z</time></trkpt><trkpt lat="46.16699620002728" lon="12.889938801108839"><ele>185.0</ele><time>2026-04-24T16:51:15.999Z</time></trkpt><trkpt lat="46.16694683245713" lon="12.89004180618767"><ele>185.0</ele><time>2026-04-24T16:51:17.999Z</time></trkpt><trkpt lat="46.1669013043313" lon="12.890157820940322"><ele>185.0</ele><time>2026-04-24T16:51:19.999Z</time></trkpt><trkpt lat="46.166848938696795" lon="12.890245849690553"><ele>185.0</ele><time>2026-04-24T16:51:21.999Z</time></trkpt><trkpt lat="46.16681677403631" lon="12.89033689208641"><ele>184.33333333333331</ele><time>2026-04-24T16:51:23.999Z</time></trkpt><trkpt lat="46.16678444563396" lon="12.890425105470491"><ele>183.66666666666666</ele><time>2026-04-24T16:51:24.999Z</time></trkpt><trkpt lat="46.16676435409611" lon="12.890570338915271"><ele>183.0</ele><time>2026-04-24T16:51:26.999Z</time></trkpt><trkpt lat="46.166694565476384" lon="12.890685821936476"><ele>182.33333333333334</ele><time>2026-04-24T16:51:28.999Z</time></trkpt><trkpt lat="46.16665140985852" lon="12.890786909006339"><ele>181.66666666666669</ele><time>2026-04-24T16:51:30.999Z</time></trkpt><trkpt lat="46.16663966677477" lon="12.8908966628837"><ele>181.0</ele><time>2026-04-24T16:51:32.999Z</time></trkpt><trkpt lat="46.166617874582656" lon="12.891040771662952"><ele>181.16666666666669</ele><time>2026-04-24T16:51:35Z</time></trkpt><trkpt lat="46.16658773625452" lon="12.89114472010384"><ele>181.33333333333334</ele><time>2026-04-24T16:51:36Z</time></trkpt><trkpt lat="46.16654582460119" lon="12.891237137683499"><ele>181.5</ele><time>2026-04-24T16:51:37Z</time></trkpt><trkpt lat="46.16648997605388" lon="12.891321676721002"><ele>181.66666666666666</ele><time>2026-04-24T16:51:38Z</time></trkpt><trkpt lat="46.166448007560454" lon="12.891425422448707"><ele>181.83333333333331</ele><time>2026-04-24T16:51:39Z</time></trkpt><trkpt lat="46.1664020108603" lon="12.891535045676875"><ele>182.0</ele><time>2026-04-24T16:51:40Z</time></trkpt><trkpt lat="46.166352559378026" lon="12.891635865214884"><ele>182.0</ele><time>2026-04-24T16:51:41Z</time></trkpt><trkpt lat="46.1662987770492" lon="12.891734150226034"><ele>182.0</ele><time>2026-04-24T16:51:42Z</time></trkpt><trkpt lat="46.166228510229026" lon="12.89181019159197"><ele>182.0</ele><time>2026-04-24T16:51:43Z</time></trkpt><trkpt lat="46.16615004016081" lon="12.891851136626817"><ele>182.0</ele><time>2026-04-24T16:51:44Z</time></trkpt><trkpt lat="46.166073002218155" lon="12.891853430157834"><ele>182.0</ele><time>2026-04-24T16:51:45Z</time></trkpt><trkpt lat="46.16600129722006" lon="12.891888538903466"><ele>182.0</ele><time>2026-04-24T16:51:46Z</time></trkpt><trkpt lat="46.16593407567101" lon="12.89194261116601"><ele>181.57142857142858</ele><time>2026-04-24T16:51:47Z</time></trkpt><trkpt lat="46.1658685174887" lon="12.891967112689914"><ele>181.14285714285714</ele><time>2026-04-24T16:51:48Z</time></trkpt><trkpt lat="46.16580352793369" lon="12.892007899767375"><ele>180.71428571428572</ele><time>2026-04-24T16:51:49Z</time></trkpt><trkpt lat="46.16574175296379" lon="12.89204610311946"><ele>180.28571428571428</ele><time>2026-04-24T16:51:50Z</time></trkpt><trkpt lat="46.16567911462577" lon="12.892075793131768"><ele>179.85714285714286</ele><time>2026-04-24T16:51:51Z</time></trkpt><trkpt lat="46.165616245664644" lon="12.892111087589603"><ele>179.42857142857144</ele><time>2026-04-24T16:51:52Z</time></trkpt><trkpt lat="46.16555066948667" lon="12.89215688520996"><ele>179.0</ele><time>2026-04-24T16:51:53Z</time></trkpt><trkpt lat="46.1654952803406" lon="12.8922045038713"><ele>179.0</ele><time>2026-04-24T16:51:54Z</time></trkpt><trkpt lat="46.16539608779596" lon="12.89229167430983"><ele>179.0</ele><time>2026-04-24T16:51:56Z</time></trkpt><trkpt lat="46.16535728099612" lon="12.892371166164917"><ele>179.0</ele><time>2026-04-24T16:51:57Z</time></trkpt><trkpt lat="46.16531940476572" lon="12.892449221581346"><ele>179.0</ele><time>2026-04-24T16:51:58Z</time></trkpt><trkpt lat="46.16526282094754" lon="12.892516842986597"><ele>179.0</ele><time>2026-04-24T16:51:59Z</time></trkpt><trkpt lat="46.16515970163075" lon="12.892594581690586"><ele>179.0</ele><time>2026-04-24T16:52:01Z</time></trkpt><trkpt lat="46.16504819098813" lon="12.892644308351024"><ele>178.6</ele><time>2026-04-24T16:52:03Z</time></trkpt><trkpt lat="46.16499067473187" lon="12.892704430528095"><ele>178.2</ele><time>2026-04-24T16:52:04Z</time></trkpt><trkpt lat="46.16493648445913" lon="12.892761210596365"><ele>177.79999999999998</ele><time>2026-04-24T16:52:05Z</time></trkpt><trkpt lat="46.16483040672962" lon="12.892860247533417"><ele>177.39999999999998</ele><time>2026-04-24T16:52:07Z</time></trkpt><trkpt lat="46.16472482233447" lon="12.892948510234786"><ele>177.0</ele><time>2026-04-24T16:52:09Z</time></trkpt><trkpt lat="46.16466718831722" lon="12.892999779593852"><ele>177.0</ele><time>2026-04-24T16:52:10Z</time></trkpt><trkpt lat="46.164599995582485" lon="12.89304075137991"><ele>177.0</ele><time>2026-04-24T16:52:11Z</time></trkpt><trkpt lat="46.16453656341942" lon="12.893086312573274"><ele>177.0</ele><time>2026-04-24T16:52:12Z</time></trkpt><trkpt lat="46.16447170168744" lon="12.893108872609547"><ele>177.0</ele><time>2026-04-24T16:52:13Z</time></trkpt><trkpt lat="46.16440836175405" lon="12.893160568728318"><ele>177.0</ele><time>2026-04-24T16:52:14Z</time></trkpt><trkpt lat="46.16434656473227" lon="12.893200605141494"><ele>177.0</ele><time>2026-04-24T16:52:15Z</time></trkpt><trkpt lat="46.16422863725286" lon="12.89328727316162"><ele>177.0</ele><time>2026-04-24T16:52:17Z</time></trkpt><trkpt lat="46.16411732078605" lon="12.893355104833152"><ele>177.0</ele><time>2026-04-24T16:52:19Z</time></trkpt><trkpt lat="46.164056140312226" lon="12.893391354420475"><ele>177.0</ele><time>2026-04-24T16:52:20Z</time></trkpt><trkpt lat="46.16399862637653" lon="12.893428374855581"><ele>177.0</ele><time>2026-04-24T16:52:21Z</time></trkpt><trkpt lat="46.16393534901815" lon="12.893458966806538"><ele>177.0</ele><time>2026-04-24T16:52:22Z</time></trkpt><trkpt lat="46.16382645172134" lon="12.893523664203466"><ele>177.0</ele><time>2026-04-24T16:52:24Z</time></trkpt><trkpt lat="46.16373767060279" lon="12.893545491225089"><ele>176.39999999999998</ele><time>2026-04-24T16:52:26Z</time></trkpt><trkpt lat="46.16365004357935" lon="12.893607014927166"><ele>175.79999999999998</ele><time>2026-04-24T16:52:28Z</time></trkpt><trkpt lat="46.16358507781481" lon="12.893674823736081"><ele>175.2</ele><time>2026-04-24T16:52:30Z</time></trkpt><trkpt lat="46.16356840662475" lon="12.893795475486355"><ele>174.6</ele><time>2026-04-24T16:52:33Z</time></trkpt><trkpt lat="46.16360898287057" lon="12.893922110481624"><ele>174.0</ele><time>2026-04-24T16:52:35Z</time></trkpt><trkpt lat="46.16365066655435" lon="12.894080604299289"><ele>174.0</ele><time>2026-04-24T16:52:37Z</time></trkpt><trkpt lat="46.163685169218574" lon="12.894247492559245"><ele>174.0</ele><time>2026-04-24T16:52:39Z</time></trkpt><trkpt lat="46.16371084876925" lon="12.894333810143118"><ele>174.0</ele><time>2026-04-24T16:52:40Z</time></trkpt><trkpt lat="46.16373873484854" lon="12.894488476902374"><ele>174.0</ele><time>2026-04-24T16:52:42Z</time></trkpt><trkpt lat="46.1637824948496" lon="12.894632591991186"><ele>174.0</ele><time>2026-04-24T16:52:44Z</time></trkpt><trkpt lat="46.16380243130061" lon="12.894719245138727"><ele>173.2</ele><time>2026-04-24T16:52:45Z</time></trkpt><trkpt lat="46.16383469288693" lon="12.894883547509918"><ele>172.39999999999998</ele><time>2026-04-24T16:52:47Z</time></trkpt><trkpt lat="46.163857632210345" lon="12.894973444327668"><ele>171.6</ele><time>2026-04-24T16:52:48Z</time></trkpt><trkpt lat="46.16389891061223" lon="12.895153007079672"><ele>170.8</ele><time>2026-04-24T16:52:50Z</time></trkpt><trkpt lat="46.16391533058107" lon="12.895244397948868"><ele>170.0</ele><time>2026-04-24T16:52:51Z</time></trkpt><trkpt lat="46.163941249109" lon="12.895339482141727"><ele>169.83333333333331</ele><time>2026-04-24T16:52:52Z</time></trkpt><trkpt lat="46.1639679298008" lon="12.895423847113014"><ele>169.66666666666666</ele><time>2026-04-24T16:52:53Z</time></trkpt><trkpt lat="46.16398958146509" lon="12.895510068123185"><ele>169.5</ele><time>2026-04-24T16:52:54Z</time></trkpt><trkpt lat="46.16404031065123" lon="12.895674975503262"><ele>169.33333333333334</ele><time>2026-04-24T16:52:56Z</time></trkpt><trkpt lat="46.16405490734582" lon="12.895771712538687"><ele>169.16666666666669</ele><time>2026-04-24T16:52:57Z</time></trkpt><trkpt lat="46.16409607989556" lon="12.895941525765402"><ele>169.0</ele><time>2026-04-24T16:52:59Z</time></trkpt><trkpt lat="46.164114715514245" lon="12.896029777900916"><ele>169.0</ele><time>2026-04-24T16:53:00Z</time></trkpt><trkpt lat="46.164133569480754" lon="12.896118179895144"><ele>169.0</ele><time>2026-04-24T16:53:01Z</time></trkpt><trkpt lat="46.16415470010484" lon="12.896211232908184"><ele>169.0</ele><time>2026-04-24T16:53:02Z</time></trkpt><trkpt lat="46.16419423224372" lon="12.896380135820303"><ele>169.0</ele><time>2026-04-24T16:53:04Z</time></trkpt><trkpt lat="46.16421831846733" lon="12.896467982557018"><ele>169.0</ele><time>2026-04-24T16:53:05Z</time></trkpt><trkpt lat="46.16425867379373" lon="12.896643564318795"><ele>169.0</ele><time>2026-04-24T16:53:07Z</time></trkpt><trkpt lat="46.164280241189886" lon="12.896732846576825"><ele>169.0</ele><time>2026-04-24T16:53:08Z</time></trkpt><trkpt lat="46.16430103034251" lon="12.89682121672574"><ele>169.0</ele><time>2026-04-24T16:53:09Z</time></trkpt><trkpt lat="46.16432393168455" lon="12.896914932965487"><ele>169.0</ele><time>2026-04-24T16:53:10Z</time></trkpt><trkpt lat="46.16434822946094" lon="12.897013345808158"><ele>169.0</ele><time>2026-04-24T16:53:11Z</time></trkpt><trkpt lat="46.164376222783254" lon="12.897100077367968"><ele>169.0</ele><time>2026-04-24T16:53:12Z</time></trkpt><trkpt lat="46.16440286612997" lon="12.89719447050472"><ele>169.0</ele><time>2026-04-24T16:53:13Z</time></trkpt><trkpt lat="46.16443226722994" lon="12.897294025487914"><ele>169.0</ele><time>2026-04-24T16:53:14Z</time></trkpt><trkpt lat="46.16444940694551" lon="12.897390026038869"><ele>169.0</ele><time>2026-04-24T16:53:15Z</time></trkpt><trkpt lat="46.16446607511333" lon="12.897481265566757"><ele>169.0</ele><time>2026-04-24T16:53:16Z</time></trkpt><trkpt lat="46.1644838403639" lon="12.897585722968437"><ele>169.0</ele><time>2026-04-24T16:53:17Z</time></trkpt><trkpt lat="46.164489096941374" lon="12.897679653645827"><ele>169.0</ele><time>2026-04-24T16:53:18Z</time></trkpt><trkpt lat="46.16449245626785" lon="12.897784390176612"><ele>169.0</ele><time>2026-04-24T16:53:19Z</time></trkpt><trkpt lat="46.16448585811079" lon="12.897887064545106"><ele>169.0</ele><time>2026-04-24T16:53:20Z</time></trkpt><trkpt lat="46.16447181990927" lon="12.897982759484654"><ele>169.0</ele><time>2026-04-24T16:53:21Z</time></trkpt><trkpt lat="46.16445577989454" lon="12.898088420831435"><ele>169.16666666666669</ele><time>2026-04-24T16:53:22Z</time></trkpt><trkpt lat="46.164387534074606" lon="12.89824143707249"><ele>169.33333333333334</ele><time>2026-04-24T16:53:24Z</time></trkpt><trkpt lat="46.164347621188774" lon="12.898327790578808"><ele>169.5</ele><time>2026-04-24T16:53:25Z</time></trkpt><trkpt lat="46.164296960062515" lon="12.898423285113637"><ele>169.66666666666666</ele><time>2026-04-24T16:53:25.999Z</time></trkpt><trkpt lat="46.16425900414226" lon="12.898526028332482"><ele>169.83333333333331</ele><time>2026-04-24T16:53:26.999Z</time></trkpt><trkpt lat="46.1642096305322" lon="12.898601691984432"><ele>170.0</ele><time>2026-04-24T16:53:27.999Z</time></trkpt><trkpt lat="46.16415039129877" lon="12.898661991242147"><ele>170.16666666666666</ele><time>2026-04-24T16:53:28.999Z</time></trkpt><trkpt lat="46.16407294809976" lon="12.898675981947703"><ele>170.33333333333331</ele><time>2026-04-24T16:53:29.999Z</time></trkpt><trkpt lat="46.1640043553518" lon="12.89865260642571"><ele>170.5</ele><time>2026-04-24T16:53:30.999Z</time></trkpt><trkpt lat="46.163926031085914" lon="12.898633382524466"><ele>170.66666666666666</ele><time>2026-04-24T16:53:31.999Z</time></trkpt><trkpt lat="46.163849433065785" lon="12.898622939401145"><ele>170.83333333333334</ele><time>2026-04-24T16:53:32.999Z</time></trkpt><trkpt lat="46.16371898095942" lon="12.89861269221867"><ele>171.0</ele><time>2026-04-24T16:53:34.999Z</time></trkpt><trkpt lat="46.16365307728508" lon="12.898614616868027"><ele>170.7142857142857</ele><time>2026-04-24T16:53:35.999Z</time></trkpt><trkpt lat="46.16358742170914" lon="12.898650439146822"><ele>170.42857142857142</ele><time>2026-04-24T16:53:36.999Z</time></trkpt><trkpt lat="46.16351714499665" lon="12.898692087957725"><ele>170.14285714285714</ele><time>2026-04-24T16:53:37.999Z</time></trkpt><trkpt lat="46.163460081287965" lon="12.898734365577052"><ele>169.85714285714283</ele><time>2026-04-24T16:53:38.999Z</time></trkpt><trkpt lat="46.16340755881004" lon="12.898806698910231"><ele>169.57142857142856</ele><time>2026-04-24T16:53:40Z</time></trkpt><trkpt lat="46.16335281577658" lon="12.898882780271505"><ele>169.28571428571428</ele><time>2026-04-24T16:53:41Z</time></trkpt><trkpt lat="46.16330482135231" lon="12.898960200985663"><ele>169.0</ele><time>2026-04-24T16:53:42Z</time></trkpt><trkpt lat="46.163247285308394" lon="12.899042951892879"><ele>168.85714285714286</ele><time>2026-04-24T16:53:43Z</time></trkpt><trkpt lat="46.1631939810457" lon="12.899120432511364"><ele>168.71428571428572</ele><time>2026-04-24T16:53:44Z</time></trkpt><trkpt lat="46.163134601048135" lon="12.899194108147096"><ele>168.57142857142856</ele><time>2026-04-24T16:53:45Z</time></trkpt><trkpt lat="46.16308834611027" lon="12.899264955760387"><ele>168.42857142857144</ele><time>2026-04-24T16:53:46Z</time></trkpt><trkpt lat="46.16304328140701" lon="12.899343167218507"><ele>168.28571428571428</ele><time>2026-04-24T16:53:47Z</time></trkpt><trkpt lat="46.162991510117465" lon="12.89942532799013"><ele>168.14285714285714</ele><time>2026-04-24T16:53:48Z</time></trkpt><trkpt lat="46.162933933462426" lon="12.89950304757974"><ele>168.0</ele><time>2026-04-24T16:53:49Z</time></trkpt><trkpt lat="46.16287182325203" lon="12.899574415631387"><ele>168.0</ele><time>2026-04-24T16:53:50Z</time></trkpt><trkpt lat="46.162809779319275" lon="12.899640616493231"><ele>168.0</ele><time>2026-04-24T16:53:51Z</time></trkpt><trkpt lat="46.16275417421678" lon="12.899720343024253"><ele>168.0</ele><time>2026-04-24T16:53:52Z</time></trkpt><trkpt lat="46.162697674154" lon="12.899790282148903"><ele>168.0</ele><time>2026-04-24T16:53:53Z</time></trkpt><trkpt lat="46.16263690162666" lon="12.899858355799413"><ele>168.0</ele><time>2026-04-24T16:53:54Z</time></trkpt><trkpt lat="46.16257517802642" lon="12.899932661363849"><ele>168.0</ele><time>2026-04-24T16:53:55Z</time></trkpt><trkpt lat="46.16251467900167" lon="12.900000603910554"><ele>168.0</ele><time>2026-04-24T16:53:56Z</time></trkpt><trkpt lat="46.162460292903496" lon="12.900065777823716"><ele>168.0</ele><time>2026-04-24T16:53:57Z</time></trkpt><trkpt lat="46.16241043452223" lon="12.900123110536548"><ele>168.0</ele><time>2026-04-24T16:53:58Z</time></trkpt><trkpt lat="46.16235266735013" lon="12.9001809312318"><ele>168.0</ele><time>2026-04-24T16:53:59Z</time></trkpt><trkpt lat="46.16230027898015" lon="12.900251084462033"><ele>168.0</ele><time>2026-04-24T16:54:00Z</time></trkpt><trkpt lat="46.16224591692505" lon="12.900317989842698"><ele>168.0</ele><time>2026-04-24T16:54:01Z</time></trkpt><trkpt lat="46.16218435384553" lon="12.900385061223561"><ele>168.0</ele><time>2026-04-24T16:54:02Z</time></trkpt><trkpt lat="46.162126876806916" lon="12.900448925342555"><ele>167.83333333333334</ele><time>2026-04-24T16:54:03Z</time></trkpt><trkpt lat="46.16206065891785" lon="12.900519816743127"><ele>167.66666666666666</ele><time>2026-04-24T16:54:04Z</time></trkpt><trkpt lat="46.162001064950005" lon="12.900594251220133"><ele>167.5</ele><time>2026-04-24T16:54:05Z</time></trkpt><trkpt lat="46.161940346229606" lon="12.900663114242585"><ele>167.33333333333331</ele><time>2026-04-24T16:54:06Z</time></trkpt><trkpt lat="46.161879562420545" lon="12.900731525421968"><ele>167.16666666666666</ele><time>2026-04-24T16:54:07Z</time></trkpt><trkpt lat="46.16183046910829" lon="12.900796247167268"><ele>167.0</ele><time>2026-04-24T16:54:08Z</time></trkpt><trkpt lat="46.16177485539068" lon="12.90086552917124"><ele>167.0</ele><time>2026-04-24T16:54:09Z</time></trkpt><trkpt lat="46.16171795348936" lon="12.900927826124263"><ele>167.0</ele><time>2026-04-24T16:54:10Z</time></trkpt><trkpt lat="46.161661422616916" lon="12.900987783006373"><ele>167.0</ele><time>2026-04-24T16:54:11Z</time></trkpt><trkpt lat="46.161604065727424" lon="12.901050876427824"><ele>167.0</ele><time>2026-04-24T16:54:12Z</time></trkpt><trkpt lat="46.16154898980571" lon="12.901111304005623"><ele>167.0</ele><time>2026-04-24T16:54:13Z</time></trkpt><trkpt lat="46.16149398477235" lon="12.90116426508937"><ele>167.0</ele><time>2026-04-24T16:54:14Z</time></trkpt><trkpt lat="46.16143698712964" lon="12.901230654752148"><ele>167.0</ele><time>2026-04-24T16:54:15Z</time></trkpt><trkpt lat="46.161378846608095" lon="12.901295406522177"><ele>166.83333333333331</ele><time>2026-04-24T16:54:16Z</time></trkpt><trkpt lat="46.16133088791638" lon="12.901354577138832"><ele>166.66666666666666</ele><time>2026-04-24T16:54:17Z</time></trkpt><trkpt lat="46.16127412574268" lon="12.901417822166747"><ele>166.5</ele><time>2026-04-24T16:54:18Z</time></trkpt><trkpt lat="46.16122209579846" lon="12.901476860297846"><ele>166.33333333333334</ele><time>2026-04-24T16:54:19Z</time></trkpt><trkpt lat="46.161173731426906" lon="12.901542636108623"><ele>166.16666666666669</ele><time>2026-04-24T16:54:20Z</time></trkpt><trkpt lat="46.161066157276906" lon="12.901655113599823"><ele>166.0</ele><time>2026-04-24T16:54:22Z</time></trkpt><trkpt lat="46.16102000164571" lon="12.901721782748057"><ele>166.0</ele><time>2026-04-24T16:54:23Z</time></trkpt><trkpt lat="46.16096813354897" lon="12.90177825535039"><ele>166.0</ele><time>2026-04-24T16:54:24Z</time></trkpt><trkpt lat="46.16091575393002" lon="12.90183506518002"><ele>166.0</ele><time>2026-04-24T16:54:25Z</time></trkpt><trkpt lat="46.160862569762905" lon="12.901892810929604"><ele>166.0</ele><time>2026-04-24T16:54:26Z</time></trkpt><trkpt lat="46.160807630140674" lon="12.901942580872179"><ele>166.0</ele><time>2026-04-24T16:54:27Z</time></trkpt><trkpt lat="46.16075256969257" lon="12.901997018134734"><ele>166.0</ele><time>2026-04-24T16:54:28Z</time></trkpt><trkpt lat="46.160692001145314" lon="12.90204677169534"><ele>166.0</ele><time>2026-04-24T16:54:29Z</time></trkpt><trkpt lat="46.16063506539022" lon="12.902096350394759"><ele>165.83333333333334</ele><time>2026-04-24T16:54:30Z</time></trkpt><trkpt lat="46.16057398729735" lon="12.902144053470062"><ele>165.66666666666669</ele><time>2026-04-24T16:54:31Z</time></trkpt><trkpt lat="46.16051819683526" lon="12.902199629954668"><ele>165.5</ele><time>2026-04-24T16:54:32Z</time></trkpt><trkpt lat="46.160460694821715" lon="12.902250305224108"><ele>165.33333333333334</ele><time>2026-04-24T16:54:33Z</time></trkpt><trkpt lat="46.16039818274625" lon="12.902297976665357"><ele>165.16666666666666</ele><time>2026-04-24T16:54:34Z</time></trkpt><trkpt lat="46.160337541495245" lon="12.90234515807673"><ele>165.0</ele><time>2026-04-24T16:54:35Z</time></trkpt><trkpt lat="46.16022835995335" lon="12.902419466439309"><ele>165.0</ele><time>2026-04-24T16:54:37Z</time></trkpt><trkpt lat="46.16017120621526" lon="12.902459190941057"><ele>165.0</ele><time>2026-04-24T16:54:38Z</time></trkpt><trkpt lat="46.160109586808375" lon="12.902503084326952"><ele>165.0</ele><time>2026-04-24T16:54:39Z</time></trkpt><trkpt lat="46.15999922812939" lon="12.902583695078201"><ele>165.0</ele><time>2026-04-24T16:54:41Z</time></trkpt><trkpt lat="46.1598836509005" lon="12.902653783525132"><ele>165.0</ele><time>2026-04-24T16:54:43Z</time></trkpt><trkpt lat="46.15982162849076" lon="12.902688266831747"><ele>165.0</ele><time>2026-04-24T16:54:44Z</time></trkpt><trkpt lat="46.15976075230935" lon="12.902724202420004"><ele>165.33333333333334</ele><time>2026-04-24T16:54:45Z</time></trkpt><trkpt lat="46.15969525484292" lon="12.902752504787703"><ele>165.66666666666666</ele><time>2026-04-24T16:54:46Z</time></trkpt><trkpt lat="46.15958650966087" lon="12.902810529491429"><ele>166.0</ele><time>2026-04-24T16:54:48Z</time></trkpt><trkpt lat="46.15952041684474" lon="12.902841363342002"><ele>166.33333333333331</ele><time>2026-04-24T16:54:49Z</time></trkpt><trkpt lat="46.159456584082676" lon="12.902865572284643"><ele>166.66666666666666</ele><time>2026-04-24T16:54:50Z</time></trkpt><trkpt lat="46.15939243495286" lon="12.902902432426663"><ele>167.0</ele><time>2026-04-24T16:54:51Z</time></trkpt><trkpt lat="46.15933212507336" lon="12.902933773178617"><ele>167.0</ele><time>2026-04-24T16:54:52Z</time></trkpt><trkpt lat="46.15926684792721" lon="12.902963215610512"><ele>167.0</ele><time>2026-04-24T16:54:53Z</time></trkpt><trkpt lat="46.15913040227478" lon="12.903022464731215"><ele>167.0</ele><time>2026-04-24T16:54:55Z</time></trkpt><trkpt lat="46.15906520293064" lon="12.903032994991174"><ele>167.0</ele><time>2026-04-24T16:54:56Z</time></trkpt><trkpt lat="46.158994197513564" lon="12.903053527820807"><ele>167.0</ele><time>2026-04-24T16:54:57Z</time></trkpt><trkpt lat="46.15893009735786" lon="12.90306272466754"><ele>167.0</ele><time>2026-04-24T16:54:58Z</time></trkpt><trkpt lat="46.158862962268735" lon="12.903064089657239"><ele>167.0</ele><time>2026-04-24T16:54:59Z</time></trkpt><trkpt lat="46.15872993632371" lon="12.903078704265932"><ele>167.0</ele><time>2026-04-24T16:55:01Z</time></trkpt><trkpt lat="46.158661785224524" lon="12.903091158379588"><ele>167.0</ele><time>2026-04-24T16:55:02Z</time></trkpt><trkpt lat="46.158590321116975" lon="12.903104407706877"><ele>167.0</ele><time>2026-04-24T16:55:03Z</time></trkpt><trkpt lat="46.15852083019385" lon="12.903111196331277"><ele>167.0</ele><time>2026-04-24T16:55:04Z</time></trkpt><trkpt lat="46.15845429604658" lon="12.90312960494868"><ele>167.0</ele><time>2026-04-24T16:55:05Z</time></trkpt><trkpt lat="46.158380167021306" lon="12.903140513963223"><ele>167.0</ele><time>2026-04-24T16:55:06Z</time></trkpt><trkpt lat="46.15831470310278" lon="12.903156530295735"><ele>167.0</ele><time>2026-04-24T16:55:07Z</time></trkpt><trkpt lat="46.158252665339376" lon="12.90317630691315"><ele>167.0</ele><time>2026-04-24T16:55:08Z</time></trkpt><trkpt lat="46.15818978288774" lon="12.903191171925888"><ele>167.0</ele><time>2026-04-24T16:55:09Z</time></trkpt><trkpt lat="46.15806669402713" lon="12.903232826023741"><ele>167.0</ele><time>2026-04-24T16:55:11Z</time></trkpt><trkpt lat="46.15793901472431" lon="12.90326517875961"><ele>166.57142857142856</ele><time>2026-04-24T16:55:13Z</time></trkpt><trkpt lat="46.157827894459075" lon="12.903309291031446"><ele>166.14285714285714</ele><time>2026-04-24T16:55:15Z</time></trkpt><trkpt lat="46.157761021744484" lon="12.903334526030228"><ele>165.71428571428572</ele><time>2026-04-24T16:55:16Z</time></trkpt><trkpt lat="46.15769855736642" lon="12.90334941436238"><ele>165.28571428571428</ele><time>2026-04-24T16:55:17Z</time></trkpt><trkpt lat="46.15763570680302" lon="12.903375712628897"><ele>164.85714285714286</ele><time>2026-04-24T16:55:18Z</time></trkpt><trkpt lat="46.157571633895394" lon="12.903401670966435"><ele>164.42857142857142</ele><time>2026-04-24T16:55:18.999Z</time></trkpt><trkpt lat="46.157505966009616" lon="12.903426909643139"><ele>164.0</ele><time>2026-04-24T16:55:19.999Z</time></trkpt><trkpt lat="46.15744162707765" lon="12.903443325413278"><ele>164.0</ele><time>2026-04-24T16:55:20.999Z</time></trkpt><trkpt lat="46.15733112744542" lon="12.903470561817404"><ele>164.0</ele><time>2026-04-24T16:55:22.999Z</time></trkpt><trkpt lat="46.15721066536947" lon="12.90351917631431"><ele>164.0</ele><time>2026-04-24T16:55:24.999Z</time></trkpt><trkpt lat="46.15709538602209" lon="12.9035641658505"><ele>164.0</ele><time>2026-04-24T16:55:26.999Z</time></trkpt><trkpt lat="46.156964720246165" lon="12.903610945025463"><ele>164.0</ele><time>2026-04-24T16:55:28.999Z</time></trkpt><trkpt lat="46.156899071398215" lon="12.90363565600969"><ele>164.0</ele><time>2026-04-24T16:55:29.999Z</time></trkpt><trkpt lat="46.156831139633454" lon="12.903668946649946"><ele>164.0</ele><time>2026-04-24T16:55:30.999Z</time></trkpt><trkpt lat="46.156767191511435" lon="12.903695629423037"><ele>164.0</ele><time>2026-04-24T16:55:31.999Z</time></trkpt><trkpt lat="46.1566976200287" lon="12.903716566758415"><ele>164.0</ele><time>2026-04-24T16:55:32.999Z</time></trkpt><trkpt lat="46.15657453838889" lon="12.903767871332166"><ele>164.0</ele><time>2026-04-24T16:55:34.999Z</time></trkpt><trkpt lat="46.156510923383344" lon="12.903793882133753"><ele>164.0</ele><time>2026-04-24T16:55:35.999Z</time></trkpt><trkpt lat="46.15639464459087" lon="12.90385401565213"><ele>164.0</ele><time>2026-04-24T16:55:37.999Z</time></trkpt><trkpt lat="46.1563311311267" lon="12.903879636082399"><ele>164.0</ele><time>2026-04-24T16:55:38.999Z</time></trkpt><trkpt lat="46.156260182045216" lon="12.903906745060473"><ele>164.0</ele><time>2026-04-24T16:55:39.999Z</time></trkpt><trkpt lat="46.15619964433908" lon="12.903932208434338"><ele>164.0</ele><time>2026-04-24T16:55:40.999Z</time></trkpt><trkpt lat="46.15614030709451" lon="12.903968066875716"><ele>164.0</ele><time>2026-04-24T16:55:41.999Z</time></trkpt><trkpt lat="46.15607590457702" lon="12.903991915236594"><ele>164.0</ele><time>2026-04-24T16:55:42.999Z</time></trkpt><trkpt lat="46.156013380993826" lon="12.904023092049062"><ele>164.0</ele><time>2026-04-24T16:55:43.999Z</time></trkpt><trkpt lat="46.15594856835783" lon="12.904055578980836"><ele>164.0</ele><time>2026-04-24T16:55:44.999Z</time></trkpt><trkpt lat="46.15588475828829" lon="12.904091016273393"><ele>164.0</ele><time>2026-04-24T16:55:46Z</time></trkpt><trkpt lat="46.15582338567821" lon="12.90412010635741"><ele>164.0</ele><time>2026-04-24T16:55:47Z</time></trkpt><trkpt lat="46.15575833541635" lon="12.904150709044808"><ele>164.0</ele><time>2026-04-24T16:55:48Z</time></trkpt><trkpt lat="46.15563020826295" lon="12.904195106775964"><ele>164.0</ele><time>2026-04-24T16:55:50Z</time></trkpt><trkpt lat="46.15551103089095" lon="12.904255808191591"><ele>164.0</ele><time>2026-04-24T16:55:52Z</time></trkpt><trkpt lat="46.1554461662417" lon="12.904292624916202"><ele>164.0</ele><time>2026-04-24T16:55:53Z</time></trkpt><trkpt lat="46.15537056481382" lon="12.904329175024916"><ele>164.0</ele><time>2026-04-24T16:55:54Z</time></trkpt><trkpt lat="46.15530434551954" lon="12.904368708950464"><ele>164.0</ele><time>2026-04-24T16:55:55Z</time></trkpt><trkpt lat="46.155236493676675" lon="12.904392553917676"><ele>164.0</ele><time>2026-04-24T16:55:56Z</time></trkpt><trkpt lat="46.15517250659454" lon="12.90442073172521"><ele>163.99999999999997</ele><time>2026-04-24T16:55:57Z</time></trkpt><trkpt lat="46.15510765061748" lon="12.904455055932829"><ele>164.0</ele><time>2026-04-24T16:55:58Z</time></trkpt><trkpt lat="46.155046998567364" lon="12.904485503768413"><ele>164.0</ele><time>2026-04-24T16:55:59Z</time></trkpt><trkpt lat="46.154977536483955" lon="12.904519441916865"><ele>164.0</ele><time>2026-04-24T16:56:00Z</time></trkpt><trkpt lat="46.154916816628024" lon="12.904545745506159"><ele>164.0</ele><time>2026-04-24T16:56:01Z</time></trkpt><trkpt lat="46.15485317975728" lon="12.904574247607929"><ele>163.99999999999997</ele><time>2026-04-24T16:56:02Z</time></trkpt><trkpt lat="46.15479311117417" lon="12.904603830686082"><ele>164.0</ele><time>2026-04-24T16:56:03Z</time></trkpt><trkpt lat="46.15473310415281" lon="12.904635564363474"><ele>163.66666666666666</ele><time>2026-04-24T16:56:04Z</time></trkpt><trkpt lat="46.15466815230889" lon="12.904668475251352"><ele>163.33333333333331</ele><time>2026-04-24T16:56:05Z</time></trkpt><trkpt lat="46.15459893959008" lon="12.90470322152303"><ele>163.0</ele><time>2026-04-24T16:56:06Z</time></trkpt><trkpt lat="46.15453230391147" lon="12.904743467769496"><ele>162.66666666666666</ele><time>2026-04-24T16:56:07Z</time></trkpt><trkpt lat="46.1544713158536" lon="12.90477143123184"><ele>162.33333333333334</ele><time>2026-04-24T16:56:08Z</time></trkpt><trkpt lat="46.154407890183535" lon="12.904798074194305"><ele>162.0</ele><time>2026-04-24T16:56:09Z</time></trkpt><trkpt lat="46.154283833980614" lon="12.90485008885039"><ele>162.0</ele><time>2026-04-24T16:56:11Z</time></trkpt><trkpt lat="46.15416756361238" lon="12.904911040867784"><ele>162.0</ele><time>2026-04-24T16:56:13Z</time></trkpt><trkpt lat="46.154041556776924" lon="12.904971846891772"><ele>162.0</ele><time>2026-04-24T16:56:15Z</time></trkpt><trkpt lat="46.15392020273269" lon="12.905043120392762"><ele>162.0</ele><time>2026-04-24T16:56:17Z</time></trkpt><trkpt lat="46.153816702207045" lon="12.905086781617433"><ele>161.4</ele><time>2026-04-24T16:56:19Z</time></trkpt><trkpt lat="46.15375286076378" lon="12.90511972394836"><ele>160.79999999999998</ele><time>2026-04-24T16:56:20Z</time></trkpt><trkpt lat="46.153639956909295" lon="12.90516901855304"><ele>160.2</ele><time>2026-04-24T16:56:22Z</time></trkpt><trkpt lat="46.15352211413713" lon="12.90522370609784"><ele>159.6</ele><time>2026-04-24T16:56:24Z</time></trkpt><trkpt lat="46.15341315345039" lon="12.905270722373771"><ele>159.0</ele><time>2026-04-24T16:56:26Z</time></trkpt><trkpt lat="46.15329609959656" lon="12.905335572231897"><ele>159.0</ele><time>2026-04-24T16:56:28Z</time></trkpt><trkpt lat="46.153233861119816" lon="12.90536878533852"><ele>159.0</ele><time>2026-04-24T16:56:29Z</time></trkpt><trkpt lat="46.15311386522549" lon="12.905417178722802"><ele>159.0</ele><time>2026-04-24T16:56:31Z</time></trkpt><trkpt lat="46.153047852047855" lon="12.905452807330487"><ele>159.0</ele><time>2026-04-24T16:56:32Z</time></trkpt><trkpt lat="46.15298127134851" lon="12.90548966589739"><ele>159.0</ele><time>2026-04-24T16:56:33Z</time></trkpt><trkpt lat="46.152867696191045" lon="12.9055444548338"><ele>159.0</ele><time>2026-04-24T16:56:35Z</time></trkpt><trkpt lat="46.15280296635762" lon="12.905577189242404"><ele>159.0</ele><time>2026-04-24T16:56:36Z</time></trkpt><trkpt lat="46.152679557117814" lon="12.905629325173848"><ele>159.0</ele><time>2026-04-24T16:56:38Z</time></trkpt><trkpt lat="46.15261246344714" lon="12.905667782567301"><ele>159.0</ele><time>2026-04-24T16:56:39Z</time></trkpt><trkpt lat="46.152497147273195" lon="12.90571951021604"><ele>159.0</ele><time>2026-04-24T16:56:41Z</time></trkpt><trkpt lat="46.15238739440006" lon="12.905772106047339"><ele>158.75</ele><time>2026-04-24T16:56:43Z</time></trkpt><trkpt lat="46.15227324679157" lon="12.905818864963466"><ele>158.5</ele><time>2026-04-24T16:56:45Z</time></trkpt><trkpt lat="46.152163638010215" lon="12.905857989574848"><ele>158.25</ele><time>2026-04-24T16:56:47Z</time></trkpt><trkpt lat="46.152051719589366" lon="12.905903923130866"><ele>158.0</ele><time>2026-04-24T16:56:49Z</time></trkpt><trkpt lat="46.151935133458124" lon="12.905937843920931"><ele>158.0</ele><time>2026-04-24T16:56:51Z</time></trkpt><trkpt lat="46.15181133543951" lon="12.905983022297363"><ele>158.0</ele><time>2026-04-24T16:56:53Z</time></trkpt><trkpt lat="46.151745012330444" lon="12.906006300882655"><ele>158.0</ele><time>2026-04-24T16:56:54Z</time></trkpt><trkpt lat="46.151680590089505" lon="12.906027710838746"><ele>158.0</ele><time>2026-04-24T16:56:55Z</time></trkpt><trkpt lat="46.15156434492111" lon="12.906068502088697"><ele>158.0</ele><time>2026-04-24T16:56:57Z</time></trkpt><trkpt lat="46.15144399265278" lon="12.906111137496252"><ele>158.0</ele><time>2026-04-24T16:56:59Z</time></trkpt><trkpt lat="46.15132668229767" lon="12.90615193953657"><ele>158.0</ele><time>2026-04-24T16:57:01Z</time></trkpt><trkpt lat="46.15120770390486" lon="12.906211822106227"><ele>158.0</ele><time>2026-04-24T16:57:03Z</time></trkpt><trkpt lat="46.15113958782134" lon="12.90623514443058"><ele>158.0</ele><time>2026-04-24T16:57:04Z</time></trkpt><trkpt lat="46.151016327798736" lon="12.906275204258284"><ele>158.0</ele><time>2026-04-24T16:57:06Z</time></trkpt><trkpt lat="46.150946653980334" lon="12.906303462294382"><ele>158.0</ele><time>2026-04-24T16:57:07Z</time></trkpt><trkpt lat="46.1508732875669" lon="12.906323169183983"><ele>158.0</ele><time>2026-04-24T16:57:08Z</time></trkpt><trkpt lat="46.150762043370364" lon="12.906378084228347"><ele>158.0</ele><time>2026-04-24T16:57:10Z</time></trkpt><trkpt lat="46.150692992001815" lon="12.906409109028338"><ele>158.0</ele><time>2026-04-24T16:57:11Z</time></trkpt><trkpt lat="46.150564052965976" lon="12.90646454262017"><ele>158.0</ele><time>2026-04-24T16:57:13Z</time></trkpt><trkpt lat="46.15049412886528" lon="12.906493207831357"><ele>158.0</ele><time>2026-04-24T16:57:14Z</time></trkpt><trkpt lat="46.15042467974159" lon="12.906527608475844"><ele>158.0</ele><time>2026-04-24T16:57:15Z</time></trkpt><trkpt lat="46.15036121918687" lon="12.906553901690947"><ele>158.0</ele><time>2026-04-24T16:57:16Z</time></trkpt><trkpt lat="46.150296155339284" lon="12.90658551246487"><ele>158.0</ele><time>2026-04-24T16:57:17Z</time></trkpt><trkpt lat="46.1501783878339" lon="12.906637568644612"><ele>158.0</ele><time>2026-04-24T16:57:19Z</time></trkpt><trkpt lat="46.15011266889785" lon="12.906660573973019"><ele>158.0</ele><time>2026-04-24T16:57:20Z</time></trkpt><trkpt lat="46.15003932294157" lon="12.906688991941687"><ele>158.0</ele><time>2026-04-24T16:57:21Z</time></trkpt><trkpt lat="46.14997562147871" lon="12.906716557213908"><ele>158.0</ele><time>2026-04-24T16:57:22Z</time></trkpt><trkpt lat="46.14985576956152" lon="12.906756976411057"><ele>158.0</ele><time>2026-04-24T16:57:24Z</time></trkpt><trkpt lat="46.14972820258165" lon="12.906810818710786"><ele>158.0</ele><time>2026-04-24T16:57:26Z</time></trkpt><trkpt lat="46.149664160641116" lon="12.906842012649596"><ele>158.0</ele><time>2026-04-24T16:57:27Z</time></trkpt><trkpt lat="46.14960123984157" lon="12.906871962073785"><ele>157.8</ele><time>2026-04-24T16:57:28Z</time></trkpt><trkpt lat="46.149486704782056" lon="12.906904200724773"><ele>157.60000000000002</ele><time>2026-04-24T16:57:30Z</time></trkpt><trkpt lat="46.14937563495889" lon="12.906944499708283"><ele>157.39999999999998</ele><time>2026-04-24T16:57:31.999Z</time></trkpt><trkpt lat="46.14927398371167" lon="12.90698739265403"><ele>157.2</ele><time>2026-04-24T16:57:33.999Z</time></trkpt><trkpt lat="46.1491927342586" lon="12.907028007516862"><ele>157.0</ele><time>2026-04-24T16:57:35.999Z</time></trkpt><trkpt lat="46.14912140119119" lon="12.907063544190832"><ele>157.0</ele><time>2026-04-24T16:57:37.999Z</time></trkpt><trkpt lat="46.14905731220349" lon="12.907104045138949"><ele>157.0</ele><time>2026-04-24T16:57:40.999Z</time></trkpt><trkpt lat="46.14904051722013" lon="12.907243118959911"><ele>157.0</ele><time>2026-04-24T16:57:43.999Z</time></trkpt><trkpt lat="46.14903028620783" lon="12.90738971111918"><ele>157.0</ele><time>2026-04-24T16:57:45.999Z</time></trkpt><trkpt lat="46.14902538134164" lon="12.90754150732818"><ele>157.0</ele><time>2026-04-24T16:57:47.999Z</time></trkpt><trkpt lat="46.14902082550264" lon="12.907682350027862"><ele>156.6</ele><time>2026-04-24T16:57:49.999Z</time></trkpt><trkpt lat="46.14902843401673" lon="12.907824640454384"><ele>156.2</ele><time>2026-04-24T16:57:52Z</time></trkpt><trkpt lat="46.149024994584394" lon="12.907977130699438"><ele>155.8</ele><time>2026-04-24T16:57:54Z</time></trkpt><trkpt lat="46.14903393925576" lon="12.908126871447125"><ele>155.4</ele><time>2026-04-24T16:57:56Z</time></trkpt><trkpt lat="46.14904574438363" lon="12.908301083918357"><ele>155.0</ele><time>2026-04-24T16:57:58Z</time></trkpt><trkpt lat="46.1490532595183" lon="12.908471644843429"><ele>155.5</ele><time>2026-04-24T16:58:00Z</time></trkpt><trkpt lat="46.149041178977605" lon="12.908621353706476"><ele>156.0</ele><time>2026-04-24T16:58:02Z</time></trkpt><trkpt lat="46.14902923633786" lon="12.908763368818692"><ele>156.5</ele><time>2026-04-24T16:58:04Z</time></trkpt><trkpt lat="46.149016989229054" lon="12.908885321003577"><ele>157.0</ele><time>2026-04-24T16:58:06Z</time></trkpt><trkpt lat="46.14902473517628" lon="12.908980205318105"><ele>157.5</ele><time>2026-04-24T16:58:08Z</time></trkpt><trkpt lat="46.149068460514776" lon="12.909059379516071"><ele>158.0</ele><time>2026-04-24T16:58:10Z</time></trkpt><trkpt lat="46.149130194951034" lon="12.909128620664305"><ele>159.0</ele><time>2026-04-24T16:58:12Z</time></trkpt><trkpt lat="46.14913763677196" lon="12.909242518776319"><ele>160.0</ele><time>2026-04-24T16:58:15Z</time></trkpt><trkpt lat="46.14913002764712" lon="12.909340265797276"><ele>161.0</ele><time>2026-04-24T16:58:17Z</time></trkpt><trkpt lat="46.14912987786836" lon="12.909489424286374"><ele>162.0</ele><time>2026-04-24T16:58:20Z</time></trkpt><trkpt lat="46.149125071468276" lon="12.909608376200842"><ele>163.0</ele><time>2026-04-24T16:58:22Z</time></trkpt><trkpt lat="46.149108328898755" lon="12.90971614254753"><ele>164.0</ele><time>2026-04-24T16:58:24Z</time></trkpt><trkpt lat="46.14911679931438" lon="12.909859924849316"><ele>164.0</ele><time>2026-04-24T16:58:26Z</time></trkpt><trkpt lat="46.14913008337148" lon="12.9100161540605"><ele>164.0</ele><time>2026-04-24T16:58:28Z</time></trkpt><trkpt lat="46.14912867421732" lon="12.910147553276943"><ele>164.0</ele><time>2026-04-24T16:58:30Z</time></trkpt><trkpt lat="46.14911144920675" lon="12.910260311819473"><ele>164.0</ele><time>2026-04-24T16:58:32Z</time></trkpt><trkpt lat="46.149116481185835" lon="12.910361477338634"><ele>164.0</ele><time>2026-04-24T16:58:34Z</time></trkpt><trkpt lat="46.1491134437217" lon="12.910476933804302"><ele>164.0</ele><time>2026-04-24T16:58:36Z</time></trkpt><trkpt lat="46.14912136849616" lon="12.910611609292209"><ele>164.0</ele><time>2026-04-24T16:58:38Z</time></trkpt><trkpt lat="46.14911122256385" lon="12.910759707516167"><ele>164.0</ele><time>2026-04-24T16:58:40Z</time></trkpt><trkpt lat="46.14911341351989" lon="12.910881385938678"><ele>164.0</ele><time>2026-04-24T16:58:42Z</time></trkpt><trkpt lat="46.149117929082806" lon="12.911022787766576"><ele>164.0</ele><time>2026-04-24T16:58:44Z</time></trkpt><trkpt lat="46.1491203290371" lon="12.911155174530258"><ele>164.0</ele><time>2026-04-24T16:58:46Z</time></trkpt><trkpt lat="46.14912050112337" lon="12.911312572519636"><ele>163.79999999999998</ele><time>2026-04-24T16:58:48Z</time></trkpt><trkpt lat="46.149125286101" lon="12.911473028731507"><ele>163.6</ele><time>2026-04-24T16:58:50Z</time></trkpt><trkpt lat="46.149126928895214" lon="12.91160974822347"><ele>163.4</ele><time>2026-04-24T16:58:52Z</time></trkpt><trkpt lat="46.149128286686135" lon="12.911734812554178"><ele>163.2</ele><time>2026-04-24T16:58:54Z</time></trkpt><trkpt lat="46.149139787719136" lon="12.91187355186243"><ele>163.0</ele><time>2026-04-24T16:58:56Z</time></trkpt><trkpt lat="46.149155766538826" lon="12.911997271432423"><ele>163.0</ele><time>2026-04-24T16:58:58Z</time></trkpt><trkpt lat="46.14917407026369" lon="12.912130413159982"><ele>163.0</ele><time>2026-04-24T16:59:00Z</time></trkpt><trkpt lat="46.149201476636684" lon="12.91225274740717"><ele>163.0</ele><time>2026-04-24T16:59:02Z</time></trkpt><trkpt lat="46.149213950515794" lon="12.912384170408636"><ele>163.0</ele><time>2026-04-24T16:59:04Z</time></trkpt><trkpt lat="46.14921310488743" lon="12.912516367490605"><ele>163.0</ele><time>2026-04-24T16:59:06Z</time></trkpt><trkpt lat="46.14922531136822" lon="12.91264251769711"><ele>163.0</ele><time>2026-04-24T16:59:08Z</time></trkpt><trkpt lat="46.14923711005084" lon="12.912783155377342"><ele>163.0</ele><time>2026-04-24T16:59:10Z</time></trkpt><trkpt lat="46.149247862076635" lon="12.91293222690404"><ele>163.0</ele><time>2026-04-24T16:59:12Z</time></trkpt><trkpt lat="46.149257054318106" lon="12.913054344358045"><ele>163.0</ele><time>2026-04-24T16:59:14Z</time></trkpt><trkpt lat="46.14926998971779" lon="12.913194887769059"><ele>163.0</ele><time>2026-04-24T16:59:16Z</time></trkpt><trkpt lat="46.14928224794783" lon="12.913339434557907"><ele>161.8</ele><time>2026-04-24T16:59:18Z</time></trkpt><trkpt lat="46.149297783612745" lon="12.913471937845898"><ele>160.60000000000002</ele><time>2026-04-24T16:59:20Z</time></trkpt><trkpt lat="46.149305425731946" lon="12.913600631354461"><ele>159.39999999999998</ele><time>2026-04-24T16:59:21.999Z</time></trkpt><trkpt lat="46.1493191978388" lon="12.913729059868304"><ele>158.2</ele><time>2026-04-24T16:59:23.999Z</time></trkpt><trkpt lat="46.14932676638739" lon="12.913868229270058"><ele>157.0</ele><time>2026-04-24T16:59:25.999Z</time></trkpt><trkpt lat="46.14932789727414" lon="12.914001091860914"><ele>157.0</ele><time>2026-04-24T16:59:27.999Z</time></trkpt><trkpt lat="46.14933968561125" lon="12.914115840713487"><ele>157.0</ele><time>2026-04-24T16:59:29.999Z</time></trkpt><trkpt lat="46.14940161195117" lon="12.914186053471585"><ele>157.0</ele><time>2026-04-24T16:59:31.999Z</time></trkpt><trkpt lat="46.149486576046655" lon="12.914215305709483"><ele>157.0</ele><time>2026-04-24T16:59:33.999Z</time></trkpt><trkpt lat="46.14956745031358" lon="12.914251470915064"><ele>157.0</ele><time>2026-04-24T16:59:35.999Z</time></trkpt><trkpt lat="46.149649962332816" lon="12.914280030998569"><ele>157.0</ele><time>2026-04-24T16:59:37.999Z</time></trkpt><trkpt lat="46.14971668913581" lon="12.914305479858191"><ele>154.83333333333334</ele><time>2026-04-24T16:59:39.999Z</time></trkpt><trkpt lat="46.149796727980714" lon="12.914323025864189"><ele>152.66666666666669</ele><time>2026-04-24T16:59:41.999Z</time></trkpt><trkpt lat="46.14988908342182" lon="12.914336778347216"><ele>150.5</ele><time>2026-04-24T16:59:43.999Z</time></trkpt><trkpt lat="46.14995831761682" lon="12.914399610094735"><ele>148.33333333333334</ele><time>2026-04-24T16:59:46.999Z</time></trkpt><trkpt lat="46.14998232241224" lon="12.914489273552425"><ele>146.16666666666666</ele><time>2026-04-24T16:59:51.999Z</time></trkpt><trkpt lat="46.14997111140644" lon="12.91458949916574"><ele>144.0</ele><time>2026-04-24T17:00:00Z</time></trkpt><trkpt lat="46.14994515385291" lon="12.914682103393677"><ele>144.00000000000003</ele><time>2026-04-24T17:00:07Z</time></trkpt><trkpt lat="46.14998987674185" lon="12.91475122877671"><ele>144.0</ele><time>2026-04-24T17:00:12Z</time></trkpt><trkpt lat="46.1500271557118" lon="12.914834608444862"><ele>144.0</ele><time>2026-04-24T17:00:16Z</time></trkpt><trkpt lat="46.15004358873916" lon="12.914938624705215"><ele>144.0</ele><time>2026-04-24T17:00:21Z</time></trkpt><trkpt lat="46.15002114485448" lon="12.914846836021004"><ele>144.0</ele><time>2026-04-24T17:01:33.999Z</time></trkpt><trkpt lat="46.14998267473897" lon="12.91475772212067"><ele>144.00000000000003</ele><time>2026-04-24T17:01:43.999Z</time></trkpt><trkpt lat="46.14994184482985" lon="12.91467609458734"><ele>144.0</ele><time>2026-04-24T17:01:51.999Z</time></trkpt><trkpt lat="46.14997563733238" lon="12.914596012991481"><ele>144.00000000000003</ele><time>2026-04-24T17:01:59.999Z</time></trkpt><trkpt lat="46.150003089247306" lon="12.914499356941995"><ele>144.0</ele><time>2026-04-24T17:02:31Z</time></trkpt><trkpt lat="46.150011113538646" lon="12.914407827158668"><ele>144.0</ele><time>2026-04-24T17:02:51Z</time></trkpt><trkpt lat="46.14997538473129" lon="12.91431602821053"><ele>144.0</ele><time>2026-04-24T17:02:54Z</time></trkpt><trkpt lat="46.14991131238344" lon="12.914301161177839"><ele>144.0</ele><time>2026-04-24T17:02:56Z</time></trkpt><trkpt lat="46.1498386182715" lon="12.91430761891643"><ele>144.00000000000003</ele><time>2026-04-24T17:02:58Z</time></trkpt><trkpt lat="46.14977305608142" lon="12.914316629782821"><ele>144.0</ele><time>2026-04-24T17:03:00Z</time></trkpt><trkpt lat="46.149700212074734" lon="12.914308752170367"><ele>143.4</ele><time>2026-04-24T17:03:02Z</time></trkpt><trkpt lat="46.14961323981359" lon="12.91427903500522"><ele>142.8</ele><time>2026-04-24T17:03:04Z</time></trkpt><trkpt lat="46.149530831032735" lon="12.914272049809613"><ele>142.2</ele><time>2026-04-24T17:03:06Z</time></trkpt><trkpt lat="46.14944672961174" lon="12.914235569076345"><ele>141.6</ele><time>2026-04-24T17:03:08Z</time></trkpt><trkpt lat="46.14936067219725" lon="12.914184472288394"><ele>141.0</ele><time>2026-04-24T17:03:10Z</time></trkpt><trkpt lat="46.149268774407645" lon="12.914113639741371"><ele>143.4</ele><time>2026-04-24T17:03:12Z</time></trkpt><trkpt lat="46.149170845384745" lon="12.914058265284247"><ele>145.8</ele><time>2026-04-24T17:03:14Z</time></trkpt><trkpt lat="46.149083939712135" lon="12.913982368296114"><ele>148.20000000000002</ele><time>2026-04-24T17:03:16Z</time></trkpt><trkpt lat="46.14899594746376" lon="12.913909869820035"><ele>150.6</ele><time>2026-04-24T17:03:18Z</time></trkpt><trkpt lat="46.14889892574903" lon="12.913842580952734"><ele>153.0</ele><time>2026-04-24T17:03:20Z</time></trkpt><trkpt lat="46.14879479451688" lon="12.91379942246664"><ele>153.0</ele><time>2026-04-24T17:03:22Z</time></trkpt><trkpt lat="46.14868712463295" lon="12.913776853413495"><ele>153.0</ele><time>2026-04-24T17:03:24Z</time></trkpt><trkpt lat="46.148587851276936" lon="12.913777549446854"><ele>153.0</ele><time>2026-04-24T17:03:26Z</time></trkpt><trkpt lat="46.14852320106285" lon="12.91378102148392"><ele>153.0</ele><time>2026-04-24T17:03:27Z</time></trkpt><trkpt lat="46.148413975557006" lon="12.913796674291"><ele>153.0</ele><time>2026-04-24T17:03:29Z</time></trkpt><trkpt lat="46.14832089603908" lon="12.913810182796889"><ele>153.0</ele><time>2026-04-24T17:03:31Z</time></trkpt><trkpt lat="46.14821888941223" lon="12.913818806964091"><ele>153.0</ele><time>2026-04-24T17:03:33Z</time></trkpt><trkpt lat="46.148115554023285" lon="12.913839144132783"><ele>153.0</ele><time>2026-04-24T17:03:34.999Z</time></trkpt><trkpt lat="46.148006828400554" lon="12.91385551836303"><ele>153.0</ele><time>2026-04-24T17:03:36.999Z</time></trkpt><trkpt lat="46.14791039051642" lon="12.913898208284637"><ele>153.0</ele><time>2026-04-24T17:03:38.999Z</time></trkpt><trkpt lat="46.14782386093128" lon="12.91395913408942"><ele>153.20000000000002</ele><time>2026-04-24T17:03:40.999Z</time></trkpt><trkpt lat="46.14772653945553" lon="12.91399318842911"><ele>153.4</ele><time>2026-04-24T17:03:42.999Z</time></trkpt><trkpt lat="46.1476305566768" lon="12.914000526318617"><ele>153.60000000000002</ele><time>2026-04-24T17:03:44.999Z</time></trkpt><trkpt lat="46.147526020460056" lon="12.914039811653716"><ele>153.8</ele><time>2026-04-24T17:03:46.999Z</time></trkpt><trkpt lat="46.14742166759189" lon="12.914006523198474"><ele>154.0</ele><time>2026-04-24T17:03:48.999Z</time></trkpt><trkpt lat="46.14733084118739" lon="12.913915053300773"><ele>153.6</ele><time>2026-04-24T17:03:50.999Z</time></trkpt><trkpt lat="46.14723428005851" lon="12.91383846588285"><ele>153.2</ele><time>2026-04-24T17:03:52.999Z</time></trkpt><trkpt lat="46.147130674848" lon="12.913779925815756"><ele>152.79999999999998</ele><time>2026-04-24T17:03:54.999Z</time></trkpt><trkpt lat="46.14702258209629" lon="12.91385468552428"><ele>152.4</ele><time>2026-04-24T17:03:56.999Z</time></trkpt><trkpt lat="46.14698076706823" lon="12.913925153267257"><ele>152.0</ele><time>2026-04-24T17:03:57.999Z</time></trkpt><trkpt lat="46.146922941746375" lon="12.914057600669238"><ele>152.0</ele><time>2026-04-24T17:03:59.999Z</time></trkpt><trkpt lat="46.146829729764086" lon="12.914135900389445"><ele>152.0</ele><time>2026-04-24T17:04:01.999Z</time></trkpt><trkpt lat="46.14671570904363" lon="12.914137017511752"><ele>152.0</ele><time>2026-04-24T17:04:03.999Z</time></trkpt><trkpt lat="46.14660673890694" lon="12.91413042275763"><ele>152.0</ele><time>2026-04-24T17:04:05.999Z</time></trkpt><trkpt lat="46.146507358960584" lon="12.914139590653201"><ele>152.0</ele><time>2026-04-24T17:04:07.999Z</time></trkpt><trkpt lat="46.14639987882845" lon="12.914135914096669"><ele>152.4</ele><time>2026-04-24T17:04:10Z</time></trkpt><trkpt lat="46.14629628244424" lon="12.914112381966275"><ele>152.79999999999998</ele><time>2026-04-24T17:04:12Z</time></trkpt><trkpt lat="46.146205454706006" lon="12.914105595298071"><ele>153.2</ele><time>2026-04-24T17:04:14Z</time></trkpt><trkpt lat="46.14611289893214" lon="12.914109996689355"><ele>153.6</ele><time>2026-04-24T17:04:16Z</time></trkpt><trkpt lat="46.14603839401983" lon="12.914131070729145"><ele>154.0</ele><time>2026-04-24T17:04:18Z</time></trkpt><trkpt lat="46.14595326119698" lon="12.914135072929689"><ele>154.0</ele><time>2026-04-24T17:04:20Z</time></trkpt><trkpt lat="46.14589305635942" lon="12.91416749469575"><ele>154.0</ele><time>2026-04-24T17:04:22Z</time></trkpt><trkpt lat="46.14581421492677" lon="12.914197092958549"><ele>154.0</ele><time>2026-04-24T17:04:24Z</time></trkpt><trkpt lat="46.14575179890097" lon="12.914239608741793"><ele>154.0</ele><time>2026-04-24T17:04:26Z</time></trkpt><trkpt lat="46.14567823932002" lon="12.914286318981638"><ele>154.0</ele><time>2026-04-24T17:04:28Z</time></trkpt><trkpt lat="46.14558120923555" lon="12.914321425594748"><ele>154.0</ele><time>2026-04-24T17:04:30Z</time></trkpt><trkpt lat="46.1455055622163" lon="12.914303767164627"><ele>153.66666666666669</ele><time>2026-04-24T17:04:32Z</time></trkpt><trkpt lat="46.14542026596865" lon="12.914329471467413"><ele>153.33333333333334</ele><time>2026-04-24T17:04:34Z</time></trkpt><trkpt lat="46.14533896590975" lon="12.914321840199849"><ele>153.0</ele><time>2026-04-24T17:04:36Z</time></trkpt><trkpt lat="46.145249257984105" lon="12.914255959200284"><ele>152.66666666666666</ele><time>2026-04-24T17:04:38Z</time></trkpt><trkpt lat="46.14516331661707" lon="12.914227808616975"><ele>152.33333333333331</ele><time>2026-04-24T17:04:40Z</time></trkpt><trkpt lat="46.145108172799844" lon="12.914180472850266"><ele>152.0</ele><time>2026-04-24T17:04:42Z</time></trkpt><trkpt lat="46.145015742116136" lon="12.914116787436773"><ele>152.0</ele><time>2026-04-24T17:04:44Z</time></trkpt><trkpt lat="46.14491323407387" lon="12.914083579778907"><ele>152.0</ele><time>2026-04-24T17:04:46Z</time></trkpt><trkpt lat="46.14484351123125" lon="12.914052919526364"><ele>152.0</ele><time>2026-04-24T17:04:48Z</time></trkpt><trkpt lat="46.1447708814417" lon="12.914015612540704"><ele>152.0</ele><time>2026-04-24T17:04:50Z</time></trkpt><trkpt lat="46.144702804764265" lon="12.913949611983888"><ele>152.0</ele><time>2026-04-24T17:04:52Z</time></trkpt><trkpt lat="46.1446184529149" lon="12.913910822870283"><ele>152.0</ele><time>2026-04-24T17:04:54Z</time></trkpt><trkpt lat="46.144541131338244" lon="12.913841907136486"><ele>152.33333333333331</ele><time>2026-04-24T17:04:56Z</time></trkpt><trkpt lat="46.14445778094651" lon="12.913749513903179"><ele>152.66666666666666</ele><time>2026-04-24T17:04:58Z</time></trkpt><trkpt lat="46.14438990245832" lon="12.91365105311903"><ele>153.0</ele><time>2026-04-24T17:05:00Z</time></trkpt><trkpt lat="46.14433544261556" lon="12.91354080428638"><ele>153.33333333333334</ele><time>2026-04-24T17:05:02Z</time></trkpt><trkpt lat="46.14430908862389" lon="12.913447087859854"><ele>153.66666666666669</ele><time>2026-04-24T17:05:04Z</time></trkpt><trkpt lat="46.14430002982759" lon="12.913350628151864"><ele>154.0</ele><time>2026-04-24T17:05:06Z</time></trkpt><trkpt lat="46.14428931174876" lon="12.913239526194669"><ele>154.5</ele><time>2026-04-24T17:05:08Z</time></trkpt><trkpt lat="46.144280105386166" lon="12.913124294873066"><ele>155.0</ele><time>2026-04-24T17:05:10Z</time></trkpt><trkpt lat="46.1442766652687" lon="12.91301344408911"><ele>155.5</ele><time>2026-04-24T17:05:12Z</time></trkpt><trkpt lat="46.14427090662162" lon="12.912883305822795"><ele>156.0</ele><time>2026-04-24T17:05:14Z</time></trkpt><trkpt lat="46.14426264211405" lon="12.912749809173896"><ele>156.5</ele><time>2026-04-24T17:05:16Z</time></trkpt><trkpt lat="46.14424904741201" lon="12.91261105253132"><ele>157.0</ele><time>2026-04-24T17:05:18Z</time></trkpt><trkpt lat="46.144224083843966" lon="12.912440897219353"><ele>157.0</ele><time>2026-04-24T17:05:20Z</time></trkpt><trkpt lat="46.144219412977016" lon="12.912284023719897"><ele>157.0</ele><time>2026-04-24T17:05:22Z</time></trkpt><trkpt lat="46.144209435383026" lon="12.912146731765004"><ele>157.0</ele><time>2026-04-24T17:05:24Z</time></trkpt><trkpt lat="46.144193029281226" lon="12.911995022625828"><ele>157.0</ele><time>2026-04-24T17:05:26Z</time></trkpt><trkpt lat="46.14416906549912" lon="12.911813126763894"><ele>157.0</ele><time>2026-04-24T17:05:28Z</time></trkpt><trkpt lat="46.144143266378066" lon="12.911634730446488"><ele>157.0</ele><time>2026-04-24T17:05:30Z</time></trkpt><trkpt lat="46.14412785554331" lon="12.911543231542055"><ele>157.0</ele><time>2026-04-24T17:05:31Z</time></trkpt><trkpt lat="46.14410121249588" lon="12.911363759697876"><ele>157.0</ele><time>2026-04-24T17:05:33Z</time></trkpt><trkpt lat="46.14408857891404" lon="12.911266888960006"><ele>157.0</ele><time>2026-04-24T17:05:34Z</time></trkpt><trkpt lat="46.14406747396092" lon="12.911158248387578"><ele>157.0</ele><time>2026-04-24T17:05:35Z</time></trkpt><trkpt lat="46.14405075389188" lon="12.911068972456917"><ele>157.0</ele><time>2026-04-24T17:05:35.999Z</time></trkpt><trkpt lat="46.14400514804928" lon="12.91092471584232"><ele>156.4</ele><time>2026-04-24T17:05:37.999Z</time></trkpt><trkpt lat="46.14395902304257" lon="12.910805077716374"><ele>155.79999999999998</ele><time>2026-04-24T17:05:39.999Z</time></trkpt><trkpt lat="46.14386421489977" lon="12.91073904638367"><ele>155.2</ele><time>2026-04-24T17:05:41.999Z</time></trkpt><trkpt lat="46.1437751959197" lon="12.910605772550264"><ele>154.6</ele><time>2026-04-24T17:05:43.999Z</time></trkpt><trkpt lat="46.143742105279905" lon="12.910526061172071"><ele>154.0</ele><time>2026-04-24T17:05:44.999Z</time></trkpt><trkpt lat="46.14372740616571" lon="12.91043080815121"><ele>154.0</ele><time>2026-04-24T17:05:45.999Z</time></trkpt><trkpt lat="46.14372262315196" lon="12.910336046640818"><ele>154.0</ele><time>2026-04-24T17:05:46.999Z</time></trkpt><trkpt lat="46.14373013351651" lon="12.91024199469404"><ele>154.0</ele><time>2026-04-24T17:05:47.999Z</time></trkpt><trkpt lat="46.14372951891461" lon="12.910091761681596"><ele>154.0</ele><time>2026-04-24T17:05:49.999Z</time></trkpt><trkpt lat="46.14373109688331" lon="12.90993733531531"><ele>154.0</ele><time>2026-04-24T17:05:51.999Z</time></trkpt><trkpt lat="46.14373930032493" lon="12.909791344007482"><ele>154.0</ele><time>2026-04-24T17:05:53.999Z</time></trkpt><trkpt lat="46.14374267750699" lon="12.909640534941751"><ele>154.0</ele><time>2026-04-24T17:05:55.999Z</time></trkpt><trkpt lat="46.143737469779914" lon="12.909489467093419"><ele>154.0</ele><time>2026-04-24T17:05:57.999Z</time></trkpt><trkpt lat="46.14373953491575" lon="12.909346713889294"><ele>154.0</ele><time>2026-04-24T17:05:59.999Z</time></trkpt><trkpt lat="46.14373802159707" lon="12.909196741534892"><ele>154.0</ele><time>2026-04-24T17:06:01.999Z</time></trkpt><trkpt lat="46.14373127592938" lon="12.909076121416495"><ele>154.0</ele><time>2026-04-24T17:06:03.999Z</time></trkpt><trkpt lat="46.143715192064924" lon="12.908986292374587"><ele>154.0</ele><time>2026-04-24T17:06:06.999Z</time></trkpt><trkpt lat="46.14373144943195" lon="12.908891153323685"><ele>154.0</ele><time>2026-04-24T17:06:09.999Z</time></trkpt><trkpt lat="46.14373146682704" lon="12.908787230662206"><ele>154.0</ele><time>2026-04-24T17:06:11.999Z</time></trkpt><trkpt lat="46.143748256040546" lon="12.908679472485915"><ele>154.0</ele><time>2026-04-24T17:06:13.999Z</time></trkpt><trkpt lat="46.14374043734357" lon="12.908553567288978"><ele>154.0</ele><time>2026-04-24T17:06:16Z</time></trkpt><trkpt lat="46.14375098256124" lon="12.908403586711477"><ele>154.0</ele><time>2026-04-24T17:06:18Z</time></trkpt><trkpt lat="46.14380754268041" lon="12.90831809082502"><ele>154.2</ele><time>2026-04-24T17:06:20Z</time></trkpt><trkpt lat="46.14391249544914" lon="12.908258421913965"><ele>154.4</ele><time>2026-04-24T17:06:22Z</time></trkpt><trkpt lat="46.14401005289202" lon="12.908264898404468"><ele>154.6</ele><time>2026-04-24T17:06:24Z</time></trkpt><trkpt lat="46.14409529947042" lon="12.90824161067864"><ele>154.8</ele><time>2026-04-24T17:06:26Z</time></trkpt><trkpt lat="46.14418687593186" lon="12.908253171789479"><ele>155.0</ele><time>2026-04-24T17:06:28Z</time></trkpt><trkpt lat="46.14429457372753" lon="12.908238798301797"><ele>155.6</ele><time>2026-04-24T17:06:30Z</time></trkpt><trkpt lat="46.14438545255846" lon="12.908221148565946"><ele>156.2</ele><time>2026-04-24T17:06:32Z</time></trkpt><trkpt lat="46.144470642558076" lon="12.908203713334496"><ele>156.8</ele><time>2026-04-24T17:06:34Z</time></trkpt><trkpt lat="46.144561950412964" lon="12.908182409356105"><ele>157.4</ele><time>2026-04-24T17:06:36Z</time></trkpt><trkpt lat="46.1446737986775" lon="12.908184077752741"><ele>158.0</ele><time>2026-04-24T17:06:38Z</time></trkpt><trkpt lat="46.14477062786779" lon="12.9081660096694"><ele>158.0</ele><time>2026-04-24T17:06:40Z</time></trkpt><trkpt lat="46.144868185962885" lon="12.908158955459854"><ele>158.0</ele><time>2026-04-24T17:06:42Z</time></trkpt><trkpt lat="46.14496065332738" lon="12.908148357686144"><ele>158.0</ele><time>2026-04-24T17:06:44Z</time></trkpt><trkpt lat="46.145232534774955" lon="12.908118639158861"><ele>157.6</ele><time>2026-04-24T17:06:49Z</time></trkpt><trkpt lat="46.14539373954123" lon="12.908103935187816"><ele>157.20000000000002</ele><time>2026-04-24T17:06:53Z</time></trkpt><trkpt lat="46.14533533693948" lon="12.908065094119223"><ele>156.8</ele><time>2026-04-24T17:07:10Z</time></trkpt><trkpt lat="46.14525193291506" lon="12.908078291497985"><ele>156.4</ele><time>2026-04-24T17:07:12Z</time></trkpt><trkpt lat="46.14516768961317" lon="12.90808711714883"><ele>156.0</ele><time>2026-04-24T17:07:14Z</time></trkpt><trkpt lat="46.14507962981452" lon="12.90809360569073"><ele>156.0</ele><time>2026-04-24T17:07:16Z</time></trkpt><trkpt lat="46.14498937410522" lon="12.908090703208078"><ele>156.0</ele><time>2026-04-24T17:07:18Z</time></trkpt><trkpt lat="46.14490451270771" lon="12.908087206415866"><ele>156.0</ele><time>2026-04-24T17:07:20Z</time></trkpt><trkpt lat="46.14482054459147" lon="12.908094914126593"><ele>156.0</ele><time>2026-04-24T17:07:22Z</time></trkpt><trkpt lat="46.144737679203274" lon="12.908102074351515"><ele>156.0</ele><time>2026-04-24T17:07:24Z</time></trkpt><trkpt lat="46.14465406898599" lon="12.908098461282762"><ele>156.0</ele><time>2026-04-24T17:07:26Z</time></trkpt><trkpt lat="46.144575251548886" lon="12.908106073010547"><ele>156.4</ele><time>2026-04-24T17:07:28Z</time></trkpt><trkpt lat="46.14449707907405" lon="12.908112725791222"><ele>156.8</ele><time>2026-04-24T17:07:30Z</time></trkpt><trkpt lat="46.14440993856147" lon="12.908136428783719"><ele>157.20000000000002</ele><time>2026-04-24T17:07:32Z</time></trkpt><trkpt lat="46.144317928946315" lon="12.908143985616062"><ele>157.6</ele><time>2026-04-24T17:07:34Z</time></trkpt><trkpt lat="46.144211007594734" lon="12.908158878290271"><ele>158.0</ele><time>2026-04-24T17:07:36Z</time></trkpt><trkpt lat="46.14411881500342" lon="12.90815741010361"><ele>157.5</ele><time>2026-04-24T17:07:38Z</time></trkpt><trkpt lat="46.144029128628105" lon="12.908186487709436"><ele>157.0</ele><time>2026-04-24T17:07:40Z</time></trkpt><trkpt lat="46.143942120735716" lon="12.908187170369784"><ele>156.5</ele><time>2026-04-24T17:07:42Z</time></trkpt><trkpt lat="46.14386079007258" lon="12.908219846891305"><ele>156.0</ele><time>2026-04-24T17:07:43.999Z</time></trkpt><trkpt lat="46.14381233054039" lon="12.908296270889895"><ele>155.5</ele><time>2026-04-24T17:07:45.999Z</time></trkpt><trkpt lat="46.14379548211892" lon="12.908426514647854"><ele>155.0</ele><time>2026-04-24T17:07:47.999Z</time></trkpt><trkpt lat="46.143794315076015" lon="12.908570788575982"><ele>154.8</ele><time>2026-04-24T17:07:49.999Z</time></trkpt><trkpt lat="46.14378774609263" lon="12.908707754869335"><ele>154.6</ele><time>2026-04-24T17:07:51.999Z</time></trkpt><trkpt lat="46.14378337304122" lon="12.90884453812528"><ele>154.4</ele><time>2026-04-24T17:07:53.999Z</time></trkpt><trkpt lat="46.14373670480113" lon="12.908968230183406"><ele>154.2</ele><time>2026-04-24T17:07:55.999Z</time></trkpt><trkpt lat="46.143636238633135" lon="12.909035041975146"><ele>154.0</ele><time>2026-04-24T17:07:57.999Z</time></trkpt><trkpt lat="46.14351917167319" lon="12.909052214469813"><ele>154.0</ele><time>2026-04-24T17:07:59.999Z</time></trkpt><trkpt lat="46.143417833458614" lon="12.90904639515455"><ele>154.0</ele><time>2026-04-24T17:08:01.999Z</time></trkpt><trkpt lat="46.14331450645818" lon="12.909054540514255"><ele>154.0</ele><time>2026-04-24T17:08:03.999Z</time></trkpt><trkpt lat="46.14320718353151" lon="12.909059178493946"><ele>154.0</ele><time>2026-04-24T17:08:05.999Z</time></trkpt><trkpt lat="46.14310504377156" lon="12.909077520152048"><ele>154.0</ele><time>2026-04-24T17:08:07.999Z</time></trkpt><trkpt lat="46.14299541898234" lon="12.909095741258854"><ele>154.2</ele><time>2026-04-24T17:08:09.999Z</time></trkpt><trkpt lat="46.14289825706688" lon="12.909116656507235"><ele>154.4</ele><time>2026-04-24T17:08:11.999Z</time></trkpt><trkpt lat="46.14279232606935" lon="12.909122066539545"><ele>154.6</ele><time>2026-04-24T17:08:13.999Z</time></trkpt><trkpt lat="46.14269456155381" lon="12.909131029696626"><ele>154.8</ele><time>2026-04-24T17:08:15.999Z</time></trkpt><trkpt lat="46.14258950564181" lon="12.909136368623038"><ele>155.0</ele><time>2026-04-24T17:08:17.999Z</time></trkpt><trkpt lat="46.14250012739067" lon="12.909139247284866"><ele>155.0</ele><time>2026-04-24T17:08:19.999Z</time></trkpt><trkpt lat="46.142403092774536" lon="12.909127362077594"><ele>155.0</ele><time>2026-04-24T17:08:21.999Z</time></trkpt><trkpt lat="46.14231617044843" lon="12.909106993884105"><ele>155.0</ele><time>2026-04-24T17:08:23.999Z</time></trkpt><trkpt lat="46.142263271492745" lon="12.909003461926755"><ele>155.0</ele><time>2026-04-24T17:08:25.999Z</time></trkpt><trkpt lat="46.14223525626951" lon="12.908905332354188"><ele>155.0</ele><time>2026-04-24T17:08:27.999Z</time></trkpt><trkpt lat="46.142200369731015" lon="12.908806607543932"><ele>155.0</ele><time>2026-04-24T17:08:29.999Z</time></trkpt><trkpt lat="46.142169662332094" lon="12.908671274325055"><ele>155.0</ele><time>2026-04-24T17:08:32.999Z</time></trkpt><trkpt lat="46.142121945147416" lon="12.90860448656516"><ele>155.0</ele><time>2026-04-24T17:08:35.999Z</time></trkpt><trkpt lat="46.142056374436805" lon="12.908550498081027"><ele>155.0</ele><time>2026-04-24T17:08:37.999Z</time></trkpt><trkpt lat="46.141994521792455" lon="12.908530496623621"><ele>155.0</ele><time>2026-04-24T17:08:38.999Z</time></trkpt><trkpt lat="46.141884194829196" lon="12.908561919549909"><ele>155.0</ele><time>2026-04-24T17:08:40.999Z</time></trkpt><trkpt lat="46.14180042998164" lon="12.908634355573136"><ele>155.0</ele><time>2026-04-24T17:08:42.999Z</time></trkpt><trkpt lat="46.14170108914606" lon="12.908656738401215"><ele>155.0</ele><time>2026-04-24T17:08:44.999Z</time></trkpt><trkpt lat="46.141635393981645" lon="12.908673612285684"><ele>155.0</ele><time>2026-04-24T17:08:45.999Z</time></trkpt><trkpt lat="46.14157286805422" lon="12.908691312776757"><ele>155.0</ele><time>2026-04-24T17:08:46.999Z</time></trkpt><trkpt lat="46.14146435253238" lon="12.908699686677068"><ele>155.0</ele><time>2026-04-24T17:08:48.999Z</time></trkpt><trkpt lat="46.141365575837966" lon="12.90867665530487"><ele>155.0</ele><time>2026-04-24T17:08:50.999Z</time></trkpt><trkpt lat="46.14126327599178" lon="12.90864311129168"><ele>155.0</ele><time>2026-04-24T17:08:52.999Z</time></trkpt><trkpt lat="46.14117436359028" lon="12.908617645091732"><ele>154.8</ele><time>2026-04-24T17:08:54.999Z</time></trkpt><trkpt lat="46.14105772653266" lon="12.908593830748398"><ele>154.6</ele><time>2026-04-24T17:08:56.999Z</time></trkpt><trkpt lat="46.14095231296964" lon="12.908581318059344"><ele>154.4</ele><time>2026-04-24T17:08:58.999Z</time></trkpt><trkpt lat="46.14085247067697" lon="12.908571546481625"><ele>154.2</ele><time>2026-04-24T17:09:00.999Z</time></trkpt><trkpt lat="46.140790063936684" lon="12.908548601155138"><ele>154.0</ele><time>2026-04-24T17:09:01.999Z</time></trkpt><trkpt lat="46.14071507095111" lon="12.90857930442402"><ele>154.4</ele><time>2026-04-24T17:09:02.999Z</time></trkpt><trkpt lat="46.14063562038931" lon="12.908625413338578"><ele>154.8</ele><time>2026-04-24T17:09:04.999Z</time></trkpt><trkpt lat="46.140540989887064" lon="12.908629330392516"><ele>155.2</ele><time>2026-04-24T17:09:06.999Z</time></trkpt><trkpt lat="46.140467391049704" lon="12.908653135421646"><ele>155.6</ele><time>2026-04-24T17:09:09.999Z</time></trkpt><trkpt lat="46.14037361904536" lon="12.908725472238014"><ele>156.0</ele><time>2026-04-24T17:09:12.999Z</time></trkpt><trkpt lat="46.14027674517599" lon="12.908632856377336"><ele>156.0</ele><time>2026-04-24T17:09:14.999Z</time></trkpt><trkpt lat="46.140207759147835" lon="12.908602374869155"><ele>156.0</ele><time>2026-04-24T17:09:15.999Z</time></trkpt><trkpt lat="46.140133974428245" lon="12.908557818531943"><ele>156.0</ele><time>2026-04-24T17:09:16.999Z</time></trkpt><trkpt lat="46.14006627205219" lon="12.908519625221947"><ele>156.0</ele><time>2026-04-24T17:09:17.999Z</time></trkpt><trkpt lat="46.14000584527245" lon="12.90848822680919"><ele>156.0</ele><time>2026-04-24T17:09:18.999Z</time></trkpt><trkpt lat="46.1399471092311" lon="12.908429882607747"><ele>156.0</ele><time>2026-04-24T17:09:19.999Z</time></trkpt><trkpt lat="46.139912039461315" lon="12.908346981499268"><ele>156.0</ele><time>2026-04-24T17:09:20.999Z</time></trkpt><trkpt lat="46.139875825682054" lon="12.908237798613865"><ele>155.42857142857144</ele><time>2026-04-24T17:09:21.999Z</time></trkpt><trkpt lat="46.13984676020261" lon="12.908154138133554"><ele>154.85714285714283</ele><time>2026-04-24T17:09:22.999Z</time></trkpt><trkpt lat="46.13980208929508" lon="12.908060973271546"><ele>154.28571428571428</ele><time>2026-04-24T17:09:23.999Z</time></trkpt><trkpt lat="46.13975919730067" lon="12.907987370796096"><ele>153.71428571428572</ele><time>2026-04-24T17:09:24.999Z</time></trkpt><trkpt lat="46.139724497004124" lon="12.907908589182362"><ele>153.14285714285717</ele><time>2026-04-24T17:09:25.999Z</time></trkpt><trkpt lat="46.139688899569556" lon="12.907833129773278"><ele>152.57142857142856</ele><time>2026-04-24T17:09:26.999Z</time></trkpt><trkpt lat="46.13963904260366" lon="12.90776135052968"><ele>152.0</ele><time>2026-04-24T17:09:27.999Z</time></trkpt><trkpt lat="46.139596676444306" lon="12.907690861532142"><ele>152.0</ele><time>2026-04-24T17:09:28.999Z</time></trkpt><trkpt lat="46.13954963695179" lon="12.907627118906632"><ele>152.0</ele><time>2026-04-24T17:09:29.999Z</time></trkpt><trkpt lat="46.1395037686199" lon="12.907557956119117"><ele>152.0</ele><time>2026-04-24T17:09:30.999Z</time></trkpt><trkpt lat="46.13945255956821" lon="12.907492339153364"><ele>152.0</ele><time>2026-04-24T17:09:31.999Z</time></trkpt><trkpt lat="46.13940097476614" lon="12.907415092063998"><ele>152.0</ele><time>2026-04-24T17:09:32.999Z</time></trkpt><trkpt lat="46.13934814641784" lon="12.907347235510882"><ele>152.0</ele><time>2026-04-24T17:09:33.999Z</time></trkpt><trkpt lat="46.1392901125621" lon="12.90727542713135"><ele>152.0</ele><time>2026-04-24T17:09:34.999Z</time></trkpt><trkpt lat="46.13923944288217" lon="12.907206990747886"><ele>152.0</ele><time>2026-04-24T17:09:35.999Z</time></trkpt><trkpt lat="46.13918500960469" lon="12.907136760770054"><ele>152.0</ele><time>2026-04-24T17:09:36.999Z</time></trkpt><trkpt lat="46.13913441550871" lon="12.907056481031663"><ele>152.0</ele><time>2026-04-24T17:09:37.999Z</time></trkpt><trkpt lat="46.1390866613182" lon="12.906991087390516"><ele>152.0</ele><time>2026-04-24T17:09:38.999Z</time></trkpt><trkpt lat="46.13903286299572" lon="12.906932047159708"><ele>152.0</ele><time>2026-04-24T17:09:39.999Z</time></trkpt><trkpt lat="46.13893652178148" lon="12.906825956555744"><ele>152.0</ele><time>2026-04-24T17:09:41.999Z</time></trkpt><trkpt lat="46.138830672054326" lon="12.9067278501286"><ele>151.66666666666666</ele><time>2026-04-24T17:09:43.999Z</time></trkpt><trkpt lat="46.13870772621712" lon="12.90666043878591"><ele>151.33333333333331</ele><time>2026-04-24T17:09:45.999Z</time></trkpt><trkpt lat="46.13863532639529" lon="12.906621012273781"><ele>151.0</ele><time>2026-04-24T17:09:46.999Z</time></trkpt><trkpt lat="46.13856394693389" lon="12.906580961833704"><ele>150.66666666666666</ele><time>2026-04-24T17:09:47.999Z</time></trkpt><trkpt lat="46.13848900923316" lon="12.906537692426886"><ele>150.33333333333334</ele><time>2026-04-24T17:09:48.999Z</time></trkpt><trkpt lat="46.13841623449821" lon="12.906506054601953"><ele>150.0</ele><time>2026-04-24T17:09:49.999Z</time></trkpt><trkpt lat="46.13834435412618" lon="12.90648119261022"><ele>150.0</ele><time>2026-04-24T17:09:50.999Z</time></trkpt><trkpt lat="46.13821929297998" lon="12.906429463380269"><ele>150.0</ele><time>2026-04-24T17:09:52.999Z</time></trkpt><trkpt lat="46.13809747710059" lon="12.906388206725435"><ele>150.0</ele><time>2026-04-24T17:09:54.999Z</time></trkpt><trkpt lat="46.13803108727232" lon="12.906362745490824"><ele>150.0</ele><time>2026-04-24T17:09:55.999Z</time></trkpt><trkpt lat="46.137963923150316" lon="12.906341822115579"><ele>150.0</ele><time>2026-04-24T17:09:56.999Z</time></trkpt><trkpt lat="46.1378973048585" lon="12.90632034436957"><ele>150.14285714285714</ele><time>2026-04-24T17:09:57.999Z</time></trkpt><trkpt lat="46.137834646097275" lon="12.906298225398428"><ele>150.28571428571428</ele><time>2026-04-24T17:09:58.999Z</time></trkpt><trkpt lat="46.137767218325" lon="12.906277284453845"><ele>150.42857142857144</ele><time>2026-04-24T17:09:59.999Z</time></trkpt><trkpt lat="46.13770557966146" lon="12.906251455699355"><ele>150.57142857142856</ele><time>2026-04-24T17:10:00.999Z</time></trkpt><trkpt lat="46.137639181806016" lon="12.90622919373828"><ele>150.71428571428572</ele><time>2026-04-24T17:10:01.999Z</time></trkpt><trkpt lat="46.13757978915806" lon="12.906196205925477"><ele>150.85714285714286</ele><time>2026-04-24T17:10:02.999Z</time></trkpt><trkpt lat="46.13751526942532" lon="12.906161185202542"><ele>151.0</ele><time>2026-04-24T17:10:03.999Z</time></trkpt><trkpt lat="46.13739122758333" lon="12.906114190862835"><ele>150.8</ele><time>2026-04-24T17:10:05.999Z</time></trkpt><trkpt lat="46.13732503924173" lon="12.90609530636182"><ele>150.6</ele><time>2026-04-24T17:10:06.999Z</time></trkpt><trkpt lat="46.137209320711875" lon="12.906037028764425"><ele>150.4</ele><time>2026-04-24T17:10:08.999Z</time></trkpt><trkpt lat="46.13709696744838" lon="12.905998659799629"><ele>150.2</ele><time>2026-04-24T17:10:10.999Z</time></trkpt><trkpt lat="46.13698839420307" lon="12.905947803032966"><ele>150.0</ele><time>2026-04-24T17:10:12.999Z</time></trkpt><trkpt lat="46.13686211689672" lon="12.90589177711976"><ele>150.0</ele><time>2026-04-24T17:10:14.999Z</time></trkpt><trkpt lat="46.13680717448965" lon="12.905840371226331"><ele>150.0</ele><time>2026-04-24T17:10:15.999Z</time></trkpt><trkpt lat="46.13671208988102" lon="12.905737213136435"><ele>150.0</ele><time>2026-04-24T17:10:17.999Z</time></trkpt><trkpt lat="46.136656301052945" lon="12.905662475650928"><ele>150.0</ele><time>2026-04-24T17:10:18.999Z</time></trkpt><trkpt lat="46.13660219555475" lon="12.905578648063603"><ele>150.0</ele><time>2026-04-24T17:10:19.999Z</time></trkpt><trkpt lat="46.13656703352438" lon="12.90549476118157"><ele>150.0</ele><time>2026-04-24T17:10:20.998Z</time></trkpt><trkpt lat="46.136526573473255" lon="12.90542483704727"><ele>149.99999999999997</ele><time>2026-04-24T17:10:21.998Z</time></trkpt><trkpt lat="46.13649440333117" lon="12.905339352119304"><ele>150.0</ele><time>2026-04-24T17:10:22.998Z</time></trkpt><trkpt lat="46.136441932865026" lon="12.905271803219453"><ele>150.0</ele><time>2026-04-24T17:10:23.998Z</time></trkpt><trkpt lat="46.13639877609731" lon="12.905195222786201"><ele>150.0</ele><time>2026-04-24T17:10:24.998Z</time></trkpt><trkpt lat="46.13635262136354" lon="12.905121275449915"><ele>150.0</ele><time>2026-04-24T17:10:25.998Z</time></trkpt><trkpt lat="46.13629640219333" lon="12.905058422065057"><ele>149.99999999999997</ele><time>2026-04-24T17:10:26.998Z</time></trkpt><trkpt lat="46.13625311958261" lon="12.904985926809"><ele>150.0</ele><time>2026-04-24T17:10:27.998Z</time></trkpt><trkpt lat="46.136202171637365" lon="12.90490621471261"><ele>149.99999999999997</ele><time>2026-04-24T17:10:28.998Z</time></trkpt><trkpt lat="46.13614718312315" lon="12.904841331396929"><ele>150.0</ele><time>2026-04-24T17:10:29.998Z</time></trkpt><trkpt lat="46.136090352918124" lon="12.90477631572817"><ele>150.0</ele><time>2026-04-24T17:10:30.998Z</time></trkpt><trkpt lat="46.13601677529906" lon="12.904717243693003"><ele>150.0</ele><time>2026-04-24T17:10:31.998Z</time></trkpt><trkpt lat="46.135949119554326" lon="12.904667802282916"><ele>150.0</ele><time>2026-04-24T17:10:32.998Z</time></trkpt><trkpt lat="46.135887500516056" lon="12.904618712415738"><ele>149.99999999999997</ele><time>2026-04-24T17:10:33.998Z</time></trkpt><trkpt lat="46.1358252222572" lon="12.904573743234549"><ele>150.0</ele><time>2026-04-24T17:10:34.998Z</time></trkpt><trkpt lat="46.13576606695213" lon="12.904521145913225"><ele>150.0</ele><time>2026-04-24T17:10:35.998Z</time></trkpt><trkpt lat="46.13570429299596" lon="12.904481143089786"><ele>150.0</ele><time>2026-04-24T17:10:36.998Z</time></trkpt><trkpt lat="46.135639653099794" lon="12.904437164844875"><ele>150.0</ele><time>2026-04-24T17:10:37.998Z</time></trkpt><trkpt lat="46.13552726734126" lon="12.904357070801911"><ele>150.0</ele><time>2026-04-24T17:10:39.998Z</time></trkpt><trkpt lat="46.13546356103512" lon="12.90431785866409"><ele>150.0</ele><time>2026-04-24T17:10:40.998Z</time></trkpt><trkpt lat="46.13540425867315" lon="12.904277917116268"><ele>150.0</ele><time>2026-04-24T17:10:41.998Z</time></trkpt><trkpt lat="46.13528987376901" lon="12.904215918711593"><ele>150.0</ele><time>2026-04-24T17:10:43.998Z</time></trkpt><trkpt lat="46.135229362692314" lon="12.90418319577186"><ele>150.0</ele><time>2026-04-24T17:10:44.998Z</time></trkpt><trkpt lat="46.13511348031186" lon="12.904111734392266"><ele>150.0</ele><time>2026-04-24T17:10:46.998Z</time></trkpt><trkpt lat="46.13505530405089" lon="12.904075606642689"><ele>150.0</ele><time>2026-04-24T17:10:47.998Z</time></trkpt><trkpt lat="46.134938548741694" lon="12.904004547659804"><ele>150.0</ele><time>2026-04-24T17:10:49.998Z</time></trkpt><trkpt lat="46.13483011127809" lon="12.903930590362632"><ele>149.85714285714283</ele><time>2026-04-24T17:10:51.998Z</time></trkpt><trkpt lat="46.134765622719485" lon="12.90390625593276"><ele>149.71428571428572</ele><time>2026-04-24T17:10:52.998Z</time></trkpt><trkpt lat="46.13470608634025" lon="12.90386371847927"><ele>149.57142857142856</ele><time>2026-04-24T17:10:53.998Z</time></trkpt><trkpt lat="46.134647701143905" lon="12.903826302074679"><ele>149.42857142857142</ele><time>2026-04-24T17:10:54.998Z</time></trkpt><trkpt lat="46.134587633324614" lon="12.903797604590363"><ele>149.28571428571428</ele><time>2026-04-24T17:10:55.998Z</time></trkpt><trkpt lat="46.1345293696548" lon="12.903761701507936"><ele>149.14285714285714</ele><time>2026-04-24T17:10:56.998Z</time></trkpt><trkpt lat="46.134468179931986" lon="12.903726746390436"><ele>149.0</ele><time>2026-04-24T17:10:57.998Z</time></trkpt><trkpt lat="46.13434550635205" lon="12.903649685848071"><ele>149.0</ele><time>2026-04-24T17:10:59.998Z</time></trkpt><trkpt lat="46.13428490993883" lon="12.903612356202093"><ele>149.0</ele><time>2026-04-24T17:11:00.998Z</time></trkpt><trkpt lat="46.13421495651101" lon="12.903563633961067"><ele>149.0</ele><time>2026-04-24T17:11:01.998Z</time></trkpt><trkpt lat="46.134142134751926" lon="12.903525009349742"><ele>149.0</ele><time>2026-04-24T17:11:02.998Z</time></trkpt><trkpt lat="46.13406700866302" lon="12.903504358870347"><ele>149.0</ele><time>2026-04-24T17:11:03.998Z</time></trkpt><trkpt lat="46.13399502787545" lon="12.903494828565666"><ele>149.0</ele><time>2026-04-24T17:11:04.998Z</time></trkpt><trkpt lat="46.13391914812712" lon="12.903475542752142"><ele>149.0</ele><time>2026-04-24T17:11:05.998Z</time></trkpt><trkpt lat="46.13385550315716" lon="12.903463417111615"><ele>148.83333333333331</ele><time>2026-04-24T17:11:06.998Z</time></trkpt><trkpt lat="46.13374172974616" lon="12.903422220318014"><ele>148.66666666666666</ele><time>2026-04-24T17:11:08.998Z</time></trkpt><trkpt lat="46.13362942726403" lon="12.903374367294159"><ele>148.5</ele><time>2026-04-24T17:11:10.998Z</time></trkpt><trkpt lat="46.13355582924375" lon="12.90336505386534"><ele>148.33333333333334</ele><time>2026-04-24T17:11:11.998Z</time></trkpt><trkpt lat="46.13348658695642" lon="12.903359415382791"><ele>148.16666666666669</ele><time>2026-04-24T17:11:12.998Z</time></trkpt><trkpt lat="46.133423418188784" lon="12.90334627587184"><ele>148.0</ele><time>2026-04-24T17:11:13.998Z</time></trkpt><trkpt lat="46.13327938048911" lon="12.903333011286895"><ele>147.85714285714286</ele><time>2026-04-24T17:11:15.998Z</time></trkpt><trkpt lat="46.13320858866764" lon="12.903300342650843"><ele>147.71428571428572</ele><time>2026-04-24T17:11:16.998Z</time></trkpt><trkpt lat="46.13313589690235" lon="12.903281350334892"><ele>147.57142857142856</ele><time>2026-04-24T17:11:17.998Z</time></trkpt><trkpt lat="46.13306551762898" lon="12.903250646673452"><ele>147.42857142857144</ele><time>2026-04-24T17:11:18.998Z</time></trkpt><trkpt lat="46.132994744720584" lon="12.903232708711105"><ele>147.28571428571428</ele><time>2026-04-24T17:11:19.998Z</time></trkpt><trkpt lat="46.1329254064267" lon="12.903204582942836"><ele>147.14285714285714</ele><time>2026-04-24T17:11:20.998Z</time></trkpt><trkpt lat="46.132853925360074" lon="12.903177448319134"><ele>147.0</ele><time>2026-04-24T17:11:21.998Z</time></trkpt><trkpt lat="46.13277701411298" lon="12.903161458067347"><ele>147.0</ele><time>2026-04-24T17:11:22.998Z</time></trkpt><trkpt lat="46.13270152315822" lon="12.903137201552827"><ele>147.0</ele><time>2026-04-24T17:11:23.998Z</time></trkpt><trkpt lat="46.13262211600514" lon="12.903111608358737"><ele>147.0</ele><time>2026-04-24T17:11:24.998Z</time></trkpt><trkpt lat="46.13255643761243" lon="12.903077825404063"><ele>147.0</ele><time>2026-04-24T17:11:25.998Z</time></trkpt><trkpt lat="46.1324898438934" lon="12.903047748607674"><ele>147.0</ele><time>2026-04-24T17:11:26.998Z</time></trkpt><trkpt lat="46.13236273853554" lon="12.902994319784971"><ele>147.0</ele><time>2026-04-24T17:11:28.998Z</time></trkpt><trkpt lat="46.13229625344334" lon="12.902969557407927"><ele>147.0</ele><time>2026-04-24T17:11:29.998Z</time></trkpt><trkpt lat="46.132229695611066" lon="12.902932463875619"><ele>147.0</ele><time>2026-04-24T17:11:30.998Z</time></trkpt><trkpt lat="46.13216307391307" lon="12.902905161389693"><ele>147.0</ele><time>2026-04-24T17:11:31.998Z</time></trkpt><trkpt lat="46.13204048667338" lon="12.902844699360587"><ele>147.0</ele><time>2026-04-24T17:11:33.998Z</time></trkpt><trkpt lat="46.13197618512098" lon="12.902832311927394"><ele>147.0</ele><time>2026-04-24T17:11:34.998Z</time></trkpt><trkpt lat="46.13190865528104" lon="12.90281388609988"><ele>147.0</ele><time>2026-04-24T17:11:35.998Z</time></trkpt><trkpt lat="46.13184253214254" lon="12.902784068512785"><ele>147.0</ele><time>2026-04-24T17:11:36.998Z</time></trkpt><trkpt lat="46.13177379268844" lon="12.902767213560578"><ele>147.0</ele><time>2026-04-24T17:11:37.998Z</time></trkpt><trkpt lat="46.13170157287861" lon="12.902758318100329"><ele>147.0</ele><time>2026-04-24T17:11:38.998Z</time></trkpt><trkpt lat="46.13162848510485" lon="12.902746717116653"><ele>147.0</ele><time>2026-04-24T17:11:39.998Z</time></trkpt><trkpt lat="46.1315630781491" lon="12.90274101256868"><ele>147.0</ele><time>2026-04-24T17:11:40.998Z</time></trkpt><trkpt lat="46.131495321991125" lon="12.902735828282431"><ele>147.0</ele><time>2026-04-24T17:11:41.998Z</time></trkpt><trkpt lat="46.13143036848534" lon="12.902729555024239"><ele>147.0</ele><time>2026-04-24T17:11:42.998Z</time></trkpt><trkpt lat="46.13136614732353" lon="12.90272088484995"><ele>146.85714285714286</ele><time>2026-04-24T17:11:43.998Z</time></trkpt><trkpt lat="46.13129325875377" lon="12.90271764573702"><ele>146.71428571428572</ele><time>2026-04-24T17:11:44.998Z</time></trkpt><trkpt lat="46.131220586157035" lon="12.902701554489038"><ele>146.57142857142856</ele><time>2026-04-24T17:11:45.998Z</time></trkpt><trkpt lat="46.13115323260405" lon="12.902695823638814"><ele>146.42857142857144</ele><time>2026-04-24T17:11:46.998Z</time></trkpt><trkpt lat="46.13108820339602" lon="12.902691061501569"><ele>146.28571428571428</ele><time>2026-04-24T17:11:47.998Z</time></trkpt><trkpt lat="46.13102264212698" lon="12.902687741692091"><ele>146.14285714285714</ele><time>2026-04-24T17:11:48.998Z</time></trkpt><trkpt lat="46.13095140717511" lon="12.902687360677806"><ele>146.0</ele><time>2026-04-24T17:11:49.998Z</time></trkpt><trkpt lat="46.13082343084793" lon="12.902675591962028"><ele>145.75</ele><time>2026-04-24T17:11:51.998Z</time></trkpt><trkpt lat="46.130709498359664" lon="12.902672493003152"><ele>145.5</ele><time>2026-04-24T17:11:53.998Z</time></trkpt><trkpt lat="46.130653640760926" lon="12.902545916230206"><ele>145.25</ele><time>2026-04-24T17:11:55.998Z</time></trkpt><trkpt lat="46.130688177166235" lon="12.902378128539707"><ele>145.0</ele><time>2026-04-24T17:11:57.998Z</time></trkpt><trkpt lat="46.13069454461734" lon="12.90220660504769"><ele>145.0</ele><time>2026-04-24T17:11:59.998Z</time></trkpt><trkpt lat="46.130705439303775" lon="12.902044183318662"><ele>145.0</ele><time>2026-04-24T17:12:01.998Z</time></trkpt><trkpt lat="46.13072023531783" lon="12.901890615288966"><ele>145.0</ele><time>2026-04-24T17:12:03.998Z</time></trkpt><trkpt lat="46.13074571888978" lon="12.901751706532353"><ele>145.0</ele><time>2026-04-24T17:12:05.998Z</time></trkpt><trkpt lat="46.1307179576027" lon="12.901623848563279"><ele>145.0</ele><time>2026-04-24T17:12:07.998Z</time></trkpt><trkpt lat="46.130649646853875" lon="12.901485459427033"><ele>145.2</ele><time>2026-04-24T17:12:09.998Z</time></trkpt><trkpt lat="46.130598546103506" lon="12.90142497613485"><ele>145.4</ele><time>2026-04-24T17:12:10.998Z</time></trkpt><trkpt lat="46.130517154370786" lon="12.901338308298993"><ele>145.6</ele><time>2026-04-24T17:12:12.998Z</time></trkpt><trkpt lat="46.13042340307342" lon="12.901249733071266"><ele>145.8</ele><time>2026-04-24T17:12:14.998Z</time></trkpt><trkpt lat="46.1303424956228" lon="12.901148928276891"><ele>146.0</ele><time>2026-04-24T17:12:16.998Z</time></trkpt><trkpt lat="46.13024394375872" lon="12.90106669933566"><ele>146.0</ele><time>2026-04-24T17:12:18.998Z</time></trkpt><trkpt lat="46.13015865245538" lon="12.900969572335589"><ele>146.0</ele><time>2026-04-24T17:12:20.998Z</time></trkpt><trkpt lat="46.13009475095255" lon="12.900932850611827"><ele>146.0</ele><time>2026-04-24T17:12:22.998Z</time></trkpt><trkpt lat="46.13000319208111" lon="12.900876551919763"><ele>146.0</ele><time>2026-04-24T17:12:24.998Z</time></trkpt><trkpt lat="46.12995181409917" lon="12.900763966290626"><ele>146.0</ele><time>2026-04-24T17:12:27.998Z</time></trkpt><trkpt lat="46.12986425739001" lon="12.900729027455235"><ele>145.6</ele><time>2026-04-24T17:12:29.998Z</time></trkpt><trkpt lat="46.12975184802194" lon="12.9007087784991"><ele>145.2</ele><time>2026-04-24T17:12:31.998Z</time></trkpt><trkpt lat="46.12964447292179" lon="12.90071495621822"><ele>144.8</ele><time>2026-04-24T17:12:33.998Z</time></trkpt><trkpt lat="46.129526791453685" lon="12.900696602746404"><ele>144.4</ele><time>2026-04-24T17:12:35.998Z</time></trkpt><trkpt lat="46.129461149345936" lon="12.900693246260014"><ele>144.0</ele><time>2026-04-24T17:12:36.998Z</time></trkpt><trkpt lat="46.12934948792049" lon="12.900636408183978"><ele>144.0</ele><time>2026-04-24T17:12:38.998Z</time></trkpt><trkpt lat="46.12929193714264" lon="12.900599418106733"><ele>144.0</ele><time>2026-04-24T17:12:39.998Z</time></trkpt><trkpt lat="46.129202303499305" lon="12.900514923663353"><ele>144.0</ele><time>2026-04-24T17:12:41.998Z</time></trkpt><trkpt lat="46.12909142826974" lon="12.90042752711557"><ele>144.0</ele><time>2026-04-24T17:12:43.998Z</time></trkpt><trkpt lat="46.128981732145185" lon="12.900336966995452"><ele>144.0</ele><time>2026-04-24T17:12:45.998Z</time></trkpt><trkpt lat="46.1289213031747" lon="12.900303874123095"><ele>144.0</ele><time>2026-04-24T17:12:46.998Z</time></trkpt><trkpt lat="46.12879818244511" lon="12.900218639150605"><ele>144.0</ele><time>2026-04-24T17:12:48.998Z</time></trkpt><trkpt lat="46.128741373601244" lon="12.90015532544851"><ele>144.0</ele><time>2026-04-24T17:12:49.998Z</time></trkpt><trkpt lat="46.12868417478635" lon="12.900076700735765"><ele>144.0</ele><time>2026-04-24T17:12:50.998Z</time></trkpt><trkpt lat="46.12863722925808" lon="12.899986767168773"><ele>144.0</ele><time>2026-04-24T17:12:51.998Z</time></trkpt><trkpt lat="46.12858386523777" lon="12.899925401623237"><ele>144.0</ele><time>2026-04-24T17:12:52.998Z</time></trkpt><trkpt lat="46.128519160240785" lon="12.899855853166539"><ele>144.0</ele><time>2026-04-24T17:12:53.998Z</time></trkpt><trkpt lat="46.128451130108424" lon="12.899785640200212"><ele>144.0</ele><time>2026-04-24T17:12:54.998Z</time></trkpt><trkpt lat="46.12839579986975" lon="12.899721790859365"><ele>144.0</ele><time>2026-04-24T17:12:55.998Z</time></trkpt><trkpt lat="46.12833750484435" lon="12.899653703536998"><ele>144.0</ele><time>2026-04-24T17:12:56.998Z</time></trkpt><trkpt lat="46.128259318728794" lon="12.899597241925534"><ele>144.0</ele><time>2026-04-24T17:12:57.998Z</time></trkpt><trkpt lat="46.12818539549587" lon="12.899547568239024"><ele>144.0</ele><time>2026-04-24T17:12:58.998Z</time></trkpt><trkpt lat="46.128110570774986" lon="12.89950503418766"><ele>144.0</ele><time>2026-04-24T17:12:59.997Z</time></trkpt><trkpt lat="46.12803585964112" lon="12.899488641708828"><ele>144.0</ele><time>2026-04-24T17:13:00.997Z</time></trkpt><trkpt lat="46.127956727030046" lon="12.899466527290365"><ele>144.0</ele><time>2026-04-24T17:13:01.997Z</time></trkpt><trkpt lat="46.127883313577165" lon="12.899437813307511"><ele>144.0</ele><time>2026-04-24T17:13:02.997Z</time></trkpt><trkpt lat="46.12780375529445" lon="12.899398750309517"><ele>144.0</ele><time>2026-04-24T17:13:03.997Z</time></trkpt><trkpt lat="46.12773272962466" lon="12.899361863376448"><ele>144.0</ele><time>2026-04-24T17:13:04.997Z</time></trkpt><trkpt lat="46.12767082892698" lon="12.899316409666238"><ele>144.00000000000003</ele><time>2026-04-24T17:13:05.997Z</time></trkpt><trkpt lat="46.12760989546497" lon="12.89925666102404"><ele>144.0</ele><time>2026-04-24T17:13:06.997Z</time></trkpt><trkpt lat="46.127550226769316" lon="12.899200287781802"><ele>144.0</ele><time>2026-04-24T17:13:07.997Z</time></trkpt><trkpt lat="46.12748774024429" lon="12.89915746044863"><ele>144.0</ele><time>2026-04-24T17:13:08.997Z</time></trkpt><trkpt lat="46.12742107592913" lon="12.899129242597917"><ele>144.0</ele><time>2026-04-24T17:13:09.997Z</time></trkpt><trkpt lat="46.12735997558445" lon="12.89908564766783"><ele>144.00000000000003</ele><time>2026-04-24T17:13:10.997Z</time></trkpt><trkpt lat="46.12729920042192" lon="12.899018780811877"><ele>144.0</ele><time>2026-04-24T17:13:11.997Z</time></trkpt><trkpt lat="46.12723821284125" lon="12.898972592050523"><ele>143.57142857142858</ele><time>2026-04-24T17:13:12.997Z</time></trkpt><trkpt lat="46.12718074777001" lon="12.898928890433298"><ele>143.14285714285714</ele><time>2026-04-24T17:13:13.997Z</time></trkpt><trkpt lat="46.12711628696809" lon="12.898874695702013"><ele>142.71428571428572</ele><time>2026-04-24T17:13:14.997Z</time></trkpt><trkpt lat="46.12705227964462" lon="12.898842173810927"><ele>142.28571428571428</ele><time>2026-04-24T17:13:15.997Z</time></trkpt><trkpt lat="46.12698718786237" lon="12.898808495729003"><ele>141.85714285714286</ele><time>2026-04-24T17:13:16.997Z</time></trkpt><trkpt lat="46.12691939437259" lon="12.898764002960279"><ele>141.42857142857144</ele><time>2026-04-24T17:13:17.997Z</time></trkpt><trkpt lat="46.1268578581294" lon="12.89872741533298"><ele>141.0</ele><time>2026-04-24T17:13:18.997Z</time></trkpt><trkpt lat="46.126793803984064" lon="12.89869347332802"><ele>141.0</ele><time>2026-04-24T17:13:19.997Z</time></trkpt><trkpt lat="46.126691279709725" lon="12.89864873155704"><ele>141.0</ele><time>2026-04-24T17:13:21.997Z</time></trkpt><trkpt lat="46.126589794768584" lon="12.898562858311642"><ele>141.0</ele><time>2026-04-24T17:13:23.997Z</time></trkpt><trkpt lat="46.12647025073105" lon="12.898501097720397"><ele>141.0</ele><time>2026-04-24T17:13:25.997Z</time></trkpt><trkpt lat="46.12640250266486" lon="12.898439908185107"><ele>141.0</ele><time>2026-04-24T17:13:26.997Z</time></trkpt><trkpt lat="46.12633588657964" lon="12.898419878805043"><ele>141.4</ele><time>2026-04-24T17:13:27.997Z</time></trkpt><trkpt lat="46.126277946791646" lon="12.898377945173737"><ele>141.8</ele><time>2026-04-24T17:13:28.997Z</time></trkpt><trkpt lat="46.12621824512136" lon="12.89834702450724"><ele>142.20000000000002</ele><time>2026-04-24T17:13:29.997Z</time></trkpt><trkpt lat="46.12608354352627" lon="12.898284487215431"><ele>142.6</ele><time>2026-04-24T17:13:31.997Z</time></trkpt><trkpt lat="46.1259637531884" lon="12.898225700736589"><ele>143.0</ele><time>2026-04-24T17:13:33.997Z</time></trkpt><trkpt lat="46.12589870309029" lon="12.89819534904833"><ele>143.0</ele><time>2026-04-24T17:13:34.997Z</time></trkpt><trkpt lat="46.12579177152792" lon="12.898116479817604"><ele>143.0</ele><time>2026-04-24T17:13:36.997Z</time></trkpt><trkpt lat="46.125735788675236" lon="12.89806662290281"><ele>143.0</ele><time>2026-04-24T17:13:37.997Z</time></trkpt><trkpt lat="46.12566314243487" lon="12.898037423458229"><ele>143.0</ele><time>2026-04-24T17:13:38.997Z</time></trkpt><trkpt lat="46.125597726379894" lon="12.89798964857284"><ele>143.0</ele><time>2026-04-24T17:13:39.997Z</time></trkpt><trkpt lat="46.125537369706855" lon="12.897954031103518"><ele>143.0</ele><time>2026-04-24T17:13:40.997Z</time></trkpt><trkpt lat="46.125467332506204" lon="12.897917743509696"><ele>142.85714285714283</ele><time>2026-04-24T17:13:41.997Z</time></trkpt><trkpt lat="46.12539772353174" lon="12.897876013979602"><ele>142.71428571428572</ele><time>2026-04-24T17:13:42.997Z</time></trkpt><trkpt lat="46.12533300476395" lon="12.897833606921907"><ele>142.57142857142856</ele><time>2026-04-24T17:13:43.997Z</time></trkpt><trkpt lat="46.12526490245211" lon="12.897789114776428"><ele>142.42857142857142</ele><time>2026-04-24T17:13:44.997Z</time></trkpt><trkpt lat="46.12519589004034" lon="12.897750860003573"><ele>142.28571428571428</ele><time>2026-04-24T17:13:45.997Z</time></trkpt><trkpt lat="46.125128378449084" lon="12.89770434465462"><ele>142.14285714285714</ele><time>2026-04-24T17:13:46.997Z</time></trkpt><trkpt lat="46.1250575340698" lon="12.897663088927288"><ele>142.0</ele><time>2026-04-24T17:13:47.997Z</time></trkpt><trkpt lat="46.12498577684224" lon="12.897619508183542"><ele>142.0</ele><time>2026-04-24T17:13:48.997Z</time></trkpt><trkpt lat="46.12491936795025" lon="12.897572221119828"><ele>142.0</ele><time>2026-04-24T17:13:49.997Z</time></trkpt><trkpt lat="46.12484869331339" lon="12.897535785430755"><ele>142.0</ele><time>2026-04-24T17:13:50.997Z</time></trkpt><trkpt lat="46.124771044114254" lon="12.897497623585098"><ele>142.0</ele><time>2026-04-24T17:13:51.997Z</time></trkpt><trkpt lat="46.12470176496542" lon="12.897458986603374"><ele>142.0</ele><time>2026-04-24T17:13:52.997Z</time></trkpt><trkpt lat="46.12462553922273" lon="12.897425669069234"><ele>142.0</ele><time>2026-04-24T17:13:53.997Z</time></trkpt><trkpt lat="46.12454741473461" lon="12.897393131727338"><ele>141.83333333333334</ele><time>2026-04-24T17:13:54.997Z</time></trkpt><trkpt lat="46.124470969505445" lon="12.897365967268748"><ele>141.66666666666669</ele><time>2026-04-24T17:13:55.997Z</time></trkpt><trkpt lat="46.12440157255065" lon="12.897315901767701"><ele>141.5</ele><time>2026-04-24T17:13:56.997Z</time></trkpt><trkpt lat="46.12433504007618" lon="12.897265021774416"><ele>141.33333333333334</ele><time>2026-04-24T17:13:57.997Z</time></trkpt><trkpt lat="46.12426690177941" lon="12.897203303231"><ele>141.16666666666666</ele><time>2026-04-24T17:13:58.997Z</time></trkpt><trkpt lat="46.124214278818" lon="12.897140945708689"><ele>141.0</ele><time>2026-04-24T17:13:59.997Z</time></trkpt><trkpt lat="46.12415448036734" lon="12.89706440435112"><ele>141.0</ele><time>2026-04-24T17:14:00.997Z</time></trkpt><trkpt lat="46.12409757592388" lon="12.896983908328545"><ele>141.0</ele><time>2026-04-24T17:14:01.997Z</time></trkpt><trkpt lat="46.12405158531056" lon="12.89688234472878"><ele>141.0</ele><time>2026-04-24T17:14:02.997Z</time></trkpt><trkpt lat="46.12401131064238" lon="12.896769837447438"><ele>141.0</ele><time>2026-04-24T17:14:03.997Z</time></trkpt><trkpt lat="46.12396989164741" lon="12.896667396066228"><ele>141.0</ele><time>2026-04-24T17:14:04.997Z</time></trkpt><trkpt lat="46.123926123930765" lon="12.896563966094632"><ele>141.0</ele><time>2026-04-24T17:14:05.997Z</time></trkpt><trkpt lat="46.123879725016124" lon="12.896468554113298"><ele>140.66666666666666</ele><time>2026-04-24T17:14:06.997Z</time></trkpt><trkpt lat="46.123834818492426" lon="12.8963789420499"><ele>140.33333333333334</ele><time>2026-04-24T17:14:07.997Z</time></trkpt><trkpt lat="46.12378240892655" lon="12.896296890703994"><ele>140.0</ele><time>2026-04-24T17:14:08.997Z</time></trkpt><trkpt lat="46.12372913857734" lon="12.89623070408382"><ele>139.66666666666669</ele><time>2026-04-24T17:14:09.997Z</time></trkpt><trkpt lat="46.123656901657746" lon="12.896166912319615"><ele>139.33333333333334</ele><time>2026-04-24T17:14:10.997Z</time></trkpt><trkpt lat="46.12359209826735" lon="12.896126597299617"><ele>139.0</ele><time>2026-04-24T17:14:11.997Z</time></trkpt><trkpt lat="46.123528504085215" lon="12.896080300504519"><ele>139.0</ele><time>2026-04-24T17:14:12.997Z</time></trkpt><trkpt lat="46.1234583736468" lon="12.896034041139584"><ele>139.0</ele><time>2026-04-24T17:14:13.997Z</time></trkpt><trkpt lat="46.12335004106892" lon="12.895960154300758"><ele>139.0</ele><time>2026-04-24T17:14:15.997Z</time></trkpt><trkpt lat="46.1232882913651" lon="12.895924517339981"><ele>139.0</ele><time>2026-04-24T17:14:16.997Z</time></trkpt><trkpt lat="46.123183743424995" lon="12.895812995502894"><ele>139.0</ele><time>2026-04-24T17:14:18.997Z</time></trkpt><trkpt lat="46.12312337323162" lon="12.895766462562152"><ele>138.8</ele><time>2026-04-24T17:14:19.997Z</time></trkpt><trkpt lat="46.12301163164354" lon="12.895789774354622"><ele>138.60000000000002</ele><time>2026-04-24T17:14:21.997Z</time></trkpt><trkpt lat="46.12295697870192" lon="12.895841648591702"><ele>138.4</ele><time>2026-04-24T17:14:22.997Z</time></trkpt><trkpt lat="46.122852175377496" lon="12.895928895935603"><ele>138.20000000000002</ele><time>2026-04-24T17:14:24.997Z</time></trkpt><trkpt lat="46.12278985866572" lon="12.895957294962297"><ele>138.0</ele><time>2026-04-24T17:14:25.997Z</time></trkpt><trkpt lat="46.12266936426208" lon="12.895965391631044"><ele>138.0</ele><time>2026-04-24T17:14:27.997Z</time></trkpt><trkpt lat="46.12257255694724" lon="12.89595400917649"><ele>138.0</ele><time>2026-04-24T17:14:29.997Z</time></trkpt><trkpt lat="46.12244436923616" lon="12.895946023889453"><ele>138.0</ele><time>2026-04-24T17:14:31.997Z</time></trkpt><trkpt lat="46.12233378478814" lon="12.895938117637089"><ele>138.0</ele><time>2026-04-24T17:14:33.997Z</time></trkpt><trkpt lat="46.12221370107863" lon="12.89593359933115"><ele>137.6</ele><time>2026-04-24T17:14:35.997Z</time></trkpt><trkpt lat="46.1221456921721" lon="12.89593453979909"><ele>137.20000000000002</ele><time>2026-04-24T17:14:36.997Z</time></trkpt><trkpt lat="46.1220281214493" lon="12.895921281525373"><ele>136.8</ele><time>2026-04-24T17:14:38.997Z</time></trkpt><trkpt lat="46.121901459976996" lon="12.895913948288435"><ele>136.4</ele><time>2026-04-24T17:14:40.997Z</time></trkpt><trkpt lat="46.12177069921658" lon="12.895904560889624"><ele>136.0</ele><time>2026-04-24T17:14:42.997Z</time></trkpt><trkpt lat="46.12164623327248" lon="12.895893065028467"><ele>135.6</ele><time>2026-04-24T17:14:44.997Z</time></trkpt><trkpt lat="46.12152570193473" lon="12.895887482522697"><ele>135.2</ele><time>2026-04-24T17:14:46.997Z</time></trkpt><trkpt lat="46.12139788539514" lon="12.895867741785226"><ele>134.8</ele><time>2026-04-24T17:14:48.997Z</time></trkpt><trkpt lat="46.121335912881804" lon="12.895849323666342"><ele>134.4</ele><time>2026-04-24T17:14:49.997Z</time></trkpt><trkpt lat="46.12126573104757" lon="12.895835966497684"><ele>134.0</ele><time>2026-04-24T17:14:50.997Z</time></trkpt><trkpt lat="46.121198322603895" lon="12.89581757999965"><ele>134.0</ele><time>2026-04-24T17:14:51.997Z</time></trkpt><trkpt lat="46.121128464594975" lon="12.895796594514731"><ele>134.0</ele><time>2026-04-24T17:14:52.997Z</time></trkpt><trkpt lat="46.12104969220689" lon="12.89577072957153"><ele>134.0</ele><time>2026-04-24T17:14:53.997Z</time></trkpt><trkpt lat="46.12097970998353" lon="12.895744038639924"><ele>134.0</ele><time>2026-04-24T17:14:54.997Z</time></trkpt><trkpt lat="46.12091470007619" lon="12.895721170714003"><ele>134.0</ele><time>2026-04-24T17:14:55.997Z</time></trkpt><trkpt lat="46.120848121074175" lon="12.895691986721735"><ele>134.0</ele><time>2026-04-24T17:14:56.997Z</time></trkpt><trkpt lat="46.120782957521996" lon="12.895684689783613"><ele>134.0</ele><time>2026-04-24T17:14:57.997Z</time></trkpt><trkpt lat="46.12070581914194" lon="12.895666235348527"><ele>134.28571428571428</ele><time>2026-04-24T17:14:58.997Z</time></trkpt><trkpt lat="46.12063464309278" lon="12.895666774805969"><ele>134.57142857142856</ele><time>2026-04-24T17:14:59.997Z</time></trkpt><trkpt lat="46.12057207012872" lon="12.895652423553708"><ele>134.85714285714283</ele><time>2026-04-24T17:15:00.997Z</time></trkpt><trkpt lat="46.12050815879908" lon="12.895626338558461"><ele>135.14285714285714</ele><time>2026-04-24T17:15:01.997Z</time></trkpt><trkpt lat="46.120438081395704" lon="12.895589880566481"><ele>135.42857142857142</ele><time>2026-04-24T17:15:02.997Z</time></trkpt><trkpt lat="46.12037626394047" lon="12.895557485269213"><ele>135.7142857142857</ele><time>2026-04-24T17:15:03.997Z</time></trkpt><trkpt lat="46.12031231439976" lon="12.895531657685229"><ele>136.0</ele><time>2026-04-24T17:15:04.997Z</time></trkpt><trkpt lat="46.120243122491694" lon="12.89549669899713"><ele>135.99999999999997</ele><time>2026-04-24T17:15:05.997Z</time></trkpt><trkpt lat="46.12017368194824" lon="12.895462327307829"><ele>136.0</ele><time>2026-04-24T17:15:06.997Z</time></trkpt><trkpt lat="46.120101541819274" lon="12.895424509732452"><ele>136.0</ele><time>2026-04-24T17:15:07.997Z</time></trkpt><trkpt lat="46.120032700678664" lon="12.895391793090152"><ele>136.0</ele><time>2026-04-24T17:15:08.997Z</time></trkpt><trkpt lat="46.119969925136076" lon="12.89535651279472"><ele>136.0</ele><time>2026-04-24T17:15:09.997Z</time></trkpt><trkpt lat="46.119902862086114" lon="12.89529389560209"><ele>135.99999999999997</ele><time>2026-04-24T17:15:10.997Z</time></trkpt><trkpt lat="46.119827585856136" lon="12.895265487986679"><ele>136.0</ele><time>2026-04-24T17:15:11.997Z</time></trkpt><trkpt lat="46.119750790339054" lon="12.895222418877811"><ele>135.99999999999997</ele><time>2026-04-24T17:15:12.997Z</time></trkpt><trkpt lat="46.119671750720904" lon="12.895178280300257"><ele>136.0</ele><time>2026-04-24T17:15:13.997Z</time></trkpt><trkpt lat="46.11959966372688" lon="12.895141422902043"><ele>136.0</ele><time>2026-04-24T17:15:14.997Z</time></trkpt><trkpt lat="46.119535851024146" lon="12.895098108220365"><ele>136.0</ele><time>2026-04-24T17:15:15.997Z</time></trkpt><trkpt lat="46.11947318072218" lon="12.895052367066494"><ele>136.0</ele><time>2026-04-24T17:15:16.997Z</time></trkpt><trkpt lat="46.11940942957386" lon="12.895021223742798"><ele>135.99999999999997</ele><time>2026-04-24T17:15:17.997Z</time></trkpt><trkpt lat="46.11934308484896" lon="12.894991550558366"><ele>136.0</ele><time>2026-04-24T17:15:18.997Z</time></trkpt><trkpt lat="46.11927001055337" lon="12.894958443026304"><ele>135.83333333333334</ele><time>2026-04-24T17:15:19.997Z</time></trkpt><trkpt lat="46.11919871280912" lon="12.894931822361364"><ele>135.66666666666669</ele><time>2026-04-24T17:15:20.997Z</time></trkpt><trkpt lat="46.119134141571344" lon="12.894912543570294"><ele>135.5</ele><time>2026-04-24T17:15:21.997Z</time></trkpt><trkpt lat="46.11907018578095" lon="12.894882441322533"><ele>135.33333333333334</ele><time>2026-04-24T17:15:22.997Z</time></trkpt><trkpt lat="46.11900760014117" lon="12.89485158944101"><ele>135.16666666666666</ele><time>2026-04-24T17:15:23.997Z</time></trkpt><trkpt lat="46.118930575616396" lon="12.894824545976869"><ele>135.0</ele><time>2026-04-24T17:15:24.997Z</time></trkpt><trkpt lat="46.11882021083379" lon="12.894776475713195"><ele>134.6</ele><time>2026-04-24T17:15:26.997Z</time></trkpt><trkpt lat="46.11871618831767" lon="12.894738394061031"><ele>134.2</ele><time>2026-04-24T17:15:28.997Z</time></trkpt><trkpt lat="46.118616347612075" lon="12.894706813434636"><ele>133.8</ele><time>2026-04-24T17:15:30.997Z</time></trkpt><trkpt lat="46.11851354632655" lon="12.894662449311957"><ele>133.4</ele><time>2026-04-24T17:15:32.997Z</time></trkpt><trkpt lat="46.11845155175393" lon="12.894625131734836"><ele>133.0</ele><time>2026-04-24T17:15:34.997Z</time></trkpt><trkpt lat="46.118360911137756" lon="12.894616801650464"><ele>133.0</ele><time>2026-04-24T17:15:38.996Z</time></trkpt><trkpt lat="46.11829164514855" lon="12.894606912358032"><ele>133.0</ele><time>2026-04-24T17:15:40.996Z</time></trkpt><trkpt lat="46.118214708655394" lon="12.894593112616628"><ele>133.0</ele><time>2026-04-24T17:15:42.996Z</time></trkpt><trkpt lat="46.11815552774216" lon="12.894671153268694"><ele>133.0</ele><time>2026-04-24T17:15:44.996Z</time></trkpt><trkpt lat="46.118088411793025" lon="12.894771523785717"><ele>133.0</ele><time>2026-04-24T17:15:46.996Z</time></trkpt><trkpt lat="46.117993784157086" lon="12.894843048454375"><ele>133.0</ele><time>2026-04-24T17:15:48.996Z</time></trkpt><trkpt lat="46.11787118425699" lon="12.894839182551431"><ele>133.4</ele><time>2026-04-24T17:15:50.996Z</time></trkpt><trkpt lat="46.117771989705524" lon="12.894794152630476"><ele>133.8</ele><time>2026-04-24T17:15:52.996Z</time></trkpt><trkpt lat="46.117654494868134" lon="12.894780794412096"><ele>134.2</ele><time>2026-04-24T17:15:54.996Z</time></trkpt><trkpt lat="46.11755923765574" lon="12.89476154015189"><ele>134.6</ele><time>2026-04-24T17:15:56.996Z</time></trkpt><trkpt lat="46.11743714163007" lon="12.894744172756178"><ele>135.0</ele><time>2026-04-24T17:15:58.996Z</time></trkpt><trkpt lat="46.11733359281275" lon="12.894687664452237"><ele>135.16666666666666</ele><time>2026-04-24T17:16:00.996Z</time></trkpt><trkpt lat="46.11725274795526" lon="12.894633269488766"><ele>135.33333333333334</ele><time>2026-04-24T17:16:02.996Z</time></trkpt><trkpt lat="46.117140755949286" lon="12.894570131758469"><ele>135.5</ele><time>2026-04-24T17:16:04.996Z</time></trkpt><trkpt lat="46.11707042871439" lon="12.89452403195067"><ele>135.66666666666669</ele><time>2026-04-24T17:16:05.996Z</time></trkpt><trkpt lat="46.11699574543886" lon="12.894490555274352"><ele>135.83333333333334</ele><time>2026-04-24T17:16:06.996Z</time></trkpt><trkpt lat="46.11692609846257" lon="12.894455858962035"><ele>136.0</ele><time>2026-04-24T17:16:07.996Z</time></trkpt><trkpt lat="46.11686133981859" lon="12.894419436183355"><ele>136.0</ele><time>2026-04-24T17:16:08.996Z</time></trkpt><trkpt lat="46.11680097990994" lon="12.89438605314771"><ele>136.0</ele><time>2026-04-24T17:16:09.996Z</time></trkpt><trkpt lat="46.11671332759306" lon="12.894341905353997"><ele>136.0</ele><time>2026-04-24T17:16:11.996Z</time></trkpt><trkpt lat="46.11665444175034" lon="12.894304014402367"><ele>136.0</ele><time>2026-04-24T17:16:12.996Z</time></trkpt><trkpt lat="46.1165929052814" lon="12.894262289745528"><ele>136.0</ele><time>2026-04-24T17:16:13.996Z</time></trkpt><trkpt lat="46.116530116519385" lon="12.894220554179558"><ele>136.0</ele><time>2026-04-24T17:16:14.996Z</time></trkpt><trkpt lat="46.116418967640826" lon="12.894160951798295"><ele>135.4</ele><time>2026-04-24T17:16:16.996Z</time></trkpt><trkpt lat="46.11632448512383" lon="12.894114343159968"><ele>134.8</ele><time>2026-04-24T17:16:18.996Z</time></trkpt><trkpt lat="46.116207840519685" lon="12.894061029921248"><ele>134.20000000000002</ele><time>2026-04-24T17:16:20.996Z</time></trkpt><trkpt lat="46.11614735421348" lon="12.89402659309445"><ele>133.6</ele><time>2026-04-24T17:16:21.996Z</time></trkpt><trkpt lat="46.11603033717491" lon="12.893956836843183"><ele>133.0</ele><time>2026-04-24T17:16:23.996Z</time></trkpt><trkpt lat="46.11591081189323" lon="12.893894855741408"><ele>133.0</ele><time>2026-04-24T17:16:25.996Z</time></trkpt><trkpt lat="46.115843413869" lon="12.893856013031098"><ele>133.0</ele><time>2026-04-24T17:16:26.996Z</time></trkpt><trkpt lat="46.115776549039175" lon="12.893821916296217"><ele>133.0</ele><time>2026-04-24T17:16:27.996Z</time></trkpt><trkpt lat="46.11571408187395" lon="12.893782734008397"><ele>133.0</ele><time>2026-04-24T17:16:28.996Z</time></trkpt><trkpt lat="46.11564592529711" lon="12.893765697677585"><ele>133.0</ele><time>2026-04-24T17:16:29.996Z</time></trkpt><trkpt lat="46.115578712812415" lon="12.893725495546914"><ele>133.0</ele><time>2026-04-24T17:16:30.996Z</time></trkpt><trkpt lat="46.11551902784062" lon="12.893677579565109"><ele>133.0</ele><time>2026-04-24T17:16:31.996Z</time></trkpt><trkpt lat="46.11544537571067" lon="12.89365430440141"><ele>132.85714285714286</ele><time>2026-04-24T17:16:32.996Z</time></trkpt><trkpt lat="46.115382010181484" lon="12.893617258537263"><ele>132.71428571428572</ele><time>2026-04-24T17:16:33.996Z</time></trkpt><trkpt lat="46.115316876793585" lon="12.893584032729692"><ele>132.57142857142856</ele><time>2026-04-24T17:16:34.996Z</time></trkpt><trkpt lat="46.11525095553865" lon="12.893548527218675"><ele>132.42857142857144</ele><time>2026-04-24T17:16:35.996Z</time></trkpt><trkpt lat="46.11518125112402" lon="12.893513250132596"><ele>132.28571428571428</ele><time>2026-04-24T17:16:36.996Z</time></trkpt><trkpt lat="46.11512044791342" lon="12.893476172590168"><ele>132.14285714285714</ele><time>2026-04-24T17:16:37.996Z</time></trkpt><trkpt lat="46.11505869145319" lon="12.893430763698902"><ele>132.0</ele><time>2026-04-24T17:16:38.996Z</time></trkpt><trkpt lat="46.11499909071981" lon="12.89338690563141"><ele>131.83333333333334</ele><time>2026-04-24T17:16:39.996Z</time></trkpt><trkpt lat="46.11492576578403" lon="12.893349978645796"><ele>131.66666666666666</ele><time>2026-04-24T17:16:40.996Z</time></trkpt><trkpt lat="46.114860161479236" lon="12.893320169568701"><ele>131.5</ele><time>2026-04-24T17:16:41.996Z</time></trkpt><trkpt lat="46.11474234194167" lon="12.893247024353112"><ele>131.33333333333331</ele><time>2026-04-24T17:16:43.996Z</time></trkpt><trkpt lat="46.11467366334528" lon="12.893207311057603"><ele>131.16666666666666</ele><time>2026-04-24T17:16:44.996Z</time></trkpt><trkpt lat="46.11461205053286" lon="12.893179594082532"><ele>131.0</ele><time>2026-04-24T17:16:45.996Z</time></trkpt><trkpt lat="46.114551143859934" lon="12.893141291154539"><ele>131.0</ele><time>2026-04-24T17:16:46.996Z</time></trkpt><trkpt lat="46.11443500398127" lon="12.893080786050463"><ele>131.0</ele><time>2026-04-24T17:16:48.996Z</time></trkpt><trkpt lat="46.114373601579125" lon="12.893042735304654"><ele>131.0</ele><time>2026-04-24T17:16:49.996Z</time></trkpt><trkpt lat="46.11425904526351" lon="12.892984630027268"><ele>131.0</ele><time>2026-04-24T17:16:51.996Z</time></trkpt><trkpt lat="46.11419903572809" lon="12.892944632694467"><ele>131.0</ele><time>2026-04-24T17:16:52.996Z</time></trkpt><trkpt lat="46.11413302661113" lon="12.892913131779176"><ele>131.0</ele><time>2026-04-24T17:16:53.996Z</time></trkpt><trkpt lat="46.11406491402297" lon="12.892889320240256"><ele>131.14285714285714</ele><time>2026-04-24T17:16:54.996Z</time></trkpt><trkpt lat="46.11399013468107" lon="12.892868463075022"><ele>131.2857142857143</ele><time>2026-04-24T17:16:55.996Z</time></trkpt><trkpt lat="46.11392196366185" lon="12.89284815386462"><ele>131.42857142857144</ele><time>2026-04-24T17:16:56.996Z</time></trkpt><trkpt lat="46.11384255859576" lon="12.892846585525502"><ele>131.57142857142858</ele><time>2026-04-24T17:16:57.996Z</time></trkpt><trkpt lat="46.113779589224336" lon="12.892838106264852"><ele>131.71428571428572</ele><time>2026-04-24T17:16:58.996Z</time></trkpt><trkpt lat="46.11371654624718" lon="12.89283736384023"><ele>131.85714285714286</ele><time>2026-04-24T17:16:59.996Z</time></trkpt><trkpt lat="46.11365026227423" lon="12.8928270274617"><ele>132.0</ele><time>2026-04-24T17:17:00.996Z</time></trkpt><trkpt lat="46.11352754582944" lon="12.892808160536623"><ele>132.0</ele><time>2026-04-24T17:17:02.996Z</time></trkpt><trkpt lat="46.1133942678189" lon="12.892812210825921"><ele>132.0</ele><time>2026-04-24T17:17:04.996Z</time></trkpt><trkpt lat="46.113272825382616" lon="12.892802884333756"><ele>132.0</ele><time>2026-04-24T17:17:06.996Z</time></trkpt><trkpt lat="46.11313793843166" lon="12.892787973784165"><ele>132.0</ele><time>2026-04-24T17:17:08.996Z</time></trkpt><trkpt lat="46.11307007573" lon="12.892778953441042"><ele>131.66666666666666</ele><time>2026-04-24T17:17:09.996Z</time></trkpt><trkpt lat="46.11299922071316" lon="12.89276619442904"><ele>131.33333333333334</ele><time>2026-04-24T17:17:10.996Z</time></trkpt><trkpt lat="46.11293038794561" lon="12.892758648071919"><ele>131.0</ele><time>2026-04-24T17:17:11.996Z</time></trkpt><trkpt lat="46.11285509707315" lon="12.89274763589634"><ele>130.66666666666669</ele><time>2026-04-24T17:17:12.996Z</time></trkpt><trkpt lat="46.11278247924904" lon="12.892732711069572"><ele>130.33333333333334</ele><time>2026-04-24T17:17:13.996Z</time></trkpt><trkpt lat="46.112703026090244" lon="12.892731856106886"><ele>130.0</ele><time>2026-04-24T17:17:14.996Z</time></trkpt><trkpt lat="46.11257286568963" lon="12.892717114456522"><ele>130.0</ele><time>2026-04-24T17:17:16.996Z</time></trkpt><trkpt lat="46.11244454441118" lon="12.892699557513476"><ele>130.0</ele><time>2026-04-24T17:17:18.996Z</time></trkpt><trkpt lat="46.1123707083983" lon="12.892686908994774"><ele>130.0</ele><time>2026-04-24T17:17:19.996Z</time></trkpt><trkpt lat="46.11229030650254" lon="12.892685472239682"><ele>130.0</ele><time>2026-04-24T17:17:20.996Z</time></trkpt><trkpt lat="46.11221832522045" lon="12.892681393042507"><ele>130.0</ele><time>2026-04-24T17:17:21.996Z</time></trkpt><trkpt lat="46.11214418688541" lon="12.892674942849819"><ele>130.0</ele><time>2026-04-24T17:17:22.996Z</time></trkpt><trkpt lat="46.11206832791922" lon="12.89265721943168"><ele>130.0</ele><time>2026-04-24T17:17:23.996Z</time></trkpt><trkpt lat="46.11199492276092" lon="12.892647232773554"><ele>130.0</ele><time>2026-04-24T17:17:24.996Z</time></trkpt><trkpt lat="46.11192694883408" lon="12.89263753680929"><ele>130.0</ele><time>2026-04-24T17:17:25.996Z</time></trkpt><trkpt lat="46.11186153849662" lon="12.89263393165864"><ele>130.0</ele><time>2026-04-24T17:17:26.996Z</time></trkpt><trkpt lat="46.11179392085802" lon="12.892617436286969"><ele>130.0</ele><time>2026-04-24T17:17:27.996Z</time></trkpt><trkpt lat="46.111677473134066" lon="12.892625816137452"><ele>130.0</ele><time>2026-04-24T17:17:29.996Z</time></trkpt><trkpt lat="46.111559179857046" lon="12.892590815021537"><ele>130.0</ele><time>2026-04-24T17:17:31.996Z</time></trkpt><trkpt lat="46.11146569739698" lon="12.892606368413903"><ele>130.0</ele><time>2026-04-24T17:17:33.996Z</time></trkpt><trkpt lat="46.11135955526186" lon="12.89260266957472"><ele>130.0</ele><time>2026-04-24T17:17:35.996Z</time></trkpt><trkpt lat="46.11124181537594" lon="12.8926001533296"><ele>130.0</ele><time>2026-04-24T17:17:37.996Z</time></trkpt><trkpt lat="46.11113560373963" lon="12.892581496512749"><ele>130.0</ele><time>2026-04-24T17:17:39.996Z</time></trkpt><trkpt lat="46.11107198876903" lon="12.892606748078464"><ele>129.83333333333334</ele><time>2026-04-24T17:17:41.996Z</time></trkpt><trkpt lat="46.1110523222982" lon="12.892519205196937"><ele>129.66666666666669</ele><time>2026-04-24T17:17:45.996Z</time></trkpt><trkpt lat="46.11105398457607" lon="12.892391257578218"><ele>129.5</ele><time>2026-04-24T17:17:47.996Z</time></trkpt><trkpt lat="46.111055187769786" lon="12.892268631454991"><ele>129.33333333333334</ele><time>2026-04-24T17:17:49.996Z</time></trkpt><trkpt lat="46.11105811543862" lon="12.892153145254657"><ele>129.16666666666666</ele><time>2026-04-24T17:17:51.996Z</time></trkpt><trkpt lat="46.11106926334949" lon="12.892007400955048"><ele>129.0</ele><time>2026-04-24T17:17:53.996Z</time></trkpt><trkpt lat="46.111061523215795" lon="12.89184820635034"><ele>129.16666666666666</ele><time>2026-04-24T17:17:55.996Z</time></trkpt><trkpt lat="46.11102318392639" lon="12.891714720566888"><ele>129.33333333333334</ele><time>2026-04-24T17:17:57.996Z</time></trkpt><trkpt lat="46.11096268108887" lon="12.891645161711406"><ele>129.5</ele><time>2026-04-24T17:17:59.996Z</time></trkpt><trkpt lat="46.11086373140509" lon="12.891600353217218"><ele>129.66666666666669</ele><time>2026-04-24T17:18:01.996Z</time></trkpt><trkpt lat="46.11078882674398" lon="12.89158163629241"><ele>129.83333333333334</ele><time>2026-04-24T17:18:03.996Z</time></trkpt><trkpt lat="46.11070932189065" lon="12.891530737825981"><ele>130.0</ele><time>2026-04-24T17:18:05.996Z</time></trkpt><trkpt lat="46.11062436908726" lon="12.891515574849132"><ele>129.6</ele><time>2026-04-24T17:18:07.996Z</time></trkpt><trkpt lat="46.11054966934982" lon="12.891459356087658"><ele>129.2</ele><time>2026-04-24T17:18:09.996Z</time></trkpt><trkpt lat="46.110462728243554" lon="12.891415334171903"><ele>128.8</ele><time>2026-04-24T17:18:11.996Z</time></trkpt><trkpt lat="46.1103679121279" lon="12.891355468379395"><ele>128.4</ele><time>2026-04-24T17:18:13.996Z</time></trkpt><trkpt lat="46.11027463064292" lon="12.891301079709455"><ele>128.0</ele><time>2026-04-24T17:18:15.995Z</time></trkpt><trkpt lat="46.110172902303134" lon="12.891246357754184"><ele>128.0</ele><time>2026-04-24T17:18:17.995Z</time></trkpt><trkpt lat="46.110069238030796" lon="12.891187144823151"><ele>128.0</ele><time>2026-04-24T17:18:19.995Z</time></trkpt><trkpt lat="46.10998054264003" lon="12.891136615289968"><ele>128.0</ele><time>2026-04-24T17:18:21.995Z</time></trkpt><trkpt lat="46.109888169325444" lon="12.891102793111665"><ele>128.0</ele><time>2026-04-24T17:18:23.995Z</time></trkpt><trkpt lat="46.10980293411625" lon="12.891047939896383"><ele>128.0</ele><time>2026-04-24T17:18:25.995Z</time></trkpt><trkpt lat="46.109717183142855" lon="12.890992509643677"><ele>127.83333333333333</ele><time>2026-04-24T17:18:27.995Z</time></trkpt><trkpt lat="46.1096323738449" lon="12.890950607754867"><ele>127.66666666666666</ele><time>2026-04-24T17:18:29.995Z</time></trkpt><trkpt lat="46.109564068454425" lon="12.890910240028902"><ele>127.5</ele><time>2026-04-24T17:18:31.995Z</time></trkpt><trkpt lat="46.10949456656653" lon="12.890859742899167"><ele>127.33333333333334</ele><time>2026-04-24T17:18:33.995Z</time></trkpt><trkpt lat="46.109446917560675" lon="12.890767184052638"><ele>127.16666666666667</ele><time>2026-04-24T17:18:36.995Z</time></trkpt><trkpt lat="46.10947719174034" lon="12.890682820815716"><ele>127.0</ele><time>2026-04-24T17:18:38.995Z</time></trkpt><trkpt lat="46.109509379894945" lon="12.890551643013552"><ele>126.0</ele><time>2026-04-24T17:18:40.995Z</time></trkpt><trkpt lat="46.10953710892984" lon="12.890437536989463"><ele>126.0</ele><time>2026-04-24T17:18:42.995Z</time></trkpt><trkpt lat="46.109554225537224" lon="12.890316293982305"><ele>126.0</ele><time>2026-04-24T17:18:44.995Z</time></trkpt></trkseg></trk></gpx>